GFSCGP_250_rhum_000.txt.gz
RH
84 91 98 84 78 78 80 79 67 46 31 20 15 16 21 25 22 19 20 22 19 17 16 17 20 26 22 25 23 21 21 24 25 39 45 40 39 43 45 39 38 36 38 42
55 61 52 45 34 28 21 15 13 14 14 15 18 18 29 29 30 26 22 24 20 18 17 18 18 20 23 22 24 25 26 38 42 39 38 47 48 45 40 38 39 40 40 41
13 12 12 13 13 14 14 14 13 14 14 15 18 18 26 24 26 23 26 24 20 18 19 17 18 20 20 22 28 25 28 47 49 39 46 50 45 40 40 41 40 41 48 51
18 17 17 16 16 16 16 15 14 15 16 16 20 18 15 29 21 24 22 22 18 18 19 18 18 21 23 26 24 25 29 49 49 46 42 41 40 42 45 43 46 52 60 64
24 22 20 20 19 19 19 17 16 18 19 19 23 32 13 21 18 24 19 19 20 18 16 18 20 21 22 23 26 32 48 55 53 47 44 45 40 45 50 54 57 65 72 75
26 26 28 32 29 26 23 22 21 20 20 20 19 28 14 14 17 18 21 18 18 17 19 17 18 20 24 28 44 58 57 47 46 44 48 50 48 53 68 80 86 87 91 88
22 20 20 20 21 24 27 28 29 32 30 30 33 30 15 19 16 14 16 17 19 18 18 18 19 22 39 62 52 45 41 46 50 49 48 51 60 74 85 94 98 99 83 83
16 16 17 18 18 17 24 29 30 30 32 30 44 39 18 18 21 15 14 15 15 16 17 21 30 51 56 57 40 43 51 51 46 46 49 56 67 80 91 93 84 72 72 72
42 44 49 47 37 32 26 27 26 25 25 27 27 21 23 30 28 19 16 20 30 41 47 58 63 67 59 45 43 49 56 63 67 66 69 71 80 85 98 92 79 64 56 56
56 58 58 52 49 51 52 51 55 53 56 52 36 30 23 26 37 47 62 42 52 56 51 48 44 42 44 46 48 56 62 61 65 72 94 100 100 95 80 66 57 56 55 60
51 48 47 45 46 54 62 68 66 60 57 54 71 46 53 36 38 43 41 43 42 45 40 38 43 46 43 44 52 65 74 72 92 98 96 88 76 72 64 52 51 58 64 63
53 49 44 40 38 38 38 38 38 39 50 62 62 64 53 51 50 43 42 43 48 46 46 42 48 52 56 59 63 61 66 90 100 92 76 64 54 55 53 55 55 52 50 34
59 53 45 40 42 44 49 56 48 44 38 37 33 38 46 52 51 51 48 44 44 47 46 47 54 60 62 57 56 82 97 79 68 75 78 61 58 64 59 53 45 33 23 18
62 57 50 45 44 48 51 54 45 44 47 43 33 34 41 46 45 43 39 37 42 41 43 48 47 44 46 56 86 94 78 86 80 68 68 69 69 64 49 32 24 18 15 14
58 55 51 54 57 57 55 56 54 52 44 46 44 42 43 46 46 41 40 37 40 40 36 40 48 64 83 90 97 100 84 70 67 70 72 57 47 36 30 21 16 14 12 11
64 66 66 62 61 64 67 63 68 65 52 39 42 41 42 47 44 38 42 45 42 39 49 68 80 82 85 88 86 77 69 74 74 74 66 46 29 17 15 13 12 12 9 6
64 61 61 61 59 58 60 66 69 64 53 47 44 47 45 41 42 39 50 45 47 69 73 76 80 91 93 79 73 81 88 82 75 62 41 26 17 13 10 9 7 5 5 4
66 69 72 71 71 68 60 65 64 59 58 57 49 52 49 47 51 50 48 54 60 67 78 88 94 90 82 89 90 94 77 75 62 37 24 13 10 10 9 6 5 4 4 3
67 66 64 69 73 75 68 78 72 61 66 61 54 50 50 48 51 52 62 67 72 81 89 95 93 94 100 96 70 59 69 57 38 29 13 10 9 7 5 5 4 4 4 4
73 69 69 66 65 64 63 62 64 54 63 63 63 62 59 59 63 74 81 86 95 98 100 90 80 81 66 62 69 70 53 44 20 12 9 9 7 5 5 5 4 4 4 4
53 42 46 61 66 66 64 69 59 50 58 51 54 55 54 53 59 73 84 84 83 90 80 69 65 72 81 81 73 55 39 26 10 9 8 6 5 5 4 4 4 4 5 5
50 52 56 51 53 56 60 57 54 56 49 51 52 54 50 59 73 79 73 72 92 84 71 78 85 86 88 82 59 40 22 11 9 8 7 6 5 4 4 4 4 5 5 5
63 72 60 56 58 53 49 45 46 45 51 48 52 56 62 75 71 74 85 98 82 77 86 88 90 97 87 60 36 20 10 9 8 7 6 5 4 4 4 5 5 6 6 6
73 72 66 55 68 64 70 57 57 54 54 55 61 79 88 77 85 92 89 86 88 93 81 92 96 90 66 34 18 11 9 8 6 6 5 5 4 4 5 6 6 6 6 6
99 79 81 70 68 83 60 66 58 63 68 75 73 70 76 78 76 68 79 81 84 89 98 88 84 66 37 16 12 10 9 7 6 5 5 4 4 5 5 6 6 6 6 6
100 89 82 68 70 83 71 65 65 80 85 85 82 78 69 68 64 67 81 88 93 97 82 84 68 41 19 14 11 10 8 6 6 5 4 4 5 5 6 6 6 6 6 6

GFSCGP_250_rhum_003.txt.gz
RH
35 40 41 41 40 48 54 52 59 55 64 69 60 57 48 48 45 37 31 23 17 17 23 19 16 16 16 17 17 19 21 20 20 24 26 20 20 28 37 40 40 38 39 36
58 65 77 79 80 83 89 87 74 67 50 53 41 38 38 37 26 24 21 20 19 16 17 17 15 16 17 18 18 18 19 21 22 24 20 21 30 40 42 45 42 42 40 33
56 66 65 67 63 55 42 37 29 22 21 20 20 15 22 19 15 24 26 26 16 18 18 18 18 16 16 18 19 19 21 22 21 22 31 44 46 45 43 42 41 42 40 39
16 15 15 14 14 15 13 14 14 15 14 15 16 14 17 18 18 13 21 18 24 23 21 20 17 16 17 17 18 19 19 20 24 45 49 43 37 35 36 37 40 41 39 39
21 19 19 18 18 18 17 17 17 16 15 16 18 16 16 18 18 28 33 15 17 16 18 21 22 23 21 21 21 19 20 24 51 52 48 39 40 41 44 45 47 53 56 60
29 26 26 26 25 23 22 22 21 20 20 20 20 21 19 18 17 19 26 26 23 20 17 16 16 16 18 18 20 28 44 58 62 60 50 45 49 56 65 69 66 60 62 72
31 28 26 25 25 26 25 24 31 34 35 34 34 26 25 26 23 18 17 16 17 18 16 15 16 23 39 47 56 56 54 48 42 42 41 41 42 46 54 52 47 44 60 86
18 20 22 23 24 22 20 22 25 26 26 26 24 25 26 27 22 20 17 16 15 19 22 27 30 37 44 46 39 38 38 37 39 42 47 51 62 67 72 84 94 99 98 81
45 60 65 66 65 63 61 60 58 65 65 59 42 46 50 55 49 43 41 33 34 31 38 36 44 42 41 40 39 41 43 50 61 61 61 58 54 59 70 91 94 76 62 55
62 62 58 52 51 53 59 59 59 62 60 58 48 49 50 48 55 53 54 58 54 47 47 50 49 43 37 38 39 41 44 43 48 54 59 72 81 83 83 78 70 64 61 59
57 55 52 48 45 45 44 48 47 47 44 43 44 34 34 34 32 35 37 45 51 48 45 40 36 34 41 45 44 42 44 49 54 64 76 85 82 74 78 81 69 68 59 56
56 55 55 48 42 45 49 42 40 40 46 50 51 43 36 39 37 31 32 36 44 50 47 42 40 46 42 42 44 48 55 72 84 89 96 100 100 87 75 70 55 58 50 31
64 65 61 57 44 33 37 54 63 64 55 48 62 55 48 53 54 50 48 51 53 52 49 43 42 42 46 51 66 72 84 92 99 100 100 92 75 64 53 50 44 35 22 16
65 61 57 58 62 64 59 64 61 67 70 71 58 63 57 51 44 42 45 42 41 41 42 41 42 49 52 59 76 95 100 100 99 88 71 62 58 52 53 44 25 17 11 9
58 54 57 61 59 60 58 56 54 50 48 51 57 59 62 57 46 46 51 53 47 41 43 48 50 56 72 84 90 91 99 95 80 66 61 60 54 55 42 19 11 10 9 8
64 63 64 65 65 65 60 56 52 50 54 56 54 60 57 58 46 47 51 49 47 44 44 51 63 72 76 73 87 85 79 78 71 67 70 55 55 50 20 12 9 8 7 5
62 63 69 70 70 67 62 64 57 54 51 64 60 62 65 54 47 49 53 53 51 49 50 65 82 73 67 75 77 76 74 70 71 76 73 65 52 19 12 10 9 6 5 4
58 61 69 78 81 71 54 51 52 60 59 70 62 62 63 53 46 47 48 52 57 57 71 75 69 68 67 57 65 73 86 80 76 67 64 51 19 12 10 9 6 5 4 4
70 90 100 86 69 56 44 57 64 62 62 58 56 51 49 44 42 48 50 58 60 67 65 65 59 57 58 70 84 85 76 82 69 60 51 28 11 9 8 6 5 4 4 4
100 90 67 55 51 49 47 62 68 72 73 63 60 56 50 55 60 63 68 71 74 66 66 66 70 71 72 76 75 81 82 74 57 50 36 11 9 8 6 5 4 4 4 4
64 54 53 52 58 61 61 73 74 68 60 65 57 54 65 66 69 66 66 66 61 56 65 75 72 76 76 76 82 74 68 58 48 41 11 9 8 6 4 4 4 4 4 4
59 61 64 58 52 60 61 72 84 66 63 66 67 66 69 64 61 66 71 65 58 64 80 76 74 78 83 78 69 64 55 48 30 12 10 8 6 5 4 4 4 4 5 5
61 66 58 68 69 63 45 64 67 66 68 60 68 73 67 65 67 73 71 62 76 85 76 77 73 84 81 70 67 53 45 34 11 10 8 7 5 4 4 4 4 4 5 6
100 82 74 58 74 67 64 63 54 66 62 66 67 68 68 64 69 72 69 81 86 81 79 69 74 76 71 67 56 41 36 16 10 8 7 6 5 4 4 5 5 5 6 6
100 85 74 66 58 55 66 45 56 52 50 57 67 75 71 78 75 71 79 83 83 90 74 84 81 72 66 61 44 34 20 11 9 8 6 5 4 5 5 5 6 6 6 6
100 100 92 75 75 89 75 75 75 63 58 60 71 77 87 91 89 87 92 84 83 72 78 83 82 74 60 51 37 21 12 10 9 6 6 5 5 5 5 6 6 6 6 6

GFSCGP_250_rhum_006.txt.gz
RH
12 14 12 12 12 9 9 8 10 14 24 29 36 40 41 46 48 54 55 51 45 40 38 34 34 36 34 30 24 32 17 14 15 17 18 19 20 22 21 20 38 48 41 37
20 18 19 21 27 39 44 42 42 48 65 64 66 70 70 64 55 49 38 32 33 30 30 33 31 28 24 19 16 15 16 16 16 17 19 22 21 20 22 39 49 48 41 37
55 57 58 70 79 80 79 84 84 76 64 67 57 34 30 36 34 35 38 35 28 26 26 25 24 20 17 15 15 16 16 17 18 19 19 20 21 30 46 56 55 45 42 41
55 45 53 57 54 57 48 41 37 35 28 23 19 17 19 19 21 22 26 26 25 20 18 16 15 16 17 16 16 16 16 16 16 18 22 35 44 48 44 42 40 40 36 36
18 19 18 23 23 18 20 19 17 18 18 18 16 15 16 19 21 21 21 22 23 25 28 19 18 16 16 16 16 16 16 20 31 40 45 42 37 42 39 37 40 45 48 51
22 21 20 20 21 20 20 19 20 21 21 20 18 19 20 21 23 30 37 35 30 29 22 22 23 21 22 20 24 32 41 42 46 44 42 46 44 43 44 45 48 53 57 60
33 33 32 33 33 34 31 27 25 27 27 21 24 26 26 26 25 27 28 29 29 29 25 24 20 29 42 47 47 48 48 49 52 58 51 41 39 41 50 62 70 80 90 99
31 28 27 27 26 28 28 29 30 39 44 54 57 55 52 40 39 38 44 49 56 50 49 38 41 42 42 43 45 42 40 39 35 37 44 51 64 70 64 82 90 78 67 58
62 65 69 74 76 72 66 64 60 58 54 51 49 49 47 49 44 38 37 38 37 32 30 28 28 25 29 38 41 44 42 45 54 59 53 50 48 49 53 51 47 50 59 64
74 63 57 54 54 52 50 51 56 57 55 47 43 40 40 37 33 30 31 33 30 28 30 31 34 38 41 42 44 45 50 52 50 48 48 46 42 43 48 54 71 80 62 56
60 59 56 52 47 46 47 47 49 50 52 42 35 34 32 30 36 42 42 43 44 41 36 39 44 46 45 44 49 49 48 47 44 40 46 62 70 67 70 74 68 56 54 48
65 63 58 54 54 52 58 59 51 44 45 45 46 49 53 52 49 48 47 44 42 42 42 42 48 49 50 53 52 48 45 44 52 70 72 63 64 67 67 61 60 55 41 35
66 65 62 61 58 62 60 53 47 50 52 59 58 51 55 51 51 59 54 46 44 42 42 43 44 46 48 48 48 51 56 67 72 64 68 71 66 67 66 60 50 42 37 31
70 67 60 53 51 54 60 68 72 69 63 60 53 57 49 49 54 60 66 65 59 53 53 53 54 55 53 49 53 56 64 69 68 71 74 71 73 68 58 47 36 32 25 13
67 64 59 62 65 70 71 62 51 49 47 44 47 55 62 67 68 65 61 56 55 47 42 43 46 47 51 60 65 66 65 70 70 73 71 72 65 55 43 33 29 26 13 9
54 58 54 53 63 64 61 53 52 49 43 40 45 56 57 58 54 50 49 44 42 39 47 54 62 62 64 66 61 60 69 73 76 70 64 60 58 46 37 29 26 13 8 7
62 61 58 57 61 70 72 68 54 48 56 62 70 59 49 54 57 56 52 56 54 64 65 64 61 61 63 64 63 74 80 76 69 69 70 70 54 36 27 20 11 7 7 5
62 64 60 68 67 70 74 58 50 55 62 64 66 68 71 74 69 62 70 72 74 72 67 64 59 64 67 68 76 80 76 79 75 77 75 62 37 28 20 11 8 7 5 5
63 62 80 98 87 80 57 58 55 55 65 65 70 65 63 59 57 64 75 86 81 72 72 66 66 66 70 78 82 81 87 94 78 70 62 44 27 22 12 8 7 5 4 4
81 99 100 99 66 64 70 66 66 72 74 76 86 79 71 74 67 76 80 79 70 65 70 69 64 80 95 92 86 96 95 80 70 58 42 28 22 12 8 7 5 4 4 4
80 75 68 68 78 80 53 59 67 73 73 70 95 84 82 76 78 71 69 68 67 78 77 71 80 88 94 98 92 82 73 71 63 36 29 22 13 8 7 6 5 5 5 4
74 92 92 85 90 74 62 61 75 75 65 67 86 75 85 76 71 70 67 62 71 70 67 80 96 100 97 98 80 74 79 63 41 29 22 16 8 8 6 5 5 5 5 5
100 100 100 100 99 88 86 84 82 70 69 95 94 91 85 84 67 67 63 66 66 74 85 100 97 97 95 88 73 76 64 45 30 23 17 9 8 7 6 5 5 5 5 5
100 100 100 100 99 95 79 94 79 68 77 92 85 84 70 58 60 64 67 71 76 88 99 100 97 98 94 81 82 62 49 31 26 15 9 9 8 6 5 5 5 5 6 6
100 83 83 86 84 76 91 84 68 64 75 64 60 61 58 66 69 64 72 84 87 92 100 93 96 93 82 77 62 48 35 25 15 10 8 8 6 6 5 5 5 6 6 6
100 100 86 79 78 77 82 72 65 72 74 70 75 76 72 67 61 78 90 88 89 94 96 96 90 74 72 64 49 32 22 14 10 9 8 7 6 6 5 5 6 7 6 6

GFSCGP_250_rhum_009.txt.gz
RH
6 6 6 11 14 14 24 29 33 36 31 19 8 11 22 18 20 31 42 49 56 54 56 52 49 72 69 75 64 73 83 93 95 65 38 26 17 17 16 16 16 18 20 25
13 14 17 17 16 15 14 11 10 8 9 18 25 18 40 53 62 68 72 66 61 53 43 40 42 41 41 45 62 59 39 32 27 21 19 17 16 15 16 17 19 29 42 41
12 14 13 14 17 13 22 25 31 48 58 73 81 84 77 66 56 47 43 38 37 36 35 37 38 34 32 31 29 28 26 20 18 17 16 16 16 17 22 36 39 37 35 33
37 44 54 52 62 74 77 80 82 84 80 72 66 48 35 35 33 28 26 24 20 20 22 23 19 19 18 19 18 18 17 16 16 15 16 18 21 29 34 32 33 37 41 43
61 58 51 58 65 68 67 64 50 32 24 18 16 16 17 18 18 19 19 18 19 20 21 22 22 19 17 16 18 16 15 15 16 18 23 31 35 36 40 43 44 49 48 40
29 30 33 28 28 26 24 21 19 18 17 17 20 21 28 28 31 33 36 37 36 34 33 36 32 27 32 43 26 25 31 34 36 38 42 45 46 47 53 56 47 42 48 58
19 21 22 22 22 21 20 20 21 21 23 23 22 24 34 47 52 59 64 61 56 52 50 48 45 41 39 37 41 45 39 39 48 52 49 48 47 44 45 46 55 70 72 65
25 29 30 27 23 21 21 27 32 47 53 51 47 48 47 45 45 45 46 45 49 47 42 48 46 43 45 48 53 55 54 53 54 51 49 55 59 60 64 66 68 71 73 65
26 26 28 45 61 69 63 55 49 48 47 49 48 42 35 35 38 39 38 43 49 50 48 47 45 45 48 52 54 54 56 54 52 51 56 66 67 60 58 54 58 57 51 46
68 75 70 57 49 48 46 46 48 49 56 56 55 52 48 43 42 41 43 43 43 40 41 41 42 41 43 45 46 49 48 48 49 47 48 49 50 52 57 60 56 50 44 48
60 54 50 49 48 48 52 60 61 56 53 50 47 43 43 46 46 46 43 40 38 35 36 39 42 46 44 41 42 41 40 42 47 56 56 54 62 59 50 47 48 56 52 45
55 57 60 59 62 60 62 64 62 58 54 53 49 45 44 41 40 40 39 36 34 35 36 41 41 44 41 37 35 39 43 52 53 54 60 60 52 47 55 57 57 56 53 41
59 68 69 68 64 60 63 64 65 62 55 42 43 46 44 42 39 40 39 38 39 38 34 32 34 37 38 41 51 58 63 63 61 60 61 57 57 64 63 66 64 51 36 28
71 73 73 67 62 64 69 70 61 52 48 52 50 48 43 41 44 45 46 48 48 47 48 49 45 54 75 77 70 65 67 65 66 66 62 60 64 67 69 68 49 36 30 21
79 76 68 59 58 58 60 60 54 57 67 58 51 50 52 58 59 51 49 53 57 60 65 72 78 81 82 76 67 67 67 69 67 65 60 65 75 81 76 54 44 34 20 14
72 59 58 60 55 52 56 56 53 69 63 52 56 58 65 66 69 65 61 61 63 66 77 84 83 76 71 66 64 65 69 70 66 62 75 83 83 85 62 54 36 21 14 9
59 65 66 65 58 58 65 66 55 70 60 53 53 58 65 73 77 80 74 79 79 80 79 70 66 61 61 61 62 66 71 68 74 76 84 90 88 72 51 40 23 14 9 8
64 67 63 57 55 62 87 93 75 68 75 58 54 58 66 70 71 95 93 98 85 76 64 57 55 61 62 63 69 73 75 78 83 93 100 91 70 55 42 22 14 9 8 7
76 70 68 68 76 87 100 94 74 66 72 47 56 65 90 98 75 75 71 66 64 84 78 66 67 68 65 73 80 75 77 91 97 100 89 68 57 40 25 16 9 8 7 6
86 85 80 87 89 66 91 82 74 57 61 67 68 82 100 99 77 75 68 60 80 77 70 72 70 64 74 83 75 81 94 100 100 92 64 55 45 29 17 10 8 8 6 5
74 81 86 75 66 94 100 100 99 80 70 98 95 100 100 100 88 80 68 66 65 68 71 76 76 78 90 81 87 96 100 100 88 75 60 45 30 19 11 8 8 7 6 5
98 89 83 89 100 100 100 93 93 97 100 96 95 100 100 92 80 70 77 82 83 79 82 85 87 93 81 83 93 100 95 85 74 64 47 31 21 13 9 8 7 6 5 5
83 89 100 100 100 100 100 92 93 96 91 95 94 100 95 89 86 95 95 90 84 84 85 85 90 85 80 86 96 81 78 75 74 61 34 21 14 10 8 7 6 6 5 4
100 100 100 100 100 100 83 94 96 85 94 89 100 100 95 97 91 82 73 76 75 84 87 91 83 80 86 97 86 74 77 75 60 40 22 14 11 9 7 6 6 5 4 5
99 97 94 89 98 86 95 90 88 100 93 92 93 84 80 75 65 68 73 78 86 85 83 80 83 84 93 89 79 74 72 52 36 22 15 12 10 8 6 6 5 5 4 5
99 82 73 76 82 83 92 95 97 94 87 79 67 63 65 73 72 74 79 83 79 77 82 84 85 90 93 82 72 68 44 33 21 16 13 10 8 6 5 5 4 4 5 6

GFSCGP_250_rhum_012.txt.gz
RH
39 48 61 59 62 42 41 45 49 54 39 44 63 66 54 45 25 17 8 11 19 18 33 46 55 60 65 66 66 75 100 100 100 100 100 100 100 82 62 41 20 18 18 17
30 31 28 23 16 12 7 7 9 15 23 26 29 28 17 10 14 30 41 49 63 70 75 67 56 48 43 44 50 65 62 56 52 46 34 28 26 24 20 20 20 20 27 37
7 8 9 10 11 16 19 19 20 18 12 12 17 25 53 64 72 78 78 68 56 41 34 31 32 30 29 29 35 34 27 25 26 24 22 21 21 22 22 26 36 44 48 48
10 12 13 14 15 14 17 24 28 24 35 67 87 80 70 59 50 43 32 22 20 19 18 18 18 20 22 23 27 30 32 26 22 20 20 22 25 31 41 47 47 44 44 42
23 27 36 44 41 50 44 51 71 70 58 40 33 30 24 23 21 20 19 18 19 22 25 30 34 30 33 37 41 36 30 37 42 40 38 37 36 33 32 34 36 36 38 44
64 57 56 60 60 67 60 40 27 22 20 24 25 24 24 23 24 26 26 28 45 50 49 45 39 36 36 39 39 35 31 31 30 29 32 37 40 41 41 44 50 50 47 45
54 52 51 48 31 27 26 22 22 25 24 25 25 27 30 31 43 53 53 48 44 43 46 50 53 52 44 39 37 37 38 38 37 37 38 39 38 41 46 48 48 50 59 73
20 19 18 18 19 22 24 22 23 28 35 41 47 52 49 47 44 42 45 50 56 58 55 47 42 41 42 40 40 42 44 43 42 41 40 41 42 47 54 64 74 79 75 66
24 23 25 25 23 26 41 54 50 47 39 35 34 38 42 50 52 56 56 52 47 45 45 42 41 40 36 35 36 38 42 44 44 42 44 54 68 84 86 76 69 58 52 48
22 22 29 48 54 49 46 42 43 45 48 47 50 50 51 51 47 44 42 40 38 35 35 34 34 33 40 51 49 45 49 53 58 67 73 72 70 69 67 60 47 43 53 54
36 54 56 50 45 43 41 44 54 56 57 53 57 54 50 44 40 37 35 34 33 34 35 39 50 58 60 60 54 48 48 51 55 60 57 57 61 60 52 46 50 62 60 57
58 51 47 50 53 56 55 56 58 59 59 59 53 49 45 43 42 41 44 46 45 43 40 42 51 54 57 49 45 49 56 58 54 54 57 60 59 54 49 53 62 66 70 64
50 55 62 63 64 64 60 59 63 65 62 53 54 53 48 45 45 47 53 55 52 47 45 45 58 64 61 55 54 57 54 55 58 58 58 56 52 51 60 66 72 77 72 68
55 58 64 70 72 68 62 62 62 63 56 56 55 56 52 51 49 51 53 59 68 68 67 72 73 70 65 62 66 65 56 54 55 56 51 50 55 62 67 73 80 78 75 52
63 71 76 77 75 68 66 65 62 59 56 56 50 57 54 58 54 55 59 50 54 66 66 69 76 80 72 67 62 55 58 56 56 53 57 63 65 70 79 89 86 76 61 41
86 84 78 67 66 70 77 76 68 62 62 64 70 72 73 65 49 58 82 71 57 61 68 71 68 66 51 50 55 57 57 62 69 69 77 68 78 87 97 96 86 57 38 20
82 71 65 73 70 71 82 62 67 65 74 73 84 70 76 53 51 84 90 85 74 75 77 81 78 69 51 46 49 55 69 76 79 78 76 79 91 99 99 89 67 31 19 13
90 87 71 76 65 64 83 83 77 67 71 81 78 71 63 58 79 100 86 83 82 95 93 87 81 66 52 52 60 74 76 80 74 81 80 92 98 100 92 70 29 18 14 11
82 77 70 68 77 74 92 100 86 63 76 95 67 86 52 69 96 100 89 91 98 97 97 84 74 64 63 67 73 74 79 81 81 84 98 92 100 98 76 32 18 15 11 10
74 74 76 73 66 76 100 100 96 77 90 90 100 77 79 94 100 100 93 94 91 93 83 73 73 75 72 72 70 74 82 79 91 98 95 100 93 73 40 20 16 12 11 9
94 88 80 70 61 84 100 92 90 99 100 99 93 88 97 100 99 95 91 98 98 82 72 77 83 74 71 68 73 81 80 89 99 99 98 85 71 44 23 16 13 11 10 8
83 76 77 75 80 80 82 98 100 100 96 84 86 92 91 98 92 88 100 94 80 74 84 91 75 66 69 72 82 79 85 98 100 97 83 64 45 26 17 14 12 10 8 6
90 86 78 95 100 97 98 100 88 88 77 88 94 99 100 96 87 92 85 82 77 86 85 63 64 73 74 80 78 82 100 100 97 78 58 41 27 18 14 12 10 9 7 6
83 96 100 100 100 100 85 91 92 83 90 92 90 95 92 96 97 87 86 84 68 66 72 70 77 83 84 79 86 100 100 92 77 48 28 24 17 14 13 10 9 7 6 5
100 100 100 78 83 72 80 81 74 83 96 96 88 94 98 96 89 88 81 63 63 80 79 85 90 84 85 92 98 93 88 80 53 30 20 16 14 13 11 9 7 6 5 5
100 68 64 62 65 63 80 85 89 100 99 85 84 93 94 81 70 69 72 72 88 81 90 93 80 85 93 93 84 71 57 45 27 21 19 14 13 12 10 8 6 6 5 6

GFSCGP_250_rhum_015.txt.gz
RH
86 94 89 90 97 99 100 100 99 98 95 95 93 91 88 85 78 70 59 42 33 14 12 19 32 48 56 64 69 68 71 81 73 74 94 100 100 100 100 91 56 26 23 21
78 84 93 95 92 94 90 70 50 50 50 41 35 30 30 34 38 46 44 34 17 12 26 44 67 65 51 43 37 34 37 40 29 26 28 30 29 30 30 27 27 28 33 45
36 35 41 47 49 44 30 17 11 9 12 17 18 17 23 29 24 19 34 50 64 70 68 52 32 22 18 20 21 21 23 28 31 30 32 35 38 38 37 44 52 54 51 48
26 24 22 17 12 11 10 15 18 18 17 27 53 77 88 82 70 68 57 36 21 18 20 23 23 28 32 34 38 44 49 46 45 48 51 49 45 45 44 43 42 42 44 42
7 7 8 10 13 16 18 20 34 54 85 86 78 65 60 51 40 22 16 19 24 31 36 37 48 46 44 42 42 39 40 39 39 40 42 44 45 42 41 42 40 38 39 41
12 15 15 15 19 33 39 60 73 55 35 42 36 23 19 17 20 23 31 48 55 59 52 47 45 46 46 43 41 40 40 40 37 36 35 35 37 39 39 38 35 33 35 43
52 53 57 50 54 55 55 44 31 20 18 20 23 24 25 29 37 55 61 54 57 56 57 56 55 50 45 40 36 33 31 30 30 32 32 31 32 34 34 34 38 49 50 53
57 55 44 47 45 30 19 19 22 22 27 35 56 60 59 55 53 56 62 60 59 59 52 43 36 32 30 30 32 38 41 38 38 38 38 38 40 41 47 52 56 62 66 65
30 22 21 23 23 23 24 28 44 57 65 60 60 58 59 58 58 57 57 52 41 35 33 32 35 36 36 35 35 36 40 44 50 58 70 86 92 88 85 77 67 63 58 52
22 22 28 27 25 36 55 52 48 48 48 49 50 52 55 56 53 47 42 38 36 38 39 41 44 47 52 50 51 54 62 74 80 78 75 76 73 63 56 54 56 54 56 57
29 30 30 41 53 48 45 44 43 44 46 50 56 57 52 47 44 41 42 42 45 48 44 49 62 75 77 80 86 81 76 70 63 53 55 55 47 48 54 58 58 59 56 66
29 44 49 47 45 49 52 54 55 55 57 62 61 56 50 46 48 50 49 49 49 52 58 61 63 67 78 80 76 73 74 64 54 50 47 48 50 54 53 55 56 64 77 76
58 52 48 50 56 61 64 61 59 62 61 64 66 59 60 60 59 55 56 55 46 46 57 57 62 62 63 61 68 69 67 63 54 47 45 46 46 48 60 59 77 77 70 70
55 54 59 64 70 73 71 65 61 61 60 60 59 65 66 73 72 62 62 60 50 52 64 72 75 76 78 70 69 67 68 58 48 46 44 44 50 62 69 79 79 73 82 82
60 59 66 74 78 78 77 75 71 74 74 73 62 66 62 83 82 72 63 56 46 69 72 79 99 94 83 80 72 70 70 60 56 49 48 52 64 73 77 85 90 89 86 71
69 74 79 83 85 86 94 91 79 80 73 68 70 79 60 67 83 67 71 56 59 76 74 96 100 95 85 86 74 79 67 65 58 49 52 62 73 84 94 96 95 91 86 57
80 89 92 96 93 90 100 74 81 74 73 70 78 76 67 82 86 85 73 58 86 74 86 100 97 85 85 87 85 72 68 58 52 56 64 82 98 98 97 97 94 72 58 27
95 89 82 94 74 78 96 97 80 74 71 71 78 68 81 94 94 92 68 82 88 89 91 94 88 86 91 87 80 66 61 59 67 77 93 100 98 100 99 78 60 43 24 15
94 80 72 74 75 69 93 99 97 73 71 75 66 85 99 95 77 75 80 91 89 89 96 95 89 85 90 91 70 65 68 81 87 97 100 100 100 95 89 46 31 23 16 13
81 83 78 77 65 74 100 99 90 81 91 91 99 100 100 76 73 82 86 92 91 94 96 87 91 93 98 78 69 80 91 89 98 99 100 100 90 85 54 26 21 17 15 13
72 71 71 70 74 86 91 82 78 85 95 100 100 100 95 78 75 83 87 99 93 87 89 96 86 86 87 73 84 96 94 92 99 100 100 89 87 46 23 19 16 15 13 11
73 79 87 97 100 91 84 76 81 98 100 96 88 80 69 68 69 77 96 94 88 91 92 89 82 94 77 86 95 92 94 99 100 98 86 87 41 21 18 18 16 14 12 10
94 87 86 91 82 66 66 93 100 92 74 71 78 77 70 66 71 84 90 97 91 84 82 83 94 78 85 87 92 99 94 98 100 86 75 49 23 20 19 17 14 12 11 10
100 97 94 84 100 100 100 100 88 79 82 83 74 68 68 78 89 98 100 99 92 79 83 90 74 82 90 99 99 97 92 95 80 59 42 28 22 20 17 15 13 11 10 10
100 100 100 100 100 100 94 83 79 80 79 70 72 82 88 86 86 90 96 90 80 74 79 74 81 96 99 98 92 82 84 67 44 37 32 24 21 20 17 13 11 9 10 8
100 92 81 87 82 70 81 88 90 85 76 75 75 78 80 85 89 91 81 77 72 77 87 96 100 100 96 85 77 67 43 36 41 28 21 21 19 17 14 11 10 8 9 6

GFSCGP_250_rhum_018.txt.gz
RH
100 100 100 100 100 100 100 100 100 99 99 97 100 100 100 97 95 94 92 87 82 77 68 50 36 30 22 23 24 40 52 61 65 56 74 88 81 74 66 38 29 26 27 28
100 100 100 96 100 100 100 100 100 100 100 99 99 99 96 92 89 80 65 61 59 56 46 33 36 48 59 62 53 39 32 30 24 22 21 20 23 26 30 36 39 41 45 49
100 100 100 100 100 100 100 99 100 98 67 54 49 45 31 22 20 24 22 20 28 43 58 67 63 43 32 23 19 20 22 28 35 39 40 40 42 47 51 52 52 50 49 50
81 91 89 90 100 96 93 82 58 26 13 16 21 20 19 23 22 36 49 60 55 37 31 26 20 22 28 36 40 42 43 47 50 53 53 51 50 52 58 60 58 56 54 50
68 38 28 30 37 40 33 20 14 18 22 24 23 35 39 64 72 47 28 22 20 19 25 39 43 43 45 48 52 52 49 44 42 40 40 40 42 42 41 42 40 37 36 36
22 20 19 16 12 12 15 18 26 33 38 46 48 54 54 33 20 20 22 27 41 40 40 46 52 53 48 42 40 40 39 35 34 33 33 35 38 40 41 37 34 34 34 36
10 11 10 12 16 19 37 72 81 73 63 54 29 21 19 20 26 41 46 48 52 57 61 55 44 41 41 41 37 34 32 33 36 40 45 47 46 45 43 40 40 40 38 39
21 27 32 40 53 68 76 68 50 33 26 22 23 36 46 48 49 54 58 64 66 60 48 46 40 36 33 31 31 33 38 43 47 53 68 72 67 63 53 44 42 41 44 51
50 53 59 66 63 53 34 23 23 22 26 44 47 45 47 51 59 69 71 65 50 45 41 38 34 34 34 43 51 57 63 69 68 76 92 91 87 76 64 54 46 49 54 56
44 45 33 29 23 20 22 25 36 47 50 44 50 59 62 66 68 66 55 52 49 47 42 41 37 39 45 57 60 66 70 70 72 76 78 71 70 62 50 50 52 48 50 55
22 22 23 23 23 25 49 57 50 50 54 61 67 71 69 62 58 56 54 51 49 47 50 44 42 48 55 61 64 74 80 82 79 79 75 72 61 53 54 46 45 50 55 62
34 33 27 33 56 60 51 46 54 64 68 68 69 71 68 64 64 59 56 56 52 49 52 52 46 47 54 67 87 99 94 85 80 83 75 62 55 54 49 50 56 57 64 74
28 34 54 60 50 46 50 62 66 68 71 74 72 70 63 62 63 64 66 63 60 64 59 52 42 51 69 86 96 100 97 93 83 79 68 54 56 55 60 64 65 71 78 76
53 67 57 53 63 67 71 72 74 73 71 70 64 67 53 65 64 66 77 82 83 71 56 44 46 64 77 83 92 93 88 91 81 75 59 64 64 70 73 71 77 87 81 81
67 57 60 71 76 80 83 84 81 76 72 74 67 77 48 69 69 77 85 72 70 77 65 53 64 74 75 84 86 79 91 89 85 77 77 77 76 78 74 78 91 84 91 87
64 71 80 84 82 84 94 97 79 80 73 75 68 86 63 66 74 83 78 69 92 76 55 64 71 75 85 92 93 92 91 85 89 81 85 78 70 74 78 87 90 94 94 64
78 74 78 82 82 95 100 75 81 72 64 65 70 74 74 83 84 78 76 100 100 67 63 69 68 76 84 93 100 93 89 99 84 82 79 68 74 82 92 96 94 91 64 52
72 71 76 80 89 100 100 85 66 65 72 72 70 72 81 76 74 80 93 100 86 62 63 71 71 77 83 96 100 96 100 84 81 76 68 77 88 97 97 97 84 52 48 32
82 82 91 99 85 95 99 99 92 74 73 69 73 74 73 76 76 77 90 73 70 79 74 71 70 79 96 100 100 100 82 78 74 77 83 88 98 100 98 63 41 34 22 18
82 78 79 85 76 90 93 84 74 76 84 100 97 90 85 87 99 92 84 76 76 75 70 68 79 97 100 99 100 89 83 82 87 90 86 100 100 93 69 41 24 20 18 16
89 83 82 70 72 75 67 68 73 86 91 99 100 100 100 100 89 70 83 78 63 62 70 88 95 99 96 94 90 95 88 91 86 95 100 100 98 70 49 34 30 19 16 14
70 70 66 64 63 57 65 78 96 100 98 92 96 100 93 74 69 78 68 58 63 77 84 81 79 78 89 88 86 86 87 95 100 100 98 82 62 54 32 22 15 14 14 12
71 62 60 65 78 71 70 73 83 96 100 100 96 69 64 67 63 54 60 71 74 69 71 77 81 83 82 92 84 95 99 100 96 73 65 54 41 26 18 15 16 16 13 11
68 64 74 80 85 77 90 100 98 93 88 76 67 65 52 52 62 71 69 72 73 75 78 74 79 88 86 87 97 100 95 79 68 62 46 24 14 14 14 16 15 14 12 10
97 76 70 87 100 100 100 79 72 80 67 60 51 53 63 73 72 67 72 80 82 76 75 80 78 82 96 90 94 81 58 41 38 30 22 19 18 17 16 14 15 14 11 9
100 100 98 98 93 84 96 100 99 89 63 53 65 77 80 66 63 75 84 80 72 77 77 75 85 99 93 95 84 52 42 27 31 32 28 25 17 15 14 14 13 11 9 9

GFSCGP_250_rhum_021.txt.gz
RH
76 100 100 100 100 100 100 96 99 100 100 100 100 100 95 96 94 90 91 100 100 100 100 100 100 83 76 69 54 45 53 45 36 27 32 50 58 58 42 27 27 31 34 38
100 100 100 100 100 100 97 100 100 100 100 100 97 85 84 95 100 100 100 100 98 99 95 88 84 78 70 52 39 35 41 54 54 40 27 26 31 36 37 33 32 37 40 43
100 100 100 100 100 99 100 100 100 100 100 100 98 97 98 94 88 83 82 75 50 35 29 27 31 32 40 55 57 41 28 29 31 32 32 32 32 34 38 41 42 45 47 47
97 100 100 100 100 100 100 100 100 100 94 94 81 66 61 50 40 25 20 24 28 31 54 73 71 54 27 30 34 37 38 36 35 34 33 33 34 36 38 38 41 41 44 45
100 100 100 100 97 99 100 96 98 89 82 88 26 14 20 20 27 60 54 71 75 64 39 24 30 40 42 42 38 35 34 34 33 34 38 43 46 48 52 56 59 59 63 55
98 99 96 95 89 88 90 81 70 52 26 14 16 24 32 45 74 55 45 31 23 30 45 40 43 40 37 36 36 36 38 40 39 39 42 48 55 67 75 87 81 86 78 70
77 81 55 35 26 30 35 36 25 18 17 24 54 69 57 32 28 25 22 30 42 40 44 42 40 40 39 41 41 41 44 48 51 58 65 70 74 76 72 72 72 70 61 58
25 24 22 22 21 20 23 25 29 46 63 66 50 37 24 28 36 44 41 36 39 45 42 40 44 46 42 37 41 41 45 47 52 67 66 68 76 81 72 65 66 60 60 59
11 13 14 22 28 45 54 69 70 68 49 29 28 47 51 46 42 41 45 48 50 47 46 53 51 49 46 38 38 44 54 47 48 58 60 70 91 89 86 84 77 74 65 57
20 26 45 72 88 83 69 59 46 30 28 44 61 53 46 46 49 55 55 58 54 53 53 53 52 51 51 44 39 40 42 45 57 67 76 78 92 98 96 84 84 80 66 65
63 66 61 57 60 57 40 31 31 54 66 58 47 46 51 63 67 67 65 60 58 56 54 53 54 52 49 47 40 45 55 62 72 74 82 86 87 87 79 79 79 74 68 63
34 37 31 35 30 30 30 39 68 70 62 58 60 70 71 72 72 74 73 72 72 73 70 69 63 62 52 42 47 58 63 69 68 71 78 90 96 84 76 77 74 67 67 69
30 27 27 34 32 37 62 68 66 61 64 69 69 70 73 75 74 69 63 63 63 65 67 70 65 74 75 64 52 56 68 70 67 76 95 98 97 78 75 82 75 70 74 77
47 42 43 38 61 76 69 68 70 71 71 72 71 68 64 62 63 59 65 66 64 65 65 68 72 99 90 63 54 60 70 69 74 97 100 91 82 79 86 84 75 75 81 76
35 36 41 76 70 64 69 75 75 71 70 77 66 72 50 68 82 79 78 76 77 80 78 76 88 100 96 78 61 58 65 75 93 100 94 87 83 92 87 82 85 87 85 85
43 68 73 63 61 71 83 84 74 76 80 83 74 94 47 52 59 78 78 81 81 77 77 81 100 92 80 70 60 68 79 95 100 97 92 86 96 88 90 93 80 80 88 84
76 75 61 62 72 83 85 79 82 78 73 65 74 75 60 73 73 71 73 71 82 86 91 84 70 64 61 62 68 82 96 98 97 87 81 88 87 89 86 80 83 84 81 56
70 65 64 69 76 85 84 69 80 84 82 58 60 67 69 71 70 76 77 79 73 89 75 69 68 63 66 70 84 86 72 72 81 83 85 84 89 85 91 100 82 56 40 37
71 76 74 76 74 83 83 89 85 80 76 55 77 70 66 64 72 70 70 83 91 71 69 63 57 66 78 82 74 71 79 83 80 82 85 89 94 100 93 68 47 46 38 30
75 80 82 74 71 75 78 84 86 81 67 86 73 65 66 71 75 77 76 74 75 78 58 59 65 78 75 71 81 81 75 80 85 82 93 93 90 82 67 48 59 43 38 26
93 86 81 80 83 91 87 81 79 75 72 67 69 77 84 91 99 100 98 80 69 55 54 67 73 65 72 79 84 82 85 84 75 74 78 81 64 65 58 45 29 35 21 16
94 96 93 90 83 76 78 74 79 70 66 75 81 80 99 100 100 85 69 63 52 52 65 74 70 69 81 87 91 87 83 68 74 82 79 72 53 43 33 35 26 20 21 15
80 77 87 84 74 63 65 69 58 66 88 88 100 100 91 72 68 65 67 58 52 63 76 73 66 87 92 87 84 75 69 73 81 83 70 47 37 36 31 24 25 15 13 15
67 62 65 70 72 61 55 58 76 82 88 100 96 80 77 76 84 72 54 62 74 86 73 71 81 84 86 78 73 71 72 84 85 63 46 46 43 31 21 20 21 15 14 16
66 54 54 57 62 76 90 85 94 78 79 87 93 78 85 73 52 56 71 81 86 70 71 81 83 80 71 74 74 78 77 74 61 56 42 35 29 26 22 17 14 16 14 14
69 70 78 84 99 100 100 81 78 90 100 93 84 72 55 60 68 74 82 81 67 74 85 84 77 72 75 68 72 80 62 51 44 36 42 41 31 25 16 15 14 14 12 11

GFSCGP_250_rhum_027.txt.gz
RH
86 80 98 100 98 95 91 78 99 100 100 100 100 100 100 96 84 84 81 100 100 100 79 91 100 92 95 100 84 88 100 100 100 100 100 100 100 99 100 94 87 61 40 34
73 96 95 98 94 85 95 100 99 89 89 98 100 100 100 90 100 100 100 84 85 92 91 90 93 98 100 100 100 100 100 100 98 98 89 73 69 69 60 47 38 30 26 23
70 81 82 81 94 85 94 96 100 99 86 98 84 75 89 98 94 100 100 96 82 74 77 81 92 90 94 91 80 89 97 98 93 75 73 67 50 45 33 27 24 23 27 33
66 68 74 85 77 81 94 74 95 84 80 100 98 100 100 100 86 65 67 74 84 86 80 78 77 71 76 67 39 53 51 58 60 60 53 42 31 29 27 31 33 32 28 33
46 47 87 95 84 86 91 100 100 100 99 88 99 92 74 85 74 61 96 82 55 64 46 26 34 27 34 47 60 65 63 56 51 36 32 28 26 29 28 27 28 31 34 39
93 92 83 100 93 87 85 91 85 89 100 95 79 69 84 80 85 71 49 36 33 41 80 74 61 49 36 30 42 46 40 36 33 30 28 28 28 26 25 28 31 32 35 36
84 98 95 89 82 89 100 90 88 95 100 79 90 90 74 76 41 74 85 34 30 44 61 89 56 22 31 45 48 40 34 33 34 33 34 33 33 32 32 33 33 36 36 40
94 100 100 98 98 100 97 76 75 100 100 100 90 78 71 55 63 70 81 57 70 87 99 98 35 50 52 58 36 35 38 40 44 45 41 41 44 41 42 53 43 52 58 51
81 81 83 83 87 92 87 76 83 88 72 65 86 49 20 54 67 66 90 99 100 90 100 62 52 51 42 42 44 47 49 51 56 56 53 58 65 87 96 74 66 64 53 58
56 73 74 69 70 80 85 81 54 38 49 77 56 46 69 64 50 42 36 50 94 100 77 49 49 50 51 45 44 47 53 61 69 75 74 79 88 86 75 67 54 56 64 59
28 41 47 40 62 72 59 32 23 29 55 77 54 87 49 49 32 29 60 45 44 48 52 46 46 48 48 52 57 60 63 69 72 70 68 74 73 64 50 52 58 66 62 61
19 17 25 19 23 27 21 17 16 35 66 96 71 45 36 42 55 51 39 54 51 46 44 45 47 48 54 58 66 63 59 63 80 93 73 58 56 51 54 52 64 68 64 70
78 64 48 56 52 20 22 44 81 99 82 52 38 26 45 55 52 57 58 44 46 50 48 50 50 55 64 68 71 71 78 87 93 80 61 54 53 49 49 58 71 70 67 76
59 64 74 71 72 77 85 73 81 71 54 35 31 37 71 45 54 63 61 56 44 38 42 42 45 54 59 66 86 98 92 80 65 60 54 54 51 55 64 71 74 70 79 82
38 40 42 43 36 46 52 45 37 26 24 30 44 61 57 52 67 69 69 72 57 80 60 46 58 63 60 60 62 66 75 66 53 52 58 56 59 63 69 74 67 74 79 78
25 24 25 23 23 28 26 24 23 26 25 54 47 59 51 58 69 73 59 46 53 54 64 73 65 60 64 84 82 71 61 54 54 60 55 57 64 72 72 66 75 81 76 64
46 52 52 53 46 41 36 29 34 39 51 51 51 59 69 66 59 77 87 92 76 63 73 71 71 70 91 91 72 63 60 57 57 57 57 66 75 76 72 79 82 75 67 66
54 49 49 44 32 36 27 32 45 60 50 56 73 79 78 76 73 60 63 75 83 78 74 69 71 92 82 64 68 64 62 63 60 58 63 75 75 79 83 79 71 66 64 56
50 52 48 40 35 40 37 45 67 59 56 68 80 80 79 81 70 76 79 86 77 72 64 63 80 83 82 77 76 79 73 68 62 68 73 74 84 80 75 64 64 66 60 50
50 54 56 50 54 80 86 76 68 61 63 76 78 81 77 73 73 78 79 72 77 73 73 77 80 83 88 96 88 84 85 70 74 68 75 77 74 75 65 69 68 60 44 39
47 52 62 52 68 86 87 80 70 66 64 71 76 77 78 82 90 92 83 87 82 75 74 78 83 77 84 88 94 92 70 73 67 72 69 74 66 68 73 71 60 44 37 34
39 47 59 69 69 82 85 98 83 79 87 93 82 83 95 100 100 86 77 76 87 98 82 80 77 83 89 95 86 67 70 72 68 70 68 75 87 82 76 63 48 45 41 30
40 44 53 77 79 86 92 84 88 94 96 81 92 98 100 92 83 79 85 100 100 97 98 77 75 76 95 82 70 72 75 71 75 75 86 90 80 77 66 52 42 38 27 20
46 45 52 61 66 96 95 96 100 100 100 95 99 99 94 81 73 96 97 93 98 99 82 71 76 99 86 71 72 75 72 73 76 90 96 77 70 61 44 36 33 28 25 17
52 50 53 62 56 75 82 93 100 100 100 98 100 88 65 84 100 96 96 88 77 70 69 83 97 86 71 73 75 71 72 76 88 90 80 68 63 45 37 34 28 21 16 11
63 66 68 74 88 77 77 76 79 88 97 96 76 69 85 100 97 85 78 77 71 74 85 90 75 66 71 71 69 70 74 75 90 82 69 60 42 36 28 26 20 15 11 9

GFSCGP_250_rhum_030.txt.gz
RH
59 65 76 74 85 99 91 86 84 78 90 100 100 100 100 100 100 100 100 91 79 80 100 100 100 100 99 96 92 84 69 64 82 98 100 100 100 100 100 100 90 95 92 69
68 70 82 92 89 89 94 90 100 100 94 71 99 100 99 93 90 100 92 82 80 90 100 100 100 93 68 60 68 74 82 86 100 100 100 97 96 92 83 77 75 78 75 62
79 79 73 94 100 94 97 100 100 100 100 100 94 92 100 99 84 75 83 91 94 82 66 68 75 78 77 62 60 69 64 88 90 77 83 87 88 89 82 72 66 52 41 34
63 73 79 88 98 96 100 100 100 100 100 95 90 88 77 77 97 100 100 100 100 98 88 86 78 91 96 98 83 98 100 100 97 96 73 67 62 64 72 51 38 31 28 26
75 59 63 82 79 92 90 100 86 82 100 95 87 96 85 82 79 88 97 92 82 67 54 82 91 91 76 65 52 48 100 98 83 71 74 71 60 39 34 32 30 30 32 32
64 75 92 74 78 80 81 74 86 95 100 80 76 86 99 97 96 98 98 100 97 92 86 59 29 28 38 62 36 53 57 35 42 39 41 40 36 35 36 37 38 38 40 35
52 81 98 100 92 84 76 88 90 87 100 75 77 69 65 70 67 75 79 54 48 39 37 59 38 42 44 54 43 71 47 44 43 44 39 37 39 45 44 42 38 33 35 42
35 69 86 79 100 90 88 100 100 86 78 73 75 64 70 84 86 76 62 26 19 43 42 48 54 52 80 70 83 77 78 67 40 42 46 49 45 36 31 32 38 43 42 39
21 38 56 85 84 85 92 89 76 74 79 72 85 81 100 93 69 39 27 19 31 51 57 48 57 81 82 70 71 80 83 52 52 48 45 41 39 39 41 46 50 47 45 44
18 21 32 56 91 80 71 86 99 100 100 82 56 50 66 64 27 52 66 58 59 50 66 73 84 92 90 49 61 62 50 55 55 56 55 51 48 46 53 59 54 54 53 53
19 16 19 26 36 69 76 66 72 78 96 54 28 25 22 31 28 70 52 47 46 56 58 65 81 77 53 53 50 49 51 51 59 64 62 54 46 55 61 59 60 55 54 56
42 28 22 15 19 49 72 53 38 66 42 37 14 14 26 26 50 54 50 64 58 54 58 60 56 57 55 48 43 44 51 58 59 61 56 54 67 73 67 60 60 56 56 61
57 50 38 42 38 23 35 24 16 24 21 35 29 31 68 54 46 35 64 70 74 62 60 62 63 59 65 64 68 73 69 66 66 75 99 97 73 64 62 60 56 57 59 61
64 63 56 59 59 64 70 68 66 66 79 72 74 65 66 40 38 56 51 49 48 52 61 65 64 61 54 67 87 84 76 82 94 99 90 63 59 63 60 59 58 63 60 66
67 56 50 46 50 51 65 69 69 75 70 63 51 58 34 29 57 70 67 48 48 44 39 34 47 58 72 72 62 53 54 56 64 63 55 57 57 67 72 62 65 66 69 76
71 55 43 32 28 26 25 26 22 34 28 38 31 28 25 63 88 76 59 66 73 79 77 77 79 67 52 46 51 55 51 49 50 57 58 64 71 75 68 67 70 71 75 72
75 61 40 28 24 28 44 31 39 33 29 29 33 35 66 70 58 58 69 77 75 58 62 67 64 55 55 62 63 54 52 57 62 66 74 76 71 67 69 71 67 68 68 70
80 71 38 34 39 57 44 40 43 43 45 48 50 79 73 54 55 68 74 74 71 77 76 78 80 82 83 69 64 69 71 71 64 64 71 74 69 68 70 65 67 70 77 78
80 71 40 48 51 60 46 31 27 28 39 51 82 80 66 63 66 70 72 78 87 87 84 81 80 73 73 76 77 78 76 72 68 70 83 77 65 71 70 73 73 72 89 91
86 70 38 43 53 58 55 40 24 40 69 83 76 72 74 74 78 78 80 85 90 86 73 67 68 75 84 93 93 97 83 72 73 85 82 68 68 66 69 65 85 98 96 84
100 77 40 34 50 68 66 47 44 62 99 93 87 77 70 72 76 81 90 93 88 78 76 77 78 83 96 94 88 84 76 75 81 75 64 64 73 74 73 80 94 100 94 74
100 74 48 34 47 55 68 65 78 92 97 85 85 91 96 92 93 95 97 95 90 89 87 74 82 91 89 86 87 75 74 76 75 66 68 77 74 75 90 100 100 96 74 55
95 68 47 34 42 47 68 97 94 87 79 87 97 99 100 100 100 96 91 89 85 87 71 90 99 91 86 81 80 78 79 82 70 70 80 78 81 95 100 100 95 73 57 49
100 76 54 46 42 47 52 78 92 95 94 92 90 97 99 95 92 98 100 92 83 75 93 97 94 93 82 83 82 84 86 74 72 80 80 83 86 98 100 89 71 59 49 40
98 89 63 56 51 51 51 58 75 86 96 94 93 96 94 89 84 79 82 93 88 90 98 93 86 86 85 84 87 86 78 75 80 83 79 76 95 98 88 70 62 48 38 28
100 93 79 76 76 66 64 60 61 68 79 94 100 100 100 99 100 100 97 93 84 87 82 86 86 85 87 87 83 78 76 81 86 76 74 92 96 77 66 57 48 36 26 19

GFSCGP_250_rhum_033.txt.gz
RH
36 58 74 67 100 100 100 100 100 100 100 100 100 100 100 100 98 100 100 100 98 100 100 100 100 100 100 100 100 100 100 100 100 100 100 95 100 91 100 100 100 99 87 99
44 52 77 87 88 99 97 97 98 100 100 100 100 100 100 100 98 75 86 72 73 89 96 100 100 100 100 100 100 100 100 98 94 89 96 92 79 86 98 97 82 74 86 88
45 55 69 99 92 96 82 86 90 97 98 100 100 100 100 100 99 93 81 66 78 96 71 61 58 60 77 83 94 100 100 86 70 67 70 77 69 78 86 82 82 83 80 69
45 64 65 73 82 97 90 90 100 100 98 100 100 100 100 100 99 99 89 87 81 79 92 90 77 73 62 60 65 61 60 63 68 81 82 82 82 86 89 84 73 58 40 35
25 65 67 71 69 86 85 94 100 100 88 78 78 87 100 100 100 100 69 75 100 100 100 100 90 75 65 65 62 61 58 73 83 81 83 100 85 78 75 58 47 39 37 36
15 49 77 87 78 95 94 95 84 100 98 82 85 74 72 76 72 92 99 95 84 79 88 69 86 92 84 75 75 71 65 88 99 94 95 84 71 69 53 46 39 38 42 41
18 19 61 79 79 84 100 100 100 98 84 72 79 86 77 86 93 91 96 100 99 79 54 56 60 65 86 88 75 76 78 98 100 99 85 82 68 48 41 43 47 44 43 44
25 17 28 54 74 79 91 93 100 100 88 91 99 84 82 87 83 84 87 91 85 81 69 36 20 28 48 77 67 76 88 84 100 87 71 67 58 48 51 48 41 48 55 52
34 23 19 36 54 69 80 86 87 86 69 65 70 86 85 82 81 67 54 52 53 34 31 44 48 58 53 63 60 78 97 98 82 68 61 64 47 42 40 45 59 53 50 53
42 28 25 22 26 45 75 73 73 75 68 72 82 86 90 80 68 60 50 46 24 41 61 64 54 58 66 78 73 79 74 71 57 58 52 41 43 51 52 48 48 52 56 52
64 45 41 24 20 21 36 75 83 86 81 74 76 83 88 47 36 34 27 31 56 59 52 37 42 57 56 52 64 72 64 52 47 41 42 52 54 47 49 53 63 60 58 60
57 49 37 33 41 18 20 27 54 79 73 58 64 74 37 28 34 45 70 65 63 47 42 69 76 62 60 68 64 56 47 43 38 44 52 47 43 45 50 60 63 61 59 59
63 53 50 39 51 51 27 18 28 44 35 25 29 24 20 45 56 66 85 62 48 48 65 62 68 66 64 61 51 52 61 59 56 50 56 62 64 63 70 65 59 57 65 68
58 62 58 57 53 58 62 54 46 52 51 34 36 44 62 82 100 89 62 74 60 63 54 66 70 74 91 98 93 91 93 97 94 94 86 72 63 62 62 57 58 66 74 67
62 63 48 65 60 60 55 52 53 54 55 51 60 85 74 74 83 62 46 60 76 67 78 77 81 90 80 75 79 82 92 100 95 80 67 60 61 60 61 58 62 70 70 69
61 53 49 64 63 52 43 29 27 24 23 28 33 38 30 36 42 28 30 62 68 76 73 73 73 68 75 75 82 90 97 79 73 64 56 57 55 59 64 64 70 74 72 78
50 46 53 53 62 52 31 25 24 31 39 38 39 38 32 27 30 34 48 64 67 68 73 76 75 77 75 78 76 62 54 61 60 51 53 54 62 72 70 70 75 70 71 73
60 57 57 61 62 50 36 39 42 37 34 41 45 44 33 34 39 50 75 74 69 72 76 76 78 77 79 75 76 72 69 62 53 57 61 68 74 74 74 78 76 71 79 76
66 50 46 49 70 57 41 47 46 42 43 43 37 32 30 28 41 72 73 68 67 66 68 70 74 80 86 91 83 74 67 58 65 68 73 81 79 77 78 81 78 76 79 84
81 70 46 48 68 74 40 44 46 45 64 45 34 37 42 48 58 65 66 64 64 67 71 79 87 90 88 79 73 74 68 81 87 88 86 84 85 87 84 82 82 81 84 84
61 52 50 43 63 85 51 39 51 60 79 48 44 51 72 85 87 83 81 79 81 92 100 98 86 76 70 76 84 77 81 90 93 93 91 88 84 82 81 87 90 93 85 87
75 50 59 49 68 95 65 44 41 58 51 46 58 77 87 96 98 96 95 100 96 90 85 83 87 90 90 90 87 91 93 95 92 93 96 92 87 85 90 89 90 85 88 86
72 61 61 55 75 91 69 46 40 46 56 51 63 75 83 91 88 83 82 80 84 86 88 94 96 92 83 83 96 94 88 92 98 100 94 86 83 85 84 85 83 82 75 75
70 66 68 55 99 97 75 49 53 50 56 59 60 83 100 100 96 92 91 92 92 89 94 88 77 84 96 98 91 86 94 99 99 94 86 81 84 82 83 82 79 76 73 74
94 48 68 70 100 93 98 84 66 62 66 71 75 74 83 89 89 86 92 94 89 80 74 80 95 99 93 88 93 98 100 100 94 84 83 85 86 85 83 79 72 64 66 62
79 63 72 69 88 93 100 96 78 72 76 82 84 88 89 85 86 91 91 83 81 80 91 99 96 93 95 97 95 97 99 90 82 84 81 82 82 77 77 74 61 59 60 48

GFSCGP_250_rhum_036.txt.gz
RH
23 30 38 69 84 98 82 84 81 88 92 100 100 100 100 100 100 100 100 100 100 100 100 100 100 98 88 84 80 90 100 100 100 100 100 100 100 100 100 100 100 100 85 66
25 22 45 48 85 99 93 100 100 96 99 100 98 100 97 100 96 100 99 100 100 100 100 100 97 86 80 100 100 100 94 98 100 100 100 100 100 95 77 69 72 70 68 83
29 23 43 46 69 74 88 100 100 100 95 100 87 100 88 99 95 100 83 78 96 100 100 100 100 100 100 100 100 100 100 96 94 86 79 79 77 74 64 66 75 78 77 76
35 25 34 50 56 86 85 81 100 100 100 100 97 85 100 97 100 100 100 97 76 77 82 90 84 100 97 80 82 82 81 74 76 75 67 63 67 74 63 60 59 58 46 43
32 30 21 39 58 68 89 88 80 100 100 100 100 100 95 100 99 100 100 90 95 72 49 52 60 65 68 81 97 82 69 63 79 79 72 76 78 69 64 61 54 49 48 44
33 35 23 33 51 65 74 99 91 95 94 100 99 86 96 100 100 100 100 100 98 94 72 69 65 62 55 57 52 55 61 98 88 85 88 94 100 100 84 75 60 60 60 49
36 35 26 23 49 58 76 92 98 98 93 100 100 97 94 88 79 85 78 77 88 80 66 65 61 70 70 55 66 72 81 77 87 100 100 100 99 95 90 96 71 62 53 46
40 36 28 25 24 50 58 75 77 84 78 81 97 94 86 93 89 88 88 80 77 87 87 74 70 63 76 77 49 57 74 100 100 100 100 100 100 86 76 72 64 54 50 48
46 39 28 31 22 20 48 68 77 81 84 73 83 83 71 88 100 100 100 98 85 82 78 70 78 66 58 38 65 72 82 100 100 100 100 100 91 91 70 54 50 54 49 46
46 43 31 33 26 21 20 61 86 80 71 90 96 88 91 89 98 97 89 100 97 97 86 78 50 29 41 53 57 61 97 100 100 100 95 76 59 56 49 46 51 49 53 59
50 47 36 28 27 26 23 28 70 85 90 83 81 90 96 97 97 100 98 63 49 54 47 39 52 54 50 45 53 56 52 61 77 80 74 56 48 42 42 41 37 47 58 57
50 57 45 31 31 39 40 28 20 53 80 93 85 96 97 97 100 100 69 42 39 39 48 62 59 42 49 67 51 52 63 74 75 83 90 67 53 60 47 48 54 57 56 55
58 53 50 34 30 42 57 55 40 18 22 46 57 68 64 59 87 82 44 46 34 62 61 59 44 58 68 53 53 73 93 93 91 82 68 62 60 47 56 60 58 54 56 65
60 53 46 31 31 32 60 59 56 56 50 35 56 39 21 56 57 81 100 83 68 56 52 45 56 74 71 62 67 76 84 80 69 59 69 68 71 70 66 63 54 56 68 78
60 45 53 39 32 34 46 62 42 51 61 70 67 67 68 77 90 100 100 88 70 63 49 47 68 65 57 76 75 82 86 75 72 81 88 84 78 74 68 64 57 64 77 80
69 46 56 50 35 34 48 60 50 43 35 34 36 41 35 33 54 58 70 82 77 57 36 43 67 62 61 70 78 79 77 83 95 100 100 96 89 88 70 56 61 70 74 75
62 55 62 55 39 39 48 58 51 36 28 28 35 35 29 27 26 34 43 42 40 36 46 74 81 77 79 80 84 88 90 95 96 94 90 84 78 71 60 61 69 76 87 93
62 81 81 53 39 42 47 55 52 43 37 36 55 43 30 23 26 34 39 36 37 39 65 89 89 86 82 82 84 88 89 84 85 82 78 77 71 64 68 72 79 91 95 95
81 87 82 56 42 42 55 45 58 53 45 57 57 46 35 27 25 26 34 44 42 51 72 80 74 69 73 79 84 83 85 90 90 85 77 68 64 80 82 83 91 96 92 98
77 85 85 65 47 42 52 46 46 67 44 47 47 43 54 40 31 33 36 41 56 72 76 71 67 72 76 78 82 78 84 85 82 73 67 77 86 85 86 94 96 93 98 96
98 94 86 66 54 51 52 46 43 75 57 40 42 53 50 57 62 51 51 62 68 74 76 77 79 82 83 82 91 97 89 74 68 70 82 86 89 92 98 99 100 100 99 96
100 92 83 63 53 56 55 44 44 57 70 59 46 44 60 64 59 65 67 66 72 81 87 89 88 88 90 89 81 66 62 69 73 87 92 96 98 100 98 100 99 97 94 82
100 100 85 90 78 64 60 52 46 52 79 74 58 48 46 57 61 61 60 75 90 95 91 90 88 81 71 67 67 70 75 90 97 99 100 100 95 96 100 100 94 91 79 95
100 100 91 96 86 68 58 54 47 61 79 79 73 61 62 60 61 64 66 66 64 64 70 72 67 66 71 77 81 88 95 100 99 100 97 95 100 100 94 88 90 83 93 93
96 95 100 98 98 68 65 72 63 63 88 90 84 82 77 67 66 70 73 76 76 76 77 81 86 90 90 87 92 100 100 100 100 100 100 100 98 87 86 94 89 89 90 90
98 100 100 93 80 75 91 81 64 72 90 95 93 97 94 91 86 85 86 86 89 90 91 91 92 93 95 100 100 100 100 100 100 100 100 91 85 84 90 88 87 87 85 77

GFSCGP_250_rhum_039.txt.gz
RH
32 23 26 26 42 54 62 86 99 89 79 99 100 100 95 85 98 100 100 100 100 100 100 100 96 90 98 99 100 100 100 100 100 100 98 99 74 51 58 73 81 79 100 100
32 26 21 30 45 53 70 76 100 85 99 89 99 100 96 96 89 100 100 100 100 100 100 100 100 100 98 80 67 83 69 57 51 51 57 76 78 77 92 100 100 98 86 73
32 29 24 29 28 54 64 87 82 95 100 100 100 100 100 81 99 87 81 91 95 100 100 100 100 98 100 91 72 64 80 90 100 99 94 86 100 100 95 90 79 65 62 62
36 33 26 29 24 55 62 87 89 84 98 94 98 100 100 96 78 79 99 100 98 88 100 100 99 100 99 100 100 100 100 96 80 72 71 69 69 61 58 60 63 75 60 64
40 36 32 30 29 40 67 79 95 99 100 94 92 100 98 97 94 100 100 100 100 100 93 80 90 99 99 91 85 77 82 83 72 72 93 100 87 71 62 79 70 78 84 83
48 40 36 33 32 26 62 64 82 97 91 96 92 97 99 82 86 99 100 98 100 99 96 77 71 65 68 72 90 78 74 79 75 100 100 96 67 62 69 92 98 95 69 72
57 45 37 32 37 29 25 65 63 88 99 96 99 92 98 99 92 100 100 100 100 100 88 78 69 78 79 82 76 68 74 77 89 97 100 93 84 86 94 100 99 99 100 89
59 52 42 36 38 34 24 25 69 68 100 99 100 96 100 100 100 100 99 95 86 90 81 76 80 87 81 75 73 71 74 79 91 100 99 92 86 100 100 100 100 100 88 61
69 62 46 38 41 39 32 23 37 68 66 95 99 100 96 100 100 89 96 100 92 79 71 70 70 72 75 71 68 64 43 53 84 100 100 89 100 100 100 100 100 77 64 67
57 54 64 50 42 39 33 34 22 52 68 73 96 100 93 98 100 97 88 94 87 89 91 88 93 83 81 77 59 48 57 67 87 100 100 100 100 100 100 87 84 68 84 53
53 53 65 54 50 42 40 30 32 22 60 79 80 94 90 86 98 97 99 93 93 92 97 94 58 52 51 45 58 56 53 51 69 68 84 88 88 100 100 90 99 99 83 69
58 64 66 59 55 44 39 28 43 41 28 61 85 95 68 79 85 87 100 100 99 94 99 87 54 54 64 64 54 53 59 61 57 87 100 100 100 100 97 100 99 73 62 56
67 72 72 72 54 44 38 37 41 49 50 31 46 65 72 86 99 91 97 100 96 78 82 46 28 60 71 62 53 60 64 74 88 100 100 100 100 92 85 66 52 55 62 69
78 72 78 62 57 45 49 46 34 63 58 59 57 35 38 52 52 39 41 59 48 49 20 40 50 71 60 52 61 60 80 84 99 100 97 87 72 61 56 56 52 59 71 76
90 88 73 72 67 51 49 55 40 37 60 54 54 63 62 67 95 83 60 60 56 62 56 47 68 63 49 48 60 74 78 77 82 74 70 72 73 66 56 59 73 89 86 78
100 100 89 81 74 53 45 53 38 35 61 44 35 48 46 47 46 60 80 94 90 72 49 35 34 53 42 44 79 85 80 77 76 71 70 69 67 69 78 89 98 98 92 80
98 100 87 87 73 61 45 54 42 33 46 58 32 36 33 37 40 35 33 37 47 42 30 27 29 30 29 33 65 77 73 66 65 73 76 76 80 85 98 100 100 94 78 74
93 100 88 89 67 93 60 51 44 43 37 51 56 41 44 47 44 46 46 55 61 59 51 41 33 34 37 40 57 73 73 75 78 80 84 85 85 95 100 99 84 73 81 86
100 97 89 72 70 93 90 55 46 44 43 29 38 55 44 52 59 66 57 44 40 40 45 55 58 50 47 57 81 89 88 87 89 90 84 84 95 97 86 76 77 86 89 86
100 86 72 89 73 99 90 70 50 46 47 40 34 48 59 45 56 64 63 67 54 48 50 53 58 74 89 98 100 97 88 86 80 78 90 92 90 77 79 87 90 90 88 86
98 100 84 77 89 100 100 65 54 54 50 46 40 45 73 64 39 44 56 56 55 73 73 74 80 84 86 86 85 83 83 87 89 86 91 82 82 92 92 82 83 89 90 98
100 100 94 83 93 97 81 81 68 64 56 50 42 44 64 89 62 47 41 46 55 63 66 67 69 72 74 76 78 76 75 77 80 84 86 90 84 78 78 87 92 92 98 100
100 100 100 77 67 90 100 72 80 70 70 60 43 40 48 75 88 70 51 50 54 54 58 62 65 67 71 75 78 84 87 86 82 81 78 72 73 83 91 97 100 100 97 94
100 100 94 72 69 71 79 100 72 72 72 58 53 45 41 48 77 76 74 80 80 74 68 69 74 82 85 84 82 82 82 77 78 83 91 97 99 100 100 100 99 94 94 98
100 100 83 66 71 94 90 87 85 99 81 69 64 56 46 50 63 86 83 89 98 100 100 98 92 87 81 75 72 72 81 87 86 89 95 99 97 94 95 87 90 98 94 90
77 83 85 89 94 99 100 100 100 97 92 88 76 74 62 66 68 84 93 84 84 86 83 80 77 78 81 90 89 88 92 97 99 96 88 82 82 81 84 86 84 85 83 80

GFSCGP_250_rhum_042.txt.gz
RH
87 37 44 30 28 31 56 55 59 76 88 100 98 87 77 67 85 100 100 100 100 100 100 100 100 81 94 100 100 100 100 100 100 100 100 100 100 100 100 100 97 100 96 80
83 42 47 35 29 31 56 57 64 77 81 74 91 100 92 87 83 72 100 100 100 100 100 100 100 100 100 63 88 100 100 100 100 100 100 100 92 85 74 83 76 50 83 90
82 47 51 40 29 33 40 67 57 62 91 100 96 92 97 92 95 95 75 100 100 100 100 100 100 100 100 83 76 63 84 97 98 100 96 82 64 54 54 56 72 76 77 84
82 50 58 44 32 32 36 58 71 74 92 99 92 87 97 82 69 98 87 91 86 100 100 100 90 99 96 99 87 82 63 50 61 59 63 77 91 88 81 77 73 75 69 57
84 50 63 49 37 33 38 33 68 68 86 99 85 84 86 100 76 70 93 92 95 100 100 100 100 100 100 100 100 100 100 100 100 100 99 90 72 59 52 55 53 48 54 49
96 58 70 53 44 35 37 35 38 74 73 91 94 84 79 82 100 97 74 91 100 100 100 100 100 98 96 96 95 85 90 80 75 71 72 70 71 86 94 77 68 69 61 70
94 57 73 58 43 37 36 40 35 39 81 72 85 86 95 91 98 79 95 93 80 100 100 93 81 81 69 71 71 67 60 58 68 60 100 96 98 96 100 100 80 79 85 95
92 57 69 49 46 40 38 42 37 31 49 88 73 75 95 95 100 100 84 80 88 95 87 79 79 86 81 77 81 73 75 81 71 68 99 100 100 91 100 100 100 100 100 100
96 57 68 57 47 44 38 42 36 44 30 66 80 69 62 94 93 95 99 98 89 88 93 96 93 90 81 78 90 88 71 64 67 76 100 100 100 99 100 100 100 100 100 100
95 62 66 59 58 50 41 37 42 39 52 32 73 75 55 60 83 98 97 92 100 98 78 70 77 78 77 72 72 80 88 78 70 54 93 100 100 100 100 100 100 100 100 100
83 78 76 64 69 54 46 38 35 41 42 51 31 73 63 55 64 84 100 100 92 86 92 85 67 64 71 72 66 48 62 60 52 54 79 100 100 100 100 100 100 100 100 96
68 77 85 74 74 66 56 47 39 43 40 53 52 43 54 55 66 75 73 83 87 84 82 68 70 69 67 72 59 33 42 54 53 52 56 93 100 99 81 100 100 100 100 100
72 71 78 78 75 78 72 65 47 35 45 37 52 56 43 26 78 79 69 71 84 95 94 72 69 74 78 68 45 55 62 54 56 60 65 63 67 96 100 100 100 100 100 100
81 86 77 73 70 93 83 61 55 38 45 35 37 50 59 57 44 40 49 58 68 58 49 52 72 89 71 75 95 96 75 63 58 61 63 73 95 100 100 100 98 95 89 70
88 100 86 74 74 94 89 71 66 43 50 41 33 50 47 46 48 63 65 65 66 66 64 59 64 80 100 100 99 94 70 60 72 81 77 78 85 100 99 100 83 72 69 59
100 100 90 80 90 80 99 75 72 46 44 54 47 36 41 52 49 41 43 48 56 63 63 56 54 70 80 73 81 90 89 84 81 77 83 87 84 78 79 75 71 62 59 70
100 100 92 89 82 74 100 71 66 53 40 51 46 42 37 55 49 38 34 37 50 42 36 35 38 39 34 31 30 35 42 40 40 51 80 89 89 83 74 65 62 67 84 99
100 100 92 92 84 88 84 94 69 59 45 43 51 43 41 37 48 56 44 47 54 49 45 46 48 55 61 57 48 51 50 47 48 49 58 74 80 79 78 77 84 96 99 88
100 100 100 90 98 100 100 94 74 66 54 45 53 51 43 42 39 53 60 46 46 52 58 58 51 50 51 49 48 49 50 59 68 76 84 88 86 86 91 98 100 97 98 100
100 100 96 100 100 100 100 90 84 63 67 49 57 60 47 44 41 40 60 72 53 44 51 66 69 75 81 92 94 96 96 97 99 100 100 100 100 100 100 99 99 100 97 100
100 100 100 100 100 100 100 100 88 73 58 58 64 74 55 52 44 43 41 52 87 51 39 41 50 65 71 80 89 94 94 96 97 100 100 100 100 98 92 92 98 98 83 78
100 100 100 100 91 100 100 100 96 67 58 53 82 88 70 53 50 46 44 44 56 90 80 52 42 48 59 68 73 82 95 99 98 97 96 94 93 97 100 99 92 87 95 95
100 100 100 94 100 100 100 100 95 68 53 57 92 97 71 75 74 60 56 47 44 61 95 94 85 87 92 90 90 92 94 93 91 94 100 100 100 92 93 82 85 87 82 86
100 98 92 94 100 100 100 90 89 64 51 92 100 94 82 81 78 67 60 56 51 49 62 88 95 96 100 99 99 100 100 100 99 82 80 84 74 75 88 93 87 79 74 68
93 82 80 89 100 100 100 98 68 53 69 100 96 100 95 91 89 70 68 75 69 60 54 67 90 92 84 79 74 71 70 72 74 74 77 84 87 82 80 79 76 72 77 79
84 88 100 100 100 99 83 74 64 61 79 98 90 77 98 100 96 90 74 77 89 94 81 63 60 62 62 64 64 64 70 90 94 87 81 73 75 88 92 80 70 74 74 79

GFSCGP_250_rhum_045.txt.gz
RH
62 100 100 51 36 40 30 47 65 72 82 100 100 73 62 70 80 100 100 100 95 100 100 100 100 100 86 100 92 100 100 100 100 100 100 100 100 100 100 100 100 100 100 100
64 99 100 54 40 49 33 29 66 64 74 78 98 74 89 64 66 100 98 100 100 100 100 100 100 100 87 100 100 100 100 100 100 100 100 100 100 94 99 98 100 100 100 97
75 100 100 55 39 47 31 33 42 72 66 69 87 80 78 86 67 80 75 100 100 100 100 100 100 100 82 62 95 100 93 100 100 100 100 100 100 98 96 94 96 90 82 70
77 100 100 68 40 46 34 33 26 56 72 66 71 99 84 71 78 90 76 100 100 100 100 100 100 100 100 52 96 62 50 62 74 90 94 94 95 97 96 98 85 64 62 57
57 95 100 91 44 49 35 31 32 25 64 76 71 70 86 88 86 71 78 93 100 100 80 99 100 92 79 94 81 57 69 51 44 52 68 68 70 81 80 74 53 57 65 56
39 66 100 99 45 47 45 34 33 31 32 77 78 74 76 88 99 100 87 81 91 83 96 100 100 100 100 100 99 92 85 83 90 100 87 90 87 80 76 76 85 72 62 45
53 38 85 100 47 46 55 37 33 34 33 33 74 81 79 81 89 83 96 94 82 83 100 100 100 100 100 100 100 97 96 90 94 84 70 71 86 73 71 80 93 98 79 56
64 51 43 100 64 46 61 48 36 34 34 34 30 55 84 75 66 80 100 75 81 96 70 73 79 69 62 60 59 56 56 52 52 53 72 100 99 89 99 98 100 96 84 100
89 54 36 85 81 55 65 59 46 36 35 33 31 30 46 72 68 66 78 88 83 80 85 88 89 82 67 57 57 60 59 60 61 67 69 100 100 96 91 84 79 78 96 100
99 53 39 85 72 68 70 66 60 45 44 32 34 32 32 51 61 66 61 65 82 98 92 88 79 82 87 83 84 84 80 71 66 65 64 62 73 100 100 100 99 100 100 100
100 75 53 46 63 74 70 68 73 51 47 39 33 34 37 41 42 61 61 57 58 61 66 78 96 86 76 77 81 85 91 89 83 63 48 53 54 69 100 100 100 100 100 100
100 74 60 68 59 87 78 50 66 66 50 44 32 34 28 37 51 40 59 62 61 73 65 61 68 65 72 74 72 78 73 69 65 64 44 50 50 60 76 100 100 100 100 100
88 96 76 69 69 87 88 63 48 70 60 48 38 34 31 30 46 59 49 52 69 80 70 62 55 55 55 69 67 68 56 62 47 34 40 55 68 68 61 65 82 100 100 100
100 100 80 100 95 60 100 84 58 69 65 48 46 35 33 33 36 48 52 58 56 45 44 54 51 49 44 33 35 51 46 42 58 62 65 76 69 64 70 82 83 76 76 91
100 100 100 90 94 72 99 95 79 65 66 52 48 43 32 35 34 31 45 50 45 52 60 63 67 68 66 64 63 68 73 80 79 85 89 85 87 78 70 73 72 69 77 80
100 100 100 78 96 81 100 99 82 78 70 56 50 53 39 33 36 34 31 43 48 37 33 30 26 26 27 34 42 48 74 100 100 96 90 79 83 76 65 66 78 89 94 95
100 100 100 100 100 100 100 100 75 95 87 66 58 62 47 40 39 39 36 35 43 54 50 46 38 35 33 34 35 42 59 58 59 61 54 54 52 48 54 62 74 82 88 87
100 100 93 100 96 100 100 99 95 98 80 80 73 68 55 46 39 39 39 36 34 42 58 53 52 52 48 46 39 33 35 40 41 45 50 59 65 74 85 90 91 95 98 100
100 100 100 100 83 100 100 100 100 97 100 98 83 82 64 52 45 44 43 46 41 39 34 51 66 55 48 52 53 52 56 56 60 65 73 78 85 94 99 100 100 100 100 100
100 100 100 100 85 87 100 100 99 85 100 68 92 100 74 63 54 44 44 46 52 46 42 39 39 68 78 54 41 45 55 63 69 75 76 78 83 89 88 90 98 100 100 99
95 100 100 100 97 100 100 100 100 82 100 73 98 96 87 69 70 50 51 54 59 56 54 46 46 44 53 86 83 55 51 52 60 66 72 78 88 97 100 100 98 89 93 93
82 100 100 100 90 85 100 100 100 100 92 89 98 81 82 66 74 72 63 62 69 70 65 57 50 54 51 59 96 100 99 98 99 100 100 100 98 93 91 91 95 99 100 87
98 100 100 100 99 100 100 100 100 100 100 77 100 89 89 81 76 90 86 83 81 82 82 81 71 64 59 60 73 100 100 100 100 94 88 85 81 76 90 95 91 77 75 78
100 100 90 91 100 100 100 100 100 100 90 87 100 100 96 72 57 84 98 100 100 78 88 82 80 70 76 77 73 66 66 68 67 62 59 60 68 76 77 81 79 73 73 81
96 96 100 100 100 100 100 100 100 96 88 100 100 100 99 68 62 92 100 97 90 90 76 89 78 77 64 73 88 92 89 87 78 83 86 90 93 93 90 80 74 75 76 78
100 97 99 100 100 100 100 100 100 90 85 100 100 100 95 72 56 65 90 98 98 93 75 82 82 77 68 59 70 78 80 84 82 80 86 89 90 88 72 69 76 82 84 83

GFSCGP_250_rhum_048.txt.gz
RH
47 41 41 67 100 69 32 34 26 35 69 75 84 56 63 100 100 64 76 100 82 100 100 100 100 100 100 100 78 70 100 100 100 100 100 100 100 100 100 100 100 100 100 100
100 36 27 57 100 72 38 35 30 25 61 60 100 63 72 100 82 65 73 96 100 100 100 95 100 100 96 99 99 100 100 100 100 94 100 100 100 100 100 100 100 100 100 100
91 34 24 30 94 96 74 32 33 27 33 61 64 97 83 60 53 88 100 79 100 100 100 100 100 100 100 91 84 74 100 100 100 100 100 100 100 100 100 100 100 98 91 92
99 81 26 26 48 96 77 31 31 30 26 45 66 75 95 70 66 81 100 66 100 96 100 100 100 100 87 100 100 100 100 100 100 100 100 100 100 100 100 100 100 98 95 100
100 80 45 36 28 60 82 46 28 30 31 30 45 68 66 60 51 63 94 72 100 89 80 100 100 100 99 92 65 67 90 100 99 69 71 78 86 84 85 90 86 82 81 72
88 78 80 53 38 32 99 80 28 31 29 33 33 46 64 67 55 59 68 72 100 100 98 63 100 100 100 75 83 68 42 38 40 44 51 55 63 65 75 88 87 84 75 64
81 48 83 95 54 37 41 79 42 30 32 36 33 36 36 76 63 60 58 60 81 100 100 100 87 77 100 100 100 100 100 100 100 87 60 83 89 98 81 74 82 88 69 90
83 77 98 81 87 44 33 69 62 37 26 33 34 35 36 52 40 67 69 55 71 69 92 100 100 100 100 100 100 100 100 100 99 97 97 85 79 79 71 71 57 85 92 100
84 80 84 96 100 60 36 58 57 46 36 30 32 33 34 46 42 52 69 70 71 59 66 64 70 76 78 77 68 67 66 61 59 60 60 61 97 100 70 94 92 67 98 100
74 83 86 100 100 80 43 44 48 43 52 41 30 31 32 33 47 45 41 62 64 63 54 65 76 81 74 65 64 53 49 65 50 62 67 66 68 100 95 100 100 90 93 91
92 89 63 88 100 99 57 47 55 52 58 57 43 28 35 36 29 40 44 40 42 51 65 74 69 54 52 55 51 71 63 54 59 53 57 63 58 76 54 57 72 93 100 100
87 91 58 79 100 100 82 50 54 60 69 59 55 43 31 34 31 29 36 48 41 41 58 57 56 60 61 68 83 69 65 59 72 99 76 69 63 60 55 57 48 55 71 100
81 96 84 97 99 100 100 68 65 74 75 75 58 52 42 30 37 32 30 33 48 49 50 42 53 63 71 69 66 63 62 60 66 75 62 90 94 57 64 71 69 67 67 66
82 100 78 87 100 100 86 100 74 84 79 78 74 67 50 36 34 39 33 30 30 30 42 45 50 51 51 44 39 38 43 45 37 43 43 74 79 76 85 73 70 67 71 73
77 76 100 100 100 100 100 100 86 100 91 76 78 67 56 45 38 39 39 31 31 30 28 32 36 39 36 34 32 38 42 44 60 67 80 79 72 70 54 53 55 58 58 60
68 64 55 84 100 100 100 100 100 84 60 99 92 79 59 63 48 40 42 36 32 31 31 28 27 43 50 44 43 41 43 42 57 36 33 34 40 53 48 63 59 52 50 56
64 58 59 79 100 100 100 100 100 93 87 100 92 90 69 68 60 53 46 41 35 31 30 34 32 27 32 52 52 56 46 46 44 38 38 41 37 39 45 51 59 70 80 86
71 56 77 95 100 100 100 100 96 92 88 100 89 98 77 82 74 70 58 50 45 40 35 33 38 44 53 40 37 42 52 53 47 46 48 52 62 69 72 76 77 79 83 89
72 59 77 100 100 100 100 100 100 88 100 100 100 100 100 77 96 75 70 61 54 50 45 41 37 37 46 46 47 45 44 45 62 75 58 53 55 54 57 58 64 74 77 76
81 70 92 91 100 100 100 100 100 100 96 100 100 100 87 89 99 85 94 76 67 62 54 54 52 46 44 61 64 59 54 48 49 54 81 87 79 76 80 91 92 88 91 93
69 66 90 94 98 100 100 100 100 100 100 92 98 98 90 95 85 99 99 95 86 66 66 73 71 68 49 48 52 53 67 64 58 56 67 92 100 100 99 98 96 88 77 98
69 70 81 100 83 98 100 100 100 100 100 99 78 100 95 98 97 100 100 95 89 73 95 100 95 100 83 69 69 92 74 70 67 66 70 70 70 75 78 76 78 84 90 85
62 68 78 87 87 98 92 100 100 100 100 98 67 97 100 97 75 76 100 100 91 86 68 78 100 99 84 76 86 78 68 79 78 64 62 61 61 74 72 69 72 78 83 80
59 57 55 68 94 100 98 100 100 99 97 90 63 75 100 100 100 100 81 82 98 87 80 65 92 93 90 94 96 88 78 89 85 72 70 63 67 68 82 76 75 79 72 68
55 59 62 65 88 86 87 87 100 100 100 92 99 100 100 100 100 90 76 72 86 83 99 59 52 59 85 99 94 97 90 91 94 75 74 76 79 70 70 74 76 80 75 74
51 55 58 70 84 92 90 79 100 100 100 100 100 100 100 100 100 98 100 95 95 100 100 66 53 59 79 100 100 100 98 99 86 84 90 97 85 88 79 76 84 76 66 64

GFSCGP_250_rhum_051.txt.gz
RH
90 52 100 21 34 40 98 60 36 26 25 28 61 89 100 100 100 48 76 100 60 89 100 84 74 73 58 72 100 100 100 100 100 100 100 100 100 100 100 100 100 100 100 100
88 58 83 26 33 36 65 47 56 32 27 22 29 57 66 100 100 73 57 98 90 100 100 100 100 87 88 64 67 66 71 94 100 100 100 100 100 100 100 100 100 100 100 100
66 64 98 44 31 42 36 37 93 46 30 27 21 36 42 68 73 100 73 60 76 100 100 100 100 100 100 100 89 66 59 66 82 92 99 100 100 100 100 100 100 100 100 100
93 87 82 61 70 51 44 44 49 41 36 29 27 23 48 73 67 75 92 100 71 87 100 98 100 100 100 100 98 92 64 88 84 75 91 86 89 100 100 100 99 100 100 100
98 58 57 43 63 89 46 44 42 38 37 31 29 28 24 47 57 55 83 68 83 89 100 100 100 92 100 79 92 100 100 100 99 100 100 100 100 100 100 100 100 100 100 100
100 70 54 32 36 51 96 55 42 31 47 34 29 29 28 27 27 57 61 50 92 77 90 100 100 100 100 98 77 55 48 85 100 100 100 100 100 100 100 100 88 86 84 82
92 94 89 62 44 55 59 70 52 39 36 36 34 34 29 28 28 51 70 57 56 69 76 98 100 100 100 100 100 77 69 44 44 56 60 74 90 76 64 52 52 77 100 93
100 99 100 83 57 84 78 100 96 48 35 39 36 40 34 29 28 27 35 56 67 58 68 95 90 100 79 77 100 100 100 100 98 74 74 60 55 60 65 76 87 87 83 77
100 100 100 94 69 60 77 91 96 77 46 33 31 51 44 38 30 25 25 24 45 62 55 81 97 91 94 72 97 100 100 99 98 100 100 92 76 69 62 66 73 76 68 69
100 100 100 94 75 66 100 66 100 93 67 41 30 45 64 45 36 30 29 29 25 24 46 50 56 66 75 89 92 88 73 57 63 68 49 49 54 68 70 65 67 63 71 82
100 100 100 93 84 95 100 77 100 88 86 45 42 58 65 63 42 34 31 30 34 36 21 34 51 57 60 79 80 59 88 84 88 100 84 82 66 75 96 99 89 89 93 91
100 100 100 100 82 100 62 60 100 100 78 53 60 45 45 58 52 37 34 31 28 29 43 38 25 33 46 63 91 75 100 100 94 100 100 100 80 100 100 97 100 100 100 98
100 86 97 97 90 91 83 94 100 100 60 88 80 71 57 48 54 39 35 31 32 27 29 39 42 48 34 30 55 96 100 100 100 100 100 100 99 99 100 100 100 100 100 89
100 100 100 100 100 91 100 96 100 100 49 100 100 89 56 50 62 52 42 36 32 34 28 29 33 33 41 43 41 42 70 100 100 100 100 94 83 84 69 82 80 89 87 85
100 100 100 100 100 93 85 98 76 72 41 96 100 100 72 59 74 57 50 45 35 35 37 33 30 30 26 27 38 36 40 42 62 61 48 46 42 46 54 60 57 59 60 62
100 100 100 100 100 100 91 92 77 97 36 76 100 100 89 68 83 74 60 51 52 34 34 37 40 35 32 38 49 37 47 58 49 42 45 46 42 37 34 42 42 34 37 36
100 100 100 100 100 100 85 100 100 100 92 38 100 100 100 82 75 81 78 77 76 59 43 38 42 47 44 44 46 45 52 51 47 41 37 36 41 46 47 45 46 48 50 54
84 99 93 100 100 87 80 67 100 100 100 89 100 100 99 72 83 100 100 82 70 76 59 44 46 49 48 49 49 44 42 39 40 53 58 48 42 42 47 58 71 73 65 69
72 85 83 92 100 99 89 71 72 96 100 100 98 100 85 70 73 99 100 86 86 66 93 77 44 49 55 48 58 55 53 45 44 41 50 52 60 53 51 52 54 55 60 72
74 66 71 73 84 86 99 77 98 100 100 99 100 100 100 74 96 100 100 100 64 69 100 99 70 61 71 70 71 76 78 57 55 54 56 56 64 60 61 60 59 61 63 60
50 50 52 61 70 83 96 78 99 89 100 100 100 100 100 100 100 100 96 79 73 100 100 91 79 97 85 85 72 72 74 56 51 68 74 66 71 62 68 64 64 66 74 80
40 49 40 44 56 66 82 71 85 96 100 100 100 100 100 95 92 80 82 99 100 100 92 75 92 94 98 100 89 80 63 52 49 68 70 73 64 68 75 72 74 82 80 77
20 25 34 35 57 75 82 70 92 100 100 100 92 96 100 80 100 100 97 59 48 66 97 92 73 62 63 96 100 100 70 56 57 70 97 90 83 72 76 75 77 85 92 92
15 18 26 39 58 70 76 72 92 100 100 100 100 100 100 74 95 100 90 97 78 83 72 88 97 71 66 67 100 100 95 68 63 73 82 88 81 80 89 88 80 91 98 94
15 20 28 43 55 64 80 82 95 98 100 100 100 100 100 100 100 100 95 59 65 81 97 93 99 95 94 100 100 100 99 69 73 94 98 97 92 72 100 95 86 98 98 100
13 23 28 41 53 73 89 75 97 93 95 100 95 94 99 91 99 86 96 75 78 74 100 100 100 100 100 100 100 100 100 67 88 98 87 94 96 95 90 86 91 99 100 99

GFSCGP_250_rhum_054.txt.gz
RH
100 35 38 50 36 34 40 40 38 30 27 29 35 59 62 90 100 93 73 64 99 88 79 97 76 57 45 45 53 100 79 58 100 100 100 100 100 100 99 93 100 97 100 100
74 49 52 58 60 33 46 41 46 60 26 26 29 36 60 69 94 99 81 66 85 83 73 96 86 77 67 43 47 70 100 100 100 100 100 100 100 100 100 100 100 100 100 100
49 47 62 47 85 46 67 45 46 40 28 33 27 30 33 38 60 95 82 63 64 98 69 82 81 93 80 86 65 75 100 100 100 100 100 100 100 100 100 100 100 100 100 98
100 71 78 69 78 67 45 58 47 50 31 29 29 30 30 27 41 54 62 67 71 96 100 98 84 100 89 100 100 100 82 83 87 91 86 96 100 100 100 100 100 100 100 95
90 100 100 83 52 70 34 52 58 53 44 35 34 31 33 32 31 36 47 50 66 91 72 94 100 92 100 97 79 100 100 100 96 98 76 100 100 100 97 100 100 100 100 100
59 98 100 100 74 56 56 51 33 41 58 54 35 25 36 36 31 31 37 40 51 71 66 66 89 100 91 93 100 92 87 98 100 100 100 100 100 100 100 100 100 100 100 98
51 59 98 100 99 94 78 58 44 72 98 37 51 46 23 41 37 31 32 36 44 49 60 81 63 96 100 89 79 91 62 57 63 68 63 69 83 99 89 83 83 98 100 99
44 47 93 100 96 90 92 63 51 44 100 67 60 58 25 32 39 34 33 33 30 35 45 61 85 61 88 100 100 100 100 100 96 62 60 37 40 57 77 64 63 68 77 79
43 57 99 100 100 100 93 70 60 53 100 100 83 66 34 28 26 32 33 34 39 41 31 46 56 66 61 84 94 99 100 100 100 100 100 100 100 100 95 96 82 67 64 70
56 44 64 100 100 100 100 87 68 74 77 90 99 74 35 36 30 26 28 33 33 44 48 43 48 50 64 81 85 87 84 68 89 98 92 98 100 84 62 93 100 100 100 98
99 40 68 100 98 99 100 100 79 58 48 100 100 90 42 40 41 34 26 26 29 27 32 47 49 47 41 53 72 83 89 99 100 100 90 85 66 60 94 100 100 99 99 97
100 81 78 100 100 100 90 81 80 66 83 75 96 96 44 56 63 51 36 28 27 28 28 32 38 48 50 46 43 47 60 97 100 99 99 100 90 100 100 100 100 100 100 100
100 82 83 98 100 100 100 100 100 85 64 53 73 100 46 93 93 78 60 46 29 30 28 29 29 30 42 51 46 43 45 48 64 100 100 100 96 100 100 100 100 100 100 100
100 96 84 100 100 100 100 100 100 82 66 63 66 100 75 63 89 100 82 64 41 42 32 30 27 30 31 33 44 50 47 45 59 85 77 100 100 71 96 100 100 100 100 100
100 100 99 100 100 100 100 100 100 100 89 66 68 64 68 41 75 99 98 74 57 47 49 38 32 28 29 33 37 37 43 49 55 57 71 93 100 100 100 100 100 100 100 100
100 100 100 100 100 100 100 100 100 100 89 79 70 62 78 65 45 52 100 95 72 53 85 57 47 40 34 35 36 40 45 56 56 99 100 100 100 100 100 100 100 92 83 68
100 81 84 100 100 100 100 100 100 100 100 100 79 97 100 68 68 71 99 93 89 63 86 83 48 59 43 37 39 39 37 39 46 77 75 77 97 96 91 78 72 51 43 41
100 100 98 95 100 100 100 100 100 100 100 100 89 75 100 100 77 98 100 100 95 55 76 77 78 41 71 64 43 56 51 52 47 52 52 54 51 44 40 38 39 43 48 49
100 100 100 83 84 100 99 100 100 100 100 100 100 100 100 100 89 95 100 100 87 58 99 96 96 55 48 89 73 68 71 72 61 48 57 53 55 49 39 42 49 50 57 59
76 97 100 100 100 79 100 100 100 100 100 100 98 90 100 100 88 78 100 100 92 95 100 100 85 65 49 100 77 58 92 86 92 90 76 63 53 48 46 50 46 49 50 45
46 71 98 99 69 76 95 100 100 98 99 100 100 90 89 100 86 58 94 100 100 100 100 96 81 61 84 82 65 86 59 62 70 91 100 100 100 74 61 61 60 71 65 66
30 54 72 80 72 61 60 87 95 87 95 100 100 83 72 70 99 98 75 100 100 100 84 100 95 93 60 45 50 55 74 74 70 82 99 97 96 100 82 58 68 74 67 65
20 27 34 46 62 66 73 61 72 78 80 88 100 90 82 94 99 100 100 83 100 92 100 100 100 100 83 59 49 58 50 64 80 90 96 87 97 97 100 92 66 71 68 68
18 22 27 34 44 56 42 49 60 59 61 68 83 93 95 90 88 86 100 99 100 99 89 98 100 98 97 72 52 47 57 82 95 100 88 99 100 96 90 94 81 65 74 84
17 17 23 24 32 36 40 44 44 57 73 87 81 78 86 88 86 99 100 100 98 93 95 90 100 100 97 79 81 85 95 79 99 100 100 100 100 99 94 99 98 84 78 63
15 14 16 16 20 18 21 26 34 48 67 76 78 73 86 90 91 100 100 100 100 100 100 100 100 100 98 93 78 85 81 98 99 99 100 100 100 100 95 100 100 100 73 88

GFSCGP_250_rhum_057.txt.gz
RH
48 79 58 98 50 29 28 32 30 29 30 30 31 31 24 25 60 73 47 65 60 76 45 54 50 51 49 51 46 48 42 37 38 68 84 68 53 45 82 100 100 100 100 100
64 72 65 97 56 30 33 41 31 22 35 30 36 33 30 25 27 50 73 96 69 73 71 60 61 49 48 47 39 45 46 56 78 55 100 100 98 100 97 100 100 100 100 93
33 64 69 83 79 40 39 58 30 29 26 39 43 31 29 27 26 23 42 69 84 71 64 51 74 78 72 60 45 35 43 52 77 90 84 97 100 100 100 100 100 100 93 81
27 47 58 52 68 60 61 59 33 36 37 37 64 42 39 32 27 26 27 50 57 52 50 71 66 87 76 69 78 61 64 87 100 100 99 95 100 100 100 100 100 98 100 98
40 30 54 77 100 91 77 77 43 52 41 36 56 54 61 40 28 26 26 28 47 50 60 76 92 78 98 74 86 83 73 82 88 100 100 100 100 100 100 98 95 95 100 100
45 34 38 64 73 99 92 100 72 64 54 35 40 50 65 45 28 26 24 26 28 47 52 78 74 87 79 86 71 87 91 91 100 100 84 71 72 76 100 100 100 100 100 100
86 50 30 39 59 70 99 100 96 75 62 39 46 66 87 47 29 28 28 28 27 26 46 48 51 60 95 100 72 74 58 68 60 63 87 100 100 100 100 100 100 100 100 100
99 80 53 61 61 59 61 61 100 90 75 57 44 88 72 66 41 27 26 27 27 27 30 40 48 63 66 79 100 97 64 56 56 50 64 75 85 82 96 94 96 83 90 97
100 100 85 49 42 42 54 78 85 66 99 84 42 63 65 80 56 44 43 26 29 27 26 30 38 50 51 74 74 98 100 100 95 68 92 100 90 89 100 97 93 100 88 100
75 69 79 68 49 33 49 98 62 88 100 99 46 47 94 72 69 65 58 54 43 29 27 26 25 32 40 51 58 62 71 85 96 100 100 100 100 100 100 95 85 74 86 86
95 74 70 49 44 55 59 90 100 100 100 100 70 50 46 73 50 74 75 70 64 52 28 30 29 27 33 35 44 50 63 80 83 91 86 84 94 86 78 68 65 61 56 87
100 100 100 87 80 91 88 68 76 100 100 100 74 61 52 51 52 52 79 95 73 53 55 30 28 31 28 27 38 43 45 53 60 72 77 90 80 87 86 70 49 48 70 94
100 100 92 87 75 80 79 77 100 100 100 100 91 99 67 51 58 57 68 96 82 67 58 51 30 30 30 31 26 28 41 48 52 65 82 83 89 76 87 80 81 70 85 100
100 84 100 100 100 100 92 95 100 100 100 100 99 96 65 55 58 50 49 100 100 87 80 56 53 39 38 32 35 33 29 30 41 54 59 61 67 79 98 100 100 100 100 100
79 77 100 94 100 100 98 85 97 83 98 92 100 100 94 71 60 58 48 97 100 100 79 78 75 67 48 44 39 39 35 35 38 41 43 53 72 92 98 100 100 95 100 100
100 96 94 100 100 100 100 96 100 100 100 100 100 100 100 94 74 62 52 48 85 100 100 94 91 70 39 44 50 44 41 48 46 51 60 89 100 100 100 100 100 100 100 100
100 100 100 77 100 100 100 91 92 100 100 100 100 100 100 100 88 71 59 48 58 100 100 100 100 82 39 59 58 55 38 49 53 62 52 51 71 77 82 88 96 99 93 90
100 100 100 86 72 96 100 100 99 83 98 100 100 100 100 100 99 97 90 66 57 98 100 100 100 73 54 62 95 74 48 44 57 46 49 60 57 56 51 47 47 45 45 43
95 100 100 100 89 89 86 94 100 100 100 100 100 100 100 100 100 100 95 69 59 54 89 100 83 92 92 93 97 77 73 58 69 54 46 52 61 72 82 77 82 82 77 75
93 100 80 99 100 98 100 86 100 100 100 100 100 100 100 100 100 100 97 78 78 68 62 87 100 100 98 91 100 100 81 59 75 45 43 69 77 58 72 79 72 84 94 93
44 57 89 81 70 92 100 100 100 100 100 100 100 92 84 94 100 100 100 89 92 100 77 55 100 100 100 100 100 84 50 81 66 49 49 40 53 52 47 50 52 67 71 83
32 36 43 59 69 79 86 100 100 100 100 100 100 100 98 100 100 100 100 100 82 90 98 91 73 100 100 100 100 94 92 92 86 71 62 57 57 46 46 54 65 79 100 100
23 24 25 27 35 52 72 85 96 85 85 94 100 100 100 100 100 100 89 85 99 80 81 100 94 100 100 100 100 100 100 83 66 72 78 73 69 71 71 74 80 90 100 100
13 12 15 19 24 33 41 48 70 84 60 78 93 98 98 96 98 100 100 95 92 83 83 89 100 100 100 98 100 100 100 77 69 72 93 92 96 95 91 100 100 100 100 100
15 11 11 13 20 23 28 34 48 54 51 53 60 70 86 86 83 92 98 93 92 89 92 85 97 100 100 100 100 100 92 76 86 100 100 100 100 94 99 100 100 100 100 100
15 12 11 13 14 14 23 27 36 42 52 48 53 56 52 49 57 64 79 79 84 86 85 93 94 99 100 100 100 100 100 100 100 100 100 100 99 100 100 100 99 99 100 94

GFSCGP_250_rhum_060.txt.gz
RH
78 99 68 45 87 56 66 45 27 30 28 29 29 23 30 36 27 25 26 44 52 50 59 47 77 90 100 100 99 92 87 76 86 94 100 100 97 88 66 63 87 100 100 100
63 100 64 60 97 64 64 60 30 34 27 38 35 25 38 45 31 26 21 25 42 56 73 67 45 72 82 85 93 99 82 79 66 60 57 69 65 64 71 72 69 67 88 99
78 100 65 64 90 88 60 57 33 39 33 47 42 32 28 49 32 27 25 23 31 46 62 71 53 58 49 56 80 83 89 74 68 64 60 49 41 41 42 92 91 84 96 100
97 100 67 47 69 79 80 46 57 57 48 53 52 36 28 52 42 27 26 25 22 37 48 52 51 59 61 64 65 61 68 75 70 62 52 49 60 58 62 59 100 100 100 100
100 100 65 29 63 70 71 56 69 69 88 63 67 41 34 33 59 30 25 27 25 23 41 45 48 58 81 85 94 68 56 56 46 47 48 47 61 83 100 100 100 100 100 100
96 100 70 50 92 52 63 85 95 74 99 100 78 50 52 34 50 40 32 26 26 25 24 37 49 68 90 92 100 100 84 64 55 70 90 84 74 99 100 100 100 100 100 100
100 100 93 58 53 37 46 60 70 85 100 100 90 70 87 41 45 48 44 44 41 26 26 26 31 46 70 87 77 89 96 100 100 81 69 91 98 100 100 100 100 100 100 100
100 98 98 74 58 34 31 26 51 69 84 100 95 93 76 55 47 46 45 53 57 50 27 26 28 27 40 51 89 91 60 54 63 79 79 74 83 94 95 100 100 100 100 99
100 100 100 100 99 65 50 33 37 31 51 100 100 100 100 66 39 44 39 53 66 48 44 40 28 27 30 35 48 67 98 85 64 63 56 54 54 58 67 81 72 65 64 53
100 100 100 100 86 76 56 54 41 48 44 100 79 100 100 83 57 46 56 36 50 67 53 42 31 27 27 32 35 40 53 67 97 100 97 84 49 45 64 88 81 71 75 84
100 99 92 98 58 85 84 73 65 69 62 60 100 100 100 99 81 67 56 42 37 48 67 56 47 40 26 27 27 35 37 43 48 69 89 100 100 100 100 100 100 94 87 89
62 61 100 100 82 93 83 64 56 45 66 60 100 100 100 100 79 88 69 63 49 43 58 85 68 50 46 27 29 30 28 40 40 44 57 66 73 74 73 67 69 75 74 87
100 100 100 100 100 86 60 69 89 62 98 100 98 100 100 91 100 85 64 74 64 68 50 82 86 64 56 47 36 30 32 30 30 41 44 49 55 57 56 63 74 76 78 70
76 100 100 100 100 95 65 70 66 62 54 87 82 100 100 84 98 100 74 65 77 100 89 73 98 80 78 64 53 40 27 32 31 33 34 42 47 51 56 62 60 70 79 100
100 85 83 100 92 66 62 95 78 52 71 63 83 95 100 99 98 100 100 85 69 100 78 92 100 98 92 85 84 61 38 27 36 30 31 35 36 40 48 47 55 66 90 100
100 100 100 100 100 100 100 100 100 100 85 44 79 100 100 100 100 100 100 100 75 75 99 100 93 100 98 93 97 82 63 50 52 41 37 38 46 47 49 61 73 70 88 100
68 81 92 99 100 100 100 100 100 80 100 100 77 76 100 100 100 100 100 100 98 83 100 96 62 98 94 99 100 100 100 89 79 56 45 41 46 52 65 65 67 59 56 61
93 92 93 99 100 99 100 100 92 90 100 95 100 98 90 100 100 100 99 100 100 100 88 85 57 53 98 100 100 100 92 97 100 72 68 64 49 46 42 46 59 62 58 59
64 70 74 66 60 58 57 97 100 100 100 94 88 94 87 100 100 100 100 100 100 100 99 81 72 63 80 93 100 100 100 98 100 88 95 86 52 56 42 44 40 44 52 62
100 100 100 100 99 79 95 81 84 66 82 100 98 100 96 63 88 99 100 98 100 100 95 100 86 69 61 100 100 100 100 98 70 88 100 94 66 44 56 51 63 55 54 54
100 100 97 78 100 100 100 100 100 100 100 100 97 74 100 100 82 70 100 88 93 100 100 100 100 100 90 76 94 76 88 93 86 100 100 92 81 78 67 92 76 59 74 78
92 88 81 69 67 98 100 100 100 100 100 100 88 70 92 100 100 100 100 100 100 100 100 98 100 100 100 100 96 100 95 82 99 100 100 100 100 100 94 72 68 88 80 82
44 48 54 52 61 62 76 96 100 99 92 100 100 100 100 100 100 100 100 100 100 100 100 91 88 100 100 100 94 100 100 87 74 70 87 100 100 100 98 96 75 76 84 70
27 28 28 28 31 30 34 47 59 74 90 81 85 80 92 100 100 96 100 100 100 100 100 100 100 100 85 80 100 90 87 98 100 100 100 95 87 99 100 100 100 100 100 99
19 21 23 24 24 23 25 25 30 32 36 51 67 84 93 85 83 86 90 94 98 100 100 100 100 100 100 98 97 100 100 98 100 100 100 100 100 100 100 100 100 100 100 100
16 18 16 15 14 17 21 18 21 25 27 29 37 52 70 80 67 72 75 75 71 82 87 88 93 93 100 100 97 98 100 100 100 100 100 100 100 100 100 100 100 100 100 100

GFSCGP_250_rhum_063.txt.gz
RH
84 58 70 53 56 71 37 50 64 68 38 25 38 34 36 36 25 24 24 23 22 36 30 46 78 92 98 100 100 100 100 100 100 88 100 100 100 98 77 96 100 100 100 100
81 75 81 42 94 79 44 53 48 57 43 30 43 42 34 39 31 23 23 23 22 24 33 31 41 68 84 91 100 100 100 99 100 100 100 100 100 91 100 80 76 77 62 67
100 95 72 42 92 96 46 58 41 47 53 40 44 51 37 40 36 26 23 25 24 23 27 35 36 33 62 75 78 82 86 96 97 93 100 95 97 97 95 91 88 89 75 59
100 100 83 52 96 100 59 28 65 87 52 48 58 59 51 40 40 37 31 27 36 24 25 29 38 41 40 58 78 77 85 82 83 86 88 96 83 75 69 59 62 61 54 61
100 100 100 65 100 97 80 47 92 89 82 52 68 72 83 50 48 42 36 38 45 30 25 26 34 39 39 45 48 70 75 76 70 73 71 76 86 80 66 63 64 72 64 73
94 100 100 90 81 100 100 49 79 78 61 74 61 89 93 75 64 39 42 37 38 43 35 26 28 35 44 50 56 71 69 60 63 71 69 65 63 70 79 74 73 77 76 88
95 100 100 100 92 100 100 37 57 70 91 100 65 100 96 75 69 52 34 43 40 44 34 37 25 27 34 57 72 59 58 80 88 88 86 100 86 77 78 84 100 100 100 100
98 95 100 100 100 100 100 31 26 62 69 84 73 100 99 77 75 85 39 40 38 40 52 50 39 29 26 34 51 80 76 76 89 85 75 80 91 94 100 100 100 100 100 100
100 100 100 100 100 100 88 40 42 34 33 49 57 100 100 93 82 95 60 40 41 40 33 44 55 39 27 25 29 39 94 93 72 65 72 70 84 95 99 98 99 100 100 100
91 96 95 98 97 98 98 64 43 33 46 65 56 63 100 100 96 94 92 54 41 42 41 36 56 62 42 28 26 28 37 62 98 100 93 67 70 71 66 55 52 55 69 69
96 82 77 68 78 96 100 99 88 62 62 69 73 71 92 100 100 100 100 97 61 47 44 41 40 61 56 46 33 33 27 28 35 42 62 89 97 79 71 59 56 56 63 94
100 94 95 96 89 92 94 97 83 94 92 91 96 100 100 98 100 100 100 91 81 60 51 56 46 47 57 52 52 42 37 27 27 28 36 36 42 63 86 85 83 90 85 82
100 100 90 100 100 90 100 100 98 92 80 95 99 100 100 96 52 97 91 100 100 83 62 64 64 69 62 57 61 65 60 50 33 27 28 30 34 40 41 54 67 70 71 86
99 98 100 100 100 100 100 98 52 56 72 61 64 78 100 100 81 81 100 95 100 100 98 86 46 57 98 81 50 68 77 63 58 38 36 31 30 32 34 39 42 45 46 59
93 96 77 92 98 100 70 53 32 53 73 52 62 45 78 99 99 76 76 100 100 100 100 100 73 60 90 100 84 60 66 73 72 62 46 50 42 33 32 34 36 43 48 48
76 89 98 100 87 60 99 100 100 100 100 90 84 45 42 67 100 100 88 100 100 100 100 100 100 100 56 62 100 89 96 72 91 92 69 57 62 47 44 33 32 33 38 39
92 87 98 100 100 100 100 100 100 100 100 100 70 53 58 48 67 61 53 61 49 99 100 100 100 100 84 54 52 98 99 99 100 84 70 62 79 70 57 57 50 34 33 35
92 89 86 96 100 100 82 73 80 86 78 57 90 100 100 100 95 98 62 85 90 65 69 100 100 100 100 96 80 62 53 62 100 100 96 66 63 80 72 66 66 59 50 43
89 68 71 79 79 92 100 100 100 100 100 98 100 100 100 100 100 100 100 84 85 98 88 73 100 94 100 100 99 100 84 73 71 100 100 98 71 100 61 74 99 94 83 74
90 78 95 91 65 82 100 100 100 100 100 100 100 100 100 94 99 86 100 100 100 100 100 100 100 100 100 100 100 100 99 100 82 56 100 100 96 100 100 100 100 100 100 100
100 100 82 92 82 86 89 85 85 83 88 82 78 66 68 72 77 86 100 100 92 97 100 100 100 100 100 95 88 92 100 100 95 76 64 63 100 84 85 99 100 100 100 100
82 91 96 95 94 83 75 76 83 86 77 66 63 65 58 76 100 100 100 100 99 88 93 94 96 100 100 92 94 100 94 100 100 100 100 94 83 100 100 100 93 92 100 100
100 99 99 90 83 74 85 80 70 72 77 76 68 77 73 64 62 72 91 100 100 100 100 100 100 99 100 100 100 100 98 100 94 83 100 100 100 100 100 100 90 98 95 100
90 86 88 98 100 100 100 100 100 100 100 100 100 99 100 100 100 100 72 74 98 99 100 100 100 100 100 100 100 100 100 100 100 100 100 100 100 81 76 98 94 100 100 100
60 72 76 84 89 89 81 75 78 94 97 97 100 100 80 91 100 96 100 100 99 92 88 100 100 100 100 100 100 99 100 100 100 100 100 100 100 100 100 100 100 100 100 100
32 35 36 40 41 41 41 44 44 48 58 72 73 69 66 77 73 69 60 56 65 80 86 98 98 98 99 100 100 100 100 100 100 100 100 100 100 100 100 100 100 100 100 100

GFSCGP_250_rhum_066.txt.gz
RH
35 32 74 100 62 44 51 67 64 33 82 68 51 36 40 37 29 25 23 21 22 21 36 53 89 91 93 97 100 100 100 87 100 100 100 95 100 100 98 100 88 93 100 100
32 49 100 86 58 54 58 68 66 34 90 76 72 42 47 40 35 32 28 25 20 21 21 32 71 84 86 96 98 100 100 100 100 100 100 97 84 100 98 80 75 73 92 100
64 100 100 92 64 60 68 82 60 38 100 95 69 45 55 50 42 37 34 32 24 20 20 22 33 39 69 68 81 94 100 100 99 100 100 99 100 87 100 97 93 75 55 52
88 100 100 94 76 64 79 76 41 38 100 100 72 44 53 64 52 48 36 32 32 25 20 20 27 32 36 47 63 85 92 82 100 100 100 99 100 100 93 77 99 100 94 82
81 100 100 100 100 73 99 42 51 45 100 100 79 47 61 74 84 61 42 30 29 36 23 21 22 30 36 44 47 67 72 80 80 80 80 96 83 93 100 100 96 100 100 91
94 100 100 100 98 82 91 42 81 62 79 100 79 62 60 71 85 78 53 48 29 35 31 23 22 23 30 37 38 38 49 66 82 78 89 75 76 83 80 79 82 86 90 78
92 100 100 100 96 98 89 68 100 75 69 100 56 77 69 92 85 79 70 54 34 27 32 32 36 27 23 29 38 47 56 69 64 71 79 78 77 76 70 71 67 74 73 68
78 95 100 100 90 100 100 100 100 76 42 81 86 100 86 100 81 84 61 66 43 35 29 31 28 35 27 23 27 43 58 66 98 92 71 76 94 100 82 82 93 100 100 100
93 100 100 100 100 100 100 100 100 71 47 54 78 100 100 100 100 100 79 46 62 44 39 36 30 33 43 30 24 25 36 53 69 81 94 95 83 99 100 100 100 100 100 100
99 94 100 100 100 79 100 100 89 54 37 70 90 100 100 72 76 97 100 66 76 73 45 45 42 36 30 42 37 30 26 28 61 72 76 84 80 68 70 82 99 100 100 100
100 100 100 100 100 91 77 100 100 79 59 86 86 100 100 57 57 54 92 100 96 100 74 60 51 45 43 34 37 41 41 28 27 34 77 99 97 91 79 75 80 86 84 68
100 99 100 100 100 91 67 85 89 96 59 54 52 86 100 100 90 78 59 100 100 100 92 95 67 61 48 51 47 31 39 44 42 27 27 29 35 53 81 96 91 92 84 94
100 89 95 100 100 100 81 98 100 100 100 100 100 100 100 100 100 84 64 38 68 93 94 100 100 76 68 42 53 63 36 35 44 42 37 29 28 29 29 34 38 43 72 85
100 100 100 93 99 100 93 82 79 96 100 100 100 100 100 100 100 98 89 67 44 31 38 68 100 100 88 55 45 72 79 54 39 37 52 46 34 39 35 30 29 30 33 40
100 100 100 100 99 82 90 80 75 90 92 99 97 93 100 100 100 100 89 99 98 71 53 66 84 100 100 100 50 46 61 86 82 55 46 58 53 31 38 39 36 41 33 31
100 100 100 100 100 100 100 97 66 71 78 100 81 69 51 98 100 100 100 69 86 75 84 70 65 58 79 100 96 55 28 50 92 71 70 79 66 55 46 43 48 48 34 40
100 98 100 100 100 100 100 100 99 62 63 100 90 90 55 55 96 100 86 79 62 68 71 84 78 67 58 46 77 99 75 47 60 90 93 80 97 91 49 47 60 74 66 46
100 100 100 100 84 100 100 100 100 98 100 84 65 61 42 54 91 89 93 71 89 48 49 68 46 74 98 97 100 73 85 96 93 75 65 53 61 84 90 55 88 64 56 57
100 87 100 100 98 91 84 99 84 89 87 80 64 63 100 100 100 100 100 92 92 100 95 63 62 57 64 79 92 100 82 84 59 47 80 89 58 72 69 100 100 100 89 93
88 82 92 100 100 100 100 98 94 79 91 94 79 81 76 99 100 100 100 73 100 100 100 100 100 96 74 97 100 100 100 100 100 82 61 100 100 90 80 99 96 82 85 99
84 98 98 100 100 100 100 100 99 91 85 72 85 86 90 80 79 76 68 88 90 98 100 100 100 100 100 100 96 95 100 100 100 100 100 86 80 82 100 100 100 100 100 100
67 66 81 92 92 78 78 70 85 86 87 93 100 100 100 100 100 100 92 88 96 100 100 100 100 100 90 100 99 100 100 100 100 100 100 100 100 100 100 84 100 100 99 100
98 81 81 76 80 74 77 98 100 93 73 77 84 77 83 76 86 100 100 100 100 100 100 87 85 94 97 100 100 95 96 98 100 100 100 100 100 100 100 100 100 100 100 100
100 94 90 93 97 89 94 92 92 82 95 100 99 94 83 88 78 68 62 62 54 54 52 72 75 100 100 100 100 100 91 85 88 96 100 100 100 100 100 100 100 100 100 100
96 98 93 87 90 93 99 100 100 98 98 93 93 95 86 75 69 68 72 94 79 67 65 72 100 100 100 100 100 100 100 100 97 100 100 100 98 77 75 94 96 100 100 100
81 86 89 86 90 80 82 95 97 100 100 100 98 93 91 72 71 75 74 77 78 91 100 80 92 99 100 100 98 95 82 78 86 100 100 100 100 100 100 100 100 100 100 100

GFSCGP_250_rhum_069.txt.gz
RH
34 30 30 38 56 47 36 40 100 95 52 45 52 39 44 40 42 38 29 27 27 20 20 28 53 98 67 86 100 100 100 94 94 95 99 100 100 100 100 100 71 100 100 100
42 32 36 61 93 45 27 76 100 88 46 63 51 54 56 38 46 42 38 30 30 26 21 20 31 89 92 74 92 100 99 100 94 92 100 88 100 100 100 100 100 82 50 96
30 42 44 100 96 47 41 99 100 72 49 74 57 62 63 49 50 47 45 29 32 30 23 21 22 35 82 83 71 91 92 91 100 82 91 96 100 100 100 99 99 88 90 76
33 61 82 100 100 66 65 100 100 60 50 88 81 63 38 49 55 57 56 43 32 35 26 22 21 22 58 75 82 76 95 99 92 100 100 100 98 87 92 100 91 95 78 62
44 86 100 100 100 80 99 91 100 60 54 99 100 54 39 61 49 79 73 55 39 30 31 28 29 23 21 36 63 81 64 81 93 88 86 100 85 100 92 83 90 94 87 81
88 66 96 100 100 80 97 79 100 55 78 99 100 68 45 74 51 64 88 71 55 34 28 29 29 30 23 22 33 37 67 70 71 79 91 99 100 81 89 85 91 64 92 97
82 92 100 100 100 94 92 87 98 58 95 100 99 71 71 64 66 61 74 87 56 47 31 32 26 27 30 23 23 34 36 34 43 67 76 77 83 90 87 86 86 86 95 88
88 98 100 100 100 100 100 100 100 82 100 100 76 52 65 52 93 69 61 85 73 44 45 31 27 25 27 30 25 24 33 40 40 41 62 75 74 63 72 74 87 81 86 86
92 100 100 100 100 100 98 95 100 85 95 100 76 79 48 82 100 91 80 63 80 70 56 53 37 32 27 28 29 27 24 31 46 64 67 78 72 64 59 73 91 76 87 82
100 98 100 100 100 100 100 100 100 78 78 100 100 100 60 91 100 100 100 100 100 96 56 61 54 47 34 33 32 29 32 24 24 30 56 66 67 78 87 85 94 100 100 100
100 100 100 99 100 100 100 100 100 100 97 100 100 100 100 66 63 77 96 95 75 97 99 46 98 78 65 48 33 35 34 35 34 24 24 43 82 82 68 66 62 66 84 100
100 100 100 86 100 100 100 100 100 100 100 100 100 100 100 58 45 42 76 57 38 45 100 100 100 54 99 92 61 29 37 43 32 32 33 27 25 28 39 74 94 98 69 65
100 97 100 87 90 100 100 100 89 97 100 100 100 100 98 97 80 54 77 56 47 42 40 61 100 100 100 100 100 62 31 39 58 41 35 34 51 29 25 27 30 34 48 63
100 93 100 77 90 100 100 100 93 93 100 100 100 100 100 100 100 88 60 59 49 40 40 34 35 34 47 60 99 100 87 36 39 59 68 50 51 61 44 31 31 27 28 30
100 100 96 98 94 100 100 100 84 95 100 100 100 100 100 100 100 100 100 100 74 46 47 48 49 41 38 33 61 86 100 98 66 32 32 62 57 50 66 57 59 45 41 42
100 100 100 100 85 95 100 100 100 100 100 98 100 100 100 100 100 100 100 100 100 95 55 48 59 56 41 51 50 47 45 62 98 100 63 29 46 55 42 67 100 67 60 38
88 99 100 100 100 100 66 98 100 100 100 94 100 100 100 100 100 100 100 100 100 100 67 61 58 63 65 55 49 59 44 33 46 99 100 97 63 46 66 45 44 91 100 53
76 93 100 100 100 100 100 99 82 92 93 94 93 93 93 100 100 100 100 100 100 97 87 78 71 57 51 41 39 58 37 40 38 65 96 100 100 100 92 88 100 59 55 93
86 100 100 100 100 100 100 100 99 100 98 65 76 79 92 84 84 97 100 95 100 83 63 98 74 61 75 78 56 47 40 35 42 47 46 54 84 100 100 92 89 100 99 80
98 100 100 100 100 100 100 100 100 100 100 100 100 87 74 60 68 79 95 77 76 65 95 100 100 100 100 100 99 80 74 70 54 53 47 49 43 46 62 72 71 74 99 100
100 100 100 100 100 100 100 100 100 100 100 100 100 100 100 95 74 74 93 83 65 99 100 100 100 100 100 100 100 100 89 86 77 94 79 70 93 88 74 67 64 55 58 50
85 100 90 97 100 100 100 100 100 99 71 80 72 94 98 97 87 99 94 88 74 63 79 100 100 100 100 100 100 100 100 100 100 99 100 87 81 95 88 100 100 100 98 96
99 100 100 100 95 99 100 98 82 92 100 100 97 100 84 71 86 88 78 92 88 89 100 100 84 81 77 100 100 100 100 100 100 100 100 95 84 96 100 100 100 100 100 100
100 100 100 100 100 100 100 100 98 96 100 100 100 99 100 99 93 70 71 72 80 81 88 100 100 100 100 100 100 100 100 100 100 98 84 95 100 91 87 85 85 73 65 85
99 100 92 100 100 100 94 98 94 95 96 92 92 85 86 84 73 70 66 76 72 70 73 82 78 84 89 98 100 100 100 98 88 64 73 100 100 100 100 100 100 100 100 100
100 98 96 89 87 93 96 98 92 97 93 86 86 86 82 74 80 95 84 76 68 72 66 71 82 83 71 60 61 59 62 62 61 57 92 100 100 100 100 100 100 100 100 100

GFSCGP_250_rhum_072.txt.gz
RH
16 14 16 20 26 28 34 40 60 49 42 34 68 78 43 54 37 38 41 35 26 24 25 20 19 47 79 81 98 100 100 100 100 100 99 97 86 100 100 100 86 100 100 93
15 19 26 24 34 34 36 46 56 38 50 55 96 80 47 55 41 43 41 41 29 27 24 20 20 18 69 100 66 98 100 74 100 92 100 100 100 100 100 100 61 85 73 69
18 25 24 26 37 33 43 51 53 60 85 98 95 78 57 49 49 43 47 46 35 32 24 24 20 18 22 76 78 88 88 99 66 72 92 96 93 100 100 100 99 54 63 70
22 26 25 39 40 43 45 100 99 100 100 100 100 87 60 48 60 42 49 54 47 30 29 28 30 24 19 24 95 76 94 92 100 48 76 91 100 100 96 100 100 100 100 100
28 25 29 44 39 52 96 100 100 88 100 100 100 85 64 49 67 45 48 65 61 31 31 28 28 27 23 21 31 95 96 94 100 100 69 57 89 98 99 100 100 100 100 100
33 40 58 65 64 95 100 100 98 84 100 100 100 84 74 50 58 51 50 61 79 44 35 30 30 25 25 22 21 25 68 97 95 100 98 100 100 79 72 85 90 84 96 92
37 53 93 74 75 100 100 100 88 88 100 100 100 80 86 53 46 88 54 51 67 58 39 35 32 27 23 27 23 22 25 51 79 88 88 96 100 100 100 89 85 82 66 59
99 85 100 100 100 100 100 100 92 98 100 100 100 79 98 55 39 100 88 54 60 66 51 44 40 37 29 23 25 24 23 23 32 48 82 86 84 83 84 96 100 99 98 87
100 96 93 100 100 100 100 99 100 100 100 100 100 88 88 70 43 94 100 70 68 69 67 56 50 46 39 38 25 27 24 26 23 30 34 42 57 61 67 72 83 80 83 78
100 98 100 100 100 100 100 100 100 100 100 100 100 97 100 96 59 58 92 80 94 93 65 57 56 46 49 60 36 29 30 30 29 24 25 28 36 39 44 52 65 69 78 82
100 100 100 100 100 100 100 100 98 100 100 100 100 100 100 100 80 60 77 100 100 81 100 100 100 98 45 96 58 61 56 29 34 31 28 26 28 40 51 62 65 67 68 67
100 100 100 99 100 100 100 100 100 100 100 100 100 100 100 100 97 76 70 72 100 100 100 94 65 100 100 100 73 100 99 68 27 34 31 29 33 33 27 28 39 53 76 79
100 99 100 99 100 100 100 100 100 100 100 100 100 100 100 100 100 100 86 71 58 63 58 39 30 37 82 100 100 100 93 100 62 34 38 46 32 37 49 36 29 29 28 29
100 100 100 96 95 100 100 100 100 100 100 100 100 100 100 100 100 100 100 67 45 59 73 48 42 37 32 32 41 42 43 78 100 94 53 39 38 37 44 45 62 65 50 42
96 100 100 100 99 100 100 100 100 100 100 100 100 100 100 100 100 100 100 93 59 50 43 44 45 40 40 39 33 36 36 34 84 100 100 93 61 40 31 35 41 36 54 68
93 100 100 100 100 98 100 100 100 100 100 100 100 100 100 100 100 100 100 100 100 97 89 60 57 52 38 32 26 26 37 35 32 33 34 38 47 100 78 47 36 56 64 90
100 100 100 100 100 100 91 88 91 100 100 100 100 100 100 100 100 100 100 100 100 100 94 94 80 60 46 41 38 37 49 46 40 37 33 31 28 32 83 100 83 56 63 73
100 100 100 100 69 81 100 78 90 100 100 100 100 100 100 100 100 100 100 100 100 100 100 100 100 100 89 83 63 48 50 50 40 36 30 36 34 27 31 54 95 100 100 98
95 100 100 100 100 100 100 94 86 91 100 100 100 100 100 100 100 95 100 100 100 100 100 100 100 100 100 99 85 64 49 50 49 61 59 46 35 35 29 34 41 47 64 79
91 94 100 100 100 100 100 90 100 93 92 100 96 98 100 100 98 100 100 100 100 100 100 100 100 100 100 94 80 62 75 63 56 51 50 46 37 30 41 35 30 36 36 37
90 91 100 100 100 100 100 100 100 100 100 100 69 87 79 80 97 100 100 100 95 100 100 100 100 100 100 100 98 100 100 100 94 78 72 98 88 77 58 50 46 44 54 66
99 100 100 100 82 100 100 100 100 100 100 100 100 100 98 94 64 66 70 81 97 90 75 74 82 89 100 100 100 100 100 100 100 100 100 100 92 78 97 93 93 98 83 97
96 100 100 100 100 98 85 100 100 100 100 100 99 100 100 100 100 100 92 90 92 90 86 88 91 92 99 100 91 91 88 81 97 100 100 100 100 100 100 100 100 100 100 100
99 100 100 100 93 87 96 88 100 100 100 100 100 100 100 100 100 100 94 72 80 77 90 89 84 79 86 90 80 90 99 99 100 100 100 100 99 98 100 100 100 100 100 100
100 100 100 100 100 100 100 100 96 100 100 100 100 100 100 100 100 100 100 92 85 84 81 98 94 84 84 87 94 86 87 100 100 100 100 100 100 100 100 100 100 100 100 92
100 100 100 100 100 100 93 91 82 100 100 100 100 100 100 96 93 89 89 89 73 77 60 63 68 78 82 80 74 62 61 65 66 64 76 90 85 85 84 90 96 84 76 96

GFSCGP_250_rhum_075.txt.gz
RH
51 49 36 32 31 23 18 15 16 19 20 27 25 43 59 40 87 59 45 37 40 30 27 23 20 18 22 100 96 71 86 72 100 73 100 100 100 100 100 100 100 100 100 100
49 41 28 24 22 22 15 14 19 29 34 37 44 61 41 47 100 65 48 39 42 38 27 24 22 21 17 52 100 87 100 69 93 87 99 94 100 100 97 100 100 100 100 100
37 36 25 23 22 18 16 20 24 33 43 38 41 54 35 66 100 58 51 39 43 44 31 27 24 23 20 24 90 100 99 84 66 98 100 44 42 55 74 100 100 100 100 81
39 30 25 22 21 22 24 24 28 32 40 30 48 51 42 86 100 62 55 44 45 50 41 28 25 24 22 19 23 86 97 80 56 56 100 97 87 62 56 90 75 80 86 87
32 29 23 23 22 23 37 28 35 34 48 40 61 62 100 82 90 66 55 58 45 56 48 28 26 23 23 23 19 22 96 100 81 100 87 100 96 100 100 89 100 100 80 68
33 21 25 17 23 30 54 36 45 53 44 39 90 98 100 94 73 68 69 69 52 57 60 37 28 25 22 22 24 20 45 100 98 100 100 97 88 70 92 100 95 79 100 100
29 22 24 20 24 47 52 48 66 50 34 92 100 100 100 86 63 62 80 61 57 55 67 50 34 29 25 22 21 23 20 34 99 96 100 100 100 95 77 94 100 100 100 100
26 24 20 25 46 77 73 84 46 41 54 100 100 79 100 83 56 58 87 70 69 54 60 70 58 42 35 25 30 21 21 20 24 70 100 100 100 100 100 100 98 97 96 90
24 22 23 34 82 84 100 100 94 56 89 100 100 99 92 81 59 74 92 62 78 83 56 63 68 62 39 38 29 32 22 20 21 20 33 89 100 100 100 99 100 100 100 100
22 21 31 55 93 100 100 100 100 59 98 100 100 100 94 92 74 89 81 80 92 99 64 64 61 64 45 47 43 47 39 50 24 23 22 22 30 45 73 88 91 99 99 94
20 28 47 76 100 100 100 100 100 72 100 100 100 100 100 100 92 78 93 93 83 89 79 83 87 95 95 99 75 55 77 58 50 28 29 27 24 24 30 41 53 66 74 72
20 60 52 84 100 100 100 100 100 81 100 100 100 100 100 100 100 82 88 100 64 71 80 61 74 100 100 90 100 100 100 100 100 94 35 30 29 36 32 26 26 31 38 44
22 100 100 94 100 100 100 100 100 95 100 100 100 100 100 82 98 92 72 99 98 65 87 100 100 100 96 82 60 84 85 95 86 55 97 43 28 31 38 46 56 44 35 30
26 100 100 98 100 100 100 100 100 100 100 100 100 100 100 100 100 100 90 92 99 100 86 72 65 66 55 46 38 32 36 48 51 40 42 65 60 47 36 42 33 41 49 56
29 100 100 100 100 100 100 100 100 100 100 100 100 100 100 100 100 95 96 99 100 100 100 100 80 50 63 60 45 45 31 31 32 34 32 40 94 97 98 82 60 48 37 33
44 100 100 100 97 100 100 100 100 100 100 100 100 100 100 100 100 100 70 80 85 97 100 100 100 69 48 51 66 76 82 52 33 24 23 29 30 27 28 33 33 29 38 67
81 100 100 100 100 100 100 100 100 95 100 100 100 100 100 100 100 100 100 100 99 78 89 100 82 84 93 86 63 44 37 40 71 78 40 34 34 37 34 30 28 28 29 27
81 100 100 100 98 98 100 100 100 100 100 100 100 100 100 100 100 100 100 100 100 100 90 91 98 88 79 88 78 74 59 38 28 35 47 56 50 45 40 34 34 35 35 35
95 100 100 100 100 100 100 100 83 100 100 100 100 100 100 100 100 100 100 100 100 100 100 99 98 86 75 70 63 57 57 65 74 89 60 65 78 71 59 53 46 45 41 34
88 100 100 100 100 100 82 100 100 100 100 100 100 100 100 100 100 100 100 83 74 77 100 100 100 100 100 100 96 91 94 91 100 100 94 91 77 65 66 67 68 81 72 50
69 100 100 93 100 100 100 100 88 100 100 100 100 100 97 98 97 100 100 93 73 75 100 100 100 100 100 100 100 100 100 100 100 100 99 78 71 70 65 87 98 98 83 80
59 100 100 89 91 100 100 100 100 100 97 100 100 100 97 87 93 100 100 100 100 100 100 100 100 100 100 100 100 100 100 100 100 100 76 94 91 92 99 100 100 97 84 60
54 99 100 93 96 99 100 100 100 98 92 96 92 100 97 75 89 100 100 98 80 96 94 90 100 100 100 93 83 73 77 85 90 100 100 100 100 99 99 88 89 84 85 95
33 90 100 100 100 100 100 100 100 100 84 74 100 74 75 75 58 50 73 77 65 83 94 69 61 62 62 65 73 82 90 99 90 92 78 74 89 91 89 97 92 88 100 100
43 89 100 100 100 100 100 100 100 100 100 100 100 100 100 100 100 100 100 100 100 100 100 100 100 98 90 94 88 84 74 66 64 80 71 75 99 100 100 100 100 100 100 100
25 92 100 100 100 100 100 100 100 100 100 100 100 100 100 100 100 100 100 100 99 95 88 87 82 98 100 97 80 97 99 97 98 100 93 70 68 88 94 81 77 77 71 67

GFSCGP_250_rhum_078.txt.gz
RH
83 89 74 60 46 50 46 36 38 39 36 21 17 18 19 18 21 44 40 62 53 39 36 26 24 24 21 18 24 58 95 100 69 92 100 100 100 100 100 100 100 100 100 100
92 77 78 63 42 40 42 33 34 35 24 16 14 19 17 21 34 50 46 52 50 41 34 26 26 24 23 19 18 68 99 100 90 82 100 100 100 100 100 100 100 100 100 100
79 84 67 54 44 40 30 32 34 32 18 14 15 24 19 26 40 47 61 50 47 44 42 32 27 24 25 22 20 44 96 91 100 98 100 100 100 100 100 100 100 100 100 100
72 67 64 55 50 36 38 36 30 23 14 12 23 30 29 40 46 70 73 49 51 44 44 44 28 26 24 24 22 23 91 98 100 98 76 94 97 99 100 100 100 100 100 97
58 62 57 48 39 33 48 29 26 18 15 22 27 34 50 41 88 100 100 59 59 47 42 45 34 26 23 23 22 21 20 79 100 100 86 100 100 98 73 98 100 100 95 97
56 53 49 41 33 42 40 27 21 17 17 30 31 43 45 45 100 100 100 69 68 58 46 45 45 29 22 22 22 21 20 21 95 95 73 73 88 100 99 93 90 80 94 90
54 52 47 41 40 44 32 25 19 19 21 40 39 51 46 84 94 100 100 77 70 64 60 49 53 37 27 23 23 20 20 20 52 100 84 56 50 64 96 96 100 96 100 100
64 66 46 40 45 41 27 22 20 28 34 60 53 66 55 90 86 100 100 83 66 75 68 54 50 39 34 34 28 25 22 20 20 33 100 97 75 71 65 91 90 100 100 100
74 65 48 41 42 40 26 23 40 41 42 95 71 100 100 45 96 100 100 88 76 80 74 56 49 52 43 43 31 32 35 31 37 21 20 40 100 97 100 100 94 67 71 88
75 59 46 53 37 34 26 40 46 45 51 99 66 100 88 54 99 100 100 92 90 85 78 61 50 50 58 52 40 42 45 55 58 43 23 22 23 74 100 100 100 100 100 96
60 45 56 54 37 29 31 42 61 54 83 100 68 100 69 76 82 100 100 100 100 100 90 89 76 55 56 56 61 79 81 66 85 93 36 29 23 23 23 40 75 94 87 90
74 64 51 38 38 30 33 96 78 56 92 100 88 100 74 54 74 100 100 96 100 100 99 99 96 66 56 68 91 65 84 100 100 100 100 95 42 27 25 23 23 28 39 48
49 47 49 33 33 37 58 100 97 80 95 100 100 89 97 67 72 85 100 96 84 96 100 86 96 83 81 84 100 100 83 50 67 99 91 57 59 64 32 27 28 30 29 24
39 45 46 35 29 51 93 99 100 76 100 100 100 100 100 99 86 58 87 100 100 81 84 76 96 100 100 96 100 99 79 63 61 61 68 58 38 33 52 53 44 60 42 36
39 40 40 33 29 74 99 100 100 81 84 100 100 100 100 100 96 56 64 93 100 100 100 100 100 100 100 91 81 84 73 49 32 31 29 24 26 25 23 31 72 100 99 64
32 32 34 24 35 90 100 100 100 82 85 100 99 90 100 100 100 100 37 56 87 100 100 100 100 100 100 100 99 72 74 72 52 54 47 36 27 30 26 27 30 30 30 29
26 27 29 24 60 93 99 100 100 100 100 100 86 100 100 100 100 100 100 86 67 83 97 100 100 100 100 100 100 99 82 73 66 60 53 41 38 33 41 38 34 35 34 30
26 29 26 44 74 89 100 100 100 100 99 100 99 100 100 100 100 100 100 100 76 58 88 90 88 100 100 100 100 100 85 77 76 76 68 54 46 40 39 37 43 47 48 55
24 21 26 71 80 94 100 100 100 100 100 100 100 100 100 100 85 100 100 100 97 74 70 76 80 71 75 97 100 100 100 84 79 80 78 77 65 50 49 48 59 61 69 67
20 21 24 86 100 100 100 100 100 100 100 100 100 100 100 100 100 100 100 100 100 100 100 100 72 44 49 51 60 73 92 100 100 100 94 87 82 73 72 77 74 85 85 84
19 19 33 100 100 100 91 100 100 100 100 100 100 100 100 100 94 95 100 100 100 97 82 86 79 84 73 66 61 59 68 84 87 93 97 95 89 79 62 72 95 100 100 73
20 20 54 78 100 100 100 100 100 100 100 100 100 100 100 100 100 100 100 100 100 100 100 90 82 82 91 92 85 99 94 84 75 68 66 77 89 96 100 100 100 100 78 93
21 22 63 97 100 100 100 100 100 100 100 100 100 100 100 100 100 100 92 100 100 100 100 78 82 82 100 100 100 100 100 100 100 100 100 100 100 100 100 100 94 95 99 100
17 19 46 100 100 100 100 100 87 100 84 100 100 100 100 100 100 75 98 100 100 100 97 98 99 100 100 100 100 100 100 100 100 97 85 80 74 77 80 88 98 100 83 70
19 22 53 100 100 100 100 100 100 88 88 100 100 100 100 92 93 100 99 100 97 93 88 99 100 100 100 100 100 95 97 96 73 68 71 72 77 89 100 95 84 88 92 97
23 22 39 100 100 100 100 100 100 100 97 100 100 100 100 100 100 90 84 89 94 100 98 75 87 78 79 80 81 76 78 79 91 91 97 98 98 100 98 94 99 100 93 86

GFSCGP_250_rhum_084.txt.gz
RH
100 100 100 100 100 100 100 100 100 100 100 80 57 41 40 35 45 39 38 25 25 23 19 20 29 66 69 35 34 24 20 20 19 54 97 86 100 100 96 100 100 100 100 99
95 96 100 100 99 92 83 94 97 93 91 69 75 47 42 50 46 42 33 27 22 20 19 20 38 69 39 33 28 22 22 20 20 59 91 91 100 100 99 100 100 100 100 96
100 100 79 67 82 89 87 77 81 72 71 51 50 42 57 52 49 34 32 26 21 22 17 28 67 49 32 29 26 24 22 19 22 54 83 97 100 100 100 100 100 100 100 100
99 88 97 77 90 94 73 65 67 63 62 55 48 44 52 55 46 28 30 22 21 23 29 47 59 34 30 30 25 24 22 20 41 53 71 84 100 100 100 100 100 100 100 100
100 92 100 100 92 89 100 81 64 56 55 44 50 45 49 63 28 30 24 23 23 33 41 72 38 32 30 33 26 25 22 21 20 65 68 97 100 100 87 100 100 100 100 100
90 100 100 100 95 95 94 90 87 79 64 63 79 38 43 76 26 23 19 22 34 48 56 50 34 36 30 37 27 28 24 20 20 24 73 89 100 100 100 96 100 100 100 100
98 100 100 100 99 100 100 100 87 77 76 83 82 44 46 47 23 19 21 26 44 56 65 41 38 38 39 40 27 32 33 24 19 23 50 86 94 100 100 100 100 100 100 100
94 99 100 100 99 95 95 99 100 74 79 86 65 46 50 30 25 21 23 34 45 73 60 42 42 41 56 41 28 35 38 29 24 20 45 96 97 100 100 100 100 100 99 100
100 100 100 100 100 99 100 100 85 82 78 73 49 51 52 22 28 30 30 61 74 84 53 41 42 47 52 48 38 36 40 37 34 40 24 82 100 100 100 100 100 100 100 100
97 97 100 100 100 96 97 92 82 79 78 56 55 51 47 21 33 37 42 85 94 81 60 44 43 49 54 52 55 49 41 39 43 53 51 28 48 100 100 99 100 100 100 100
89 98 99 97 94 95 96 90 78 72 66 52 61 54 36 24 47 45 64 100 100 80 61 53 45 49 52 58 62 70 46 43 45 54 71 58 29 26 55 100 100 100 100 100
97 100 97 86 87 78 77 81 76 70 63 57 57 44 37 32 49 59 100 100 99 86 63 64 54 45 47 56 57 78 69 64 59 72 87 89 93 38 31 27 29 60 98 100
81 100 95 92 84 76 84 84 70 61 61 51 49 43 44 45 54 85 100 100 96 72 60 67 64 57 60 82 66 75 82 78 58 78 88 88 85 72 37 33 28 32 31 26
68 96 93 89 92 91 92 83 70 67 67 48 45 58 54 54 73 96 100 100 100 65 57 79 81 94 87 97 90 88 77 67 54 56 74 60 46 73 56 49 48 53 38 36
34 55 79 91 83 81 80 84 64 61 65 43 49 86 64 68 90 94 100 100 100 78 62 74 86 95 94 96 95 100 95 79 71 72 92 99 80 59 76 87 73 48 26 27
17 24 46 66 58 56 76 70 51 56 47 51 69 100 83 80 97 100 100 100 100 93 69 72 77 100 94 100 100 100 100 95 79 77 85 99 92 72 57 45 34 32 31 30
20 20 27 41 40 48 63 52 50 63 41 51 96 100 100 95 88 100 100 100 100 97 75 86 100 100 100 100 100 100 100 94 77 75 76 90 98 82 68 58 44 37 38 38
22 18 21 36 42 54 44 44 52 51 37 63 97 100 100 100 74 100 100 100 100 100 81 97 100 100 100 100 100 100 99 82 79 74 91 94 88 88 79 66 73 66 74 76
21 20 24 38 42 51 33 38 43 42 36 84 99 100 100 100 86 96 100 100 100 100 100 97 100 100 100 100 100 100 100 94 79 64 74 82 72 73 78 90 94 79 68 59
20 20 20 24 32 42 31 37 37 38 36 92 100 100 100 100 93 100 100 100 100 100 100 100 94 100 100 100 100 100 100 100 100 100 100 100 100 100 92 78 70 80 82 74
25 24 22 22 29 37 29 37 35 38 42 100 100 100 100 100 99 80 100 100 100 100 100 100 100 100 100 100 100 100 100 100 100 100 100 99 98 97 97 96 92 92 93 91
24 21 18 18 22 23 28 36 37 40 68 100 100 100 100 100 100 100 73 58 87 86 98 100 91 100 100 100 100 100 100 100 100 99 98 99 98 100 100 95 87 76 65 56
20 20 20 22 26 27 36 37 39 43 100 100 100 100 100 100 100 100 100 100 98 98 78 84 81 94 90 100 100 100 96 99 91 98 98 100 97 93 88 86 91 94 91 88
23 20 20 22 26 25 33 36 43 55 100 100 100 100 100 100 100 100 100 100 100 100 99 85 95 77 80 95 90 87 84 73 74 85 91 83 80 96 100 100 94 77 77 100
22 21 20 21 24 27 38 40 52 98 100 100 100 100 100 100 100 100 100 100 100 100 96 100 100 100 81 63 59 59 54 58 62 64 71 59 72 64 57 56 58 57 64 58
24 25 25 29 32 38 47 55 65 100 100 100 100 100 100 100 100 100 100 100 100 100 100 100 100 100 100 100 96 88 89 86 75 76 79 74 65 55 52 76 78 70 65 61

GFSCGP_250_rhum_087.txt.gz
RH
100 100 100 100 100 100 100 100 100 100 100 74 60 72 60 75 100 100 100 94 55 59 46 37 30 24 22 24 26 53 62 33 25 23 18 32 76 91 78 100 99 93 84 82
100 100 100 100 100 100 100 100 100 100 100 100 100 100 100 100 100 100 96 85 46 40 42 34 25 21 23 26 48 68 33 25 22 20 18 55 83 82 83 100 100 91 100 100
100 100 100 100 92 99 100 100 100 100 100 100 100 100 100 100 93 86 70 49 44 47 43 24 21 22 29 44 75 36 28 22 20 20 24 75 84 92 97 100 100 96 100 100
100 100 100 100 96 87 100 100 100 100 96 92 68 70 83 84 85 71 60 43 44 46 37 24 21 31 32 71 43 31 24 22 20 28 37 80 96 93 100 100 100 100 100 96
100 100 100 100 100 92 91 96 99 93 71 73 67 58 62 63 55 48 41 44 55 38 32 22 24 34 56 56 34 26 22 21 22 28 44 88 100 100 100 100 100 100 100 96
100 100 100 100 100 99 100 100 96 87 86 80 84 62 65 68 69 74 50 68 49 31 23 20 36 51 71 39 29 24 23 21 21 21 48 84 99 100 100 100 100 100 74 100
100 100 100 100 100 100 99 88 87 72 79 64 66 61 63 64 69 76 50 53 33 26 20 26 51 71 45 33 26 24 26 26 22 20 28 65 98 100 93 100 100 88 100 100
63 77 99 100 96 95 97 98 87 73 72 80 87 82 75 86 90 65 51 38 27 21 25 38 64 75 39 29 26 25 31 33 30 25 24 83 87 100 100 100 100 86 100 100
54 70 95 100 98 100 100 100 89 74 82 82 98 84 69 78 80 66 36 34 23 24 41 43 95 50 35 29 28 28 36 42 35 37 29 58 96 100 100 99 100 98 100 100
49 69 92 100 99 97 99 95 94 78 70 82 95 83 72 84 70 59 40 31 26 48 41 66 96 43 34 31 32 32 35 44 46 40 33 58 99 99 100 100 100 99 91 86
46 73 93 97 96 99 100 95 83 82 93 92 92 88 88 79 70 49 41 30 62 50 39 92 73 43 41 34 38 42 40 47 59 53 51 35 68 100 100 100 100 100 100 98
42 63 75 87 95 92 92 86 77 77 93 78 79 95 89 80 67 45 39 44 100 61 44 89 65 48 42 37 49 55 51 48 67 68 64 56 34 37 100 100 100 100 100 100
41 49 59 60 69 83 83 76 79 85 87 86 83 100 80 66 54 42 45 78 100 59 54 98 78 59 45 44 55 64 63 62 61 79 70 75 78 60 29 46 94 100 100 100
28 53 66 58 69 76 72 72 78 84 80 70 83 100 74 58 46 46 62 92 100 68 59 99 78 64 46 48 52 63 67 61 76 58 55 61 73 58 67 50 32 30 46 68
22 34 47 47 60 63 77 78 72 78 71 70 84 96 51 60 37 53 73 94 100 77 71 94 81 77 56 55 57 65 69 59 59 56 70 59 58 76 54 69 61 48 49 53
20 20 24 37 55 76 91 85 74 76 67 84 89 96 63 54 37 66 85 98 100 87 67 92 88 95 97 65 91 99 97 74 74 70 73 67 62 76 96 74 53 66 72 70
20 19 19 21 41 74 87 81 98 98 69 82 91 85 74 50 46 86 87 100 100 96 83 88 100 100 100 93 100 100 100 100 93 88 88 81 75 92 97 95 79 61 53 50
21 20 21 21 31 62 76 71 88 98 80 80 84 79 66 62 68 99 100 100 100 100 100 99 100 100 100 96 98 100 100 100 96 100 90 79 83 92 90 96 98 95 83 70
18 23 26 27 28 34 48 65 62 94 67 84 87 79 55 73 81 100 100 100 100 100 100 97 78 99 100 100 100 100 100 100 100 86 63 80 86 91 90 95 100 93 87 83
18 24 30 27 22 25 31 39 44 67 59 81 85 62 54 53 97 100 100 100 100 100 100 100 100 92 100 100 100 100 100 100 100 100 76 83 82 90 88 95 99 95 92 87
15 17 20 22 22 22 24 33 40 55 56 70 70 50 58 90 100 100 100 100 100 100 100 100 100 99 100 100 100 100 100 100 100 100 100 97 98 89 84 78 80 78 74 67
17 21 18 20 22 20 25 32 42 49 57 67 60 47 95 100 100 100 100 100 100 100 100 100 97 97 100 100 100 100 100 100 100 100 100 100 96 97 83 89 91 91 89 82
17 21 21 21 21 17 24 30 38 48 56 57 54 91 100 100 100 100 100 100 100 100 100 100 100 100 100 100 100 100 100 100 100 100 100 100 100 100 100 100 100 100 99 87
20 23 23 22 18 15 20 27 37 48 49 55 74 100 100 100 100 100 100 100 100 100 100 100 100 100 100 100 100 100 100 100 100 100 100 92 100 100 100 100 100 95 94 96
22 23 25 24 22 20 23 27 34 44 45 51 79 100 100 100 100 100 100 100 100 100 100 100 100 100 100 100 100 100 100 98 100 98 90 96 100 100 100 99 93 91 88 96
26 28 24 23 23 20 22 24 30 40 48 53 81 100 100 100 100 100 100 100 84 79 100 100 100 100 100 100 100 100 100 100 100 100 100 98 89 90 90 89 88 91 84 75

GFSCGP_250_rhum_090.txt.gz
RH
35 38 49 93 100 100 100 100 100 100 100 100 100 100 100 100 100 100 100 95 99 88 62 51 50 58 60 51 31 33 24 23 22 26 33 32 24 20 17 38 100 89 100 100
34 50 81 95 100 100 100 100 100 100 100 100 100 100 100 100 100 100 90 85 89 78 50 66 88 93 71 41 37 28 23 22 26 33 31 22 20 19 28 79 98 100 100 89
23 49 64 88 100 100 100 100 100 100 100 100 100 100 100 94 98 100 100 100 100 100 96 89 85 67 42 34 33 22 23 30 32 28 22 20 20 22 64 85 100 94 96 100
16 35 59 96 100 100 100 100 100 100 100 100 100 100 100 100 100 100 100 100 100 100 100 81 59 48 28 40 25 23 36 33 30 23 21 21 20 46 85 92 100 99 100 100
22 44 54 84 100 100 100 100 100 100 100 100 98 100 100 100 100 100 89 80 75 71 64 56 51 33 34 34 25 33 41 34 26 22 21 24 30 64 85 99 100 100 100 91
16 33 48 85 100 100 100 100 100 100 89 91 95 100 94 100 100 94 83 77 77 65 56 46 40 31 36 29 31 58 36 30 24 21 21 30 67 90 99 100 100 100 94 99
15 24 50 90 99 100 100 100 100 100 97 100 98 88 72 76 86 92 73 62 52 56 56 45 37 33 28 28 70 46 34 26 22 19 19 40 69 100 84 100 100 100 100 100
10 19 53 96 100 95 100 100 100 100 99 86 99 100 81 74 74 64 58 48 48 57 56 44 29 28 28 39 89 39 28 26 20 18 20 35 68 100 72 98 100 100 100 100
10 17 33 76 97 100 92 100 100 100 100 100 97 91 87 95 76 63 54 51 66 55 49 34 30 27 26 61 89 32 29 25 21 29 24 28 68 100 91 100 98 100 98 86
10 15 34 83 92 98 98 100 99 85 76 87 85 80 78 76 66 57 52 67 61 62 50 33 27 27 37 86 67 32 33 30 22 38 35 35 64 100 100 93 100 100 100 95
13 15 38 82 99 100 100 100 100 98 98 100 100 93 85 76 71 59 57 69 68 74 37 28 30 31 48 100 47 34 35 35 27 34 50 46 78 100 100 100 86 100 100 77
15 17 27 79 90 92 99 100 100 98 99 100 100 98 95 92 87 66 70 68 69 59 37 33 34 56 62 95 47 34 41 39 34 34 50 50 72 100 100 100 99 91 100 100
17 18 20 42 86 94 98 100 100 100 100 100 100 99 94 84 76 70 74 74 58 47 38 36 56 71 75 94 47 39 45 45 39 35 46 55 48 79 100 100 100 100 100 86
18 18 19 33 62 77 91 100 100 100 100 99 100 100 89 68 62 68 77 60 45 41 43 59 81 90 80 90 47 41 52 57 43 34 33 41 62 59 55 87 100 100 100 100
15 18 21 29 50 72 72 90 100 99 96 93 95 100 75 72 65 79 68 51 44 40 66 58 96 100 97 84 50 46 55 60 56 49 35 42 62 78 90 53 44 100 100 100
12 15 17 23 41 71 77 89 89 91 84 81 95 96 72 78 74 98 61 50 43 52 89 71 100 100 100 69 59 60 58 64 59 62 58 46 51 54 59 75 55 36 37 72
10 13 16 18 21 39 64 79 91 84 74 98 99 91 77 72 87 88 51 49 49 84 100 79 100 100 100 73 72 66 58 64 61 67 67 59 61 59 59 54 73 71 52 43
11 13 16 18 25 48 72 84 91 94 86 100 100 81 80 87 82 82 53 49 67 100 100 94 100 100 100 92 97 85 57 63 66 70 76 85 85 72 65 69 69 77 76 80
13 15 18 20 21 25 48 77 96 100 100 100 97 83 71 88 86 79 57 60 94 100 100 100 100 100 100 100 89 97 73 68 81 94 98 95 100 89 87 88 95 94 98 85
19 17 21 24 26 27 32 50 83 94 92 100 100 84 73 82 84 78 68 92 100 100 100 100 100 100 100 100 100 100 100 100 96 100 83 77 97 58 75 88 94 99 93 88
18 22 21 24 25 26 26 26 45 81 93 100 100 96 76 82 74 74 71 100 100 100 100 100 100 100 100 100 100 100 100 100 100 100 99 80 89 90 77 72 100 99 100 98
14 17 20 26 27 25 22 22 24 36 64 76 92 96 87 78 66 56 80 100 100 100 100 100 100 100 100 100 100 100 100 100 100 100 100 100 100 99 67 67 67 76 94 100
15 14 16 18 17 19 21 21 21 24 34 52 63 73 84 67 64 60 89 100 100 100 100 100 100 100 97 100 96 100 100 100 100 100 100 100 100 100 94 81 93 76 80 82
14 16 15 19 21 21 20 18 20 24 35 49 63 75 74 71 71 78 100 100 100 100 100 100 100 100 100 100 100 100 100 100 100 100 100 100 100 100 100 98 82 88 98 100
16 17 17 19 23 23 22 20 22 27 41 60 66 69 71 80 72 100 100 100 100 100 100 100 100 100 100 100 100 100 100 100 100 100 100 100 100 100 96 100 100 98 94 78
19 18 20 23 24 24 23 23 27 40 55 61 68 70 81 76 95 100 100 100 100 100 100 100 100 100 100 100 92 100 100 100 100 100 100 100 100 100 100 100 100 99 96 85

GFSCGP_250_rhum_093.txt.gz
RH
20 15 18 28 24 23 32 42 42 62 83 81 100 100 100 94 95 100 100 100 100 100 100 100 100 100 95 77 68 60 47 32 38 36 25 20 21 22 27 33 21 21 19 18
17 14 22 20 20 26 34 40 45 60 78 89 100 100 100 100 100 100 100 100 100 100 100 100 100 100 74 66 58 47 32 31 40 30 22 21 22 30 33 22 20 20 25 52
14 14 13 15 19 25 38 40 55 68 100 96 100 100 100 100 100 100 100 100 100 100 100 100 97 83 78 65 56 38 34 38 36 27 22 22 29 31 23 20 19 22 57 83
11 13 11 14 16 20 37 45 55 73 100 100 100 100 100 100 100 100 100 100 100 100 97 75 94 96 71 63 68 60 44 41 33 23 24 32 29 20 20 18 21 66 83 100
12 10 10 13 16 20 38 51 54 97 100 100 100 100 100 100 100 100 100 100 100 100 100 100 100 99 100 97 70 37 40 39 29 25 32 26 21 20 18 18 44 80 100 100
9 8 8 12 14 17 32 47 60 98 100 100 100 100 100 100 100 100 100 100 100 100 100 99 99 95 92 68 39 40 39 37 26 34 33 22 20 19 20 29 69 93 100 93
7 6 7 9 13 18 26 40 70 94 100 100 100 100 100 100 100 100 100 100 100 100 100 100 87 76 56 46 38 37 40 30 33 35 29 22 20 22 25 65 89 98 99 100
7 6 7 9 13 20 24 40 78 98 100 100 100 100 100 100 100 100 93 97 95 100 93 81 54 51 52 39 40 36 35 30 40 32 27 22 20 28 52 77 99 88 100 100
7 8 8 9 15 17 24 48 86 99 100 100 100 100 100 100 100 100 90 76 76 70 73 66 60 53 51 43 46 33 30 42 36 31 26 23 20 41 86 87 100 90 99 100
6 9 10 9 10 19 26 65 82 99 100 100 100 100 100 100 100 89 76 88 74 62 62 61 55 52 45 51 38 31 33 46 36 31 29 23 20 48 94 91 100 100 100 72
6 7 11 11 12 30 50 83 100 100 100 100 100 100 100 100 100 100 85 76 67 66 64 67 63 50 51 44 32 30 53 43 36 37 36 24 18 44 87 70 94 77 100 100
8 9 12 14 17 39 81 100 100 99 92 100 100 100 100 100 100 100 91 71 68 68 62 65 52 50 52 31 29 56 50 44 40 40 36 31 16 26 69 97 94 84 100 100
9 11 15 14 18 49 92 100 100 100 100 100 98 100 100 100 97 88 78 74 68 64 63 64 54 51 38 30 44 76 62 42 46 41 34 38 20 36 71 100 100 85 100 100
11 13 13 17 22 51 78 100 100 100 100 100 100 100 89 82 80 74 75 75 81 70 78 68 53 53 32 42 64 85 76 53 44 44 34 39 30 89 97 100 100 99 93 100
11 16 16 17 18 27 55 93 100 100 100 100 100 100 100 96 100 91 91 90 86 70 64 59 52 42 38 71 74 100 85 61 47 45 35 28 38 55 96 100 100 100 100 100
9 11 14 18 20 27 65 100 100 100 100 100 100 100 100 96 86 84 92 87 73 71 56 54 50 45 52 72 80 100 90 66 54 49 35 32 32 45 50 80 99 100 100 100
8 10 13 20 24 38 70 100 100 100 100 100 100 95 90 87 87 90 88 80 74 61 46 57 47 59 69 96 86 100 99 68 58 50 39 38 40 41 54 62 63 60 85 100
10 12 14 20 23 33 48 78 100 100 99 100 100 96 89 91 97 92 86 94 76 48 61 51 64 87 87 100 90 100 100 73 64 53 58 47 56 62 48 45 48 64 69 53
14 15 17 18 19 22 24 60 92 100 97 100 99 96 87 100 100 100 100 100 82 58 58 64 96 98 100 100 100 100 100 90 67 62 57 67 63 63 73 68 54 50 52 55
13 14 16 18 22 24 26 39 74 94 97 96 100 100 93 100 99 100 98 99 70 57 80 98 100 98 100 100 100 100 100 100 83 64 64 67 75 75 70 64 56 55 58 57
12 16 20 22 24 26 27 32 51 79 87 100 100 99 94 98 99 100 100 82 63 56 100 98 100 89 98 100 100 100 100 100 100 79 65 65 68 85 79 75 81 78 69 64
13 19 23 26 26 28 28 30 34 44 66 99 100 100 94 97 97 93 100 86 65 77 100 100 100 100 100 100 100 100 100 100 100 98 87 78 85 100 88 72 100 96 78 75
18 17 19 21 24 22 25 27 29 35 42 79 98 100 99 96 100 91 93 86 74 87 100 100 98 100 88 100 100 100 100 100 100 100 100 98 98 100 100 100 100 100 94 75
17 18 16 14 15 16 20 23 26 25 27 36 78 91 91 91 94 94 80 81 69 78 100 100 100 100 100 100 100 100 100 100 100 100 100 100 100 100 100 100 100 100 97 87
15 17 17 13 12 16 21 24 26 25 24 24 32 65 89 88 82 87 72 72 64 74 95 100 100 100 100 100 100 90 100 100 100 100 100 100 100 100 100 100 100 100 100 100
16 15 14 18 20 21 23 25 25 24 22 21 23 40 67 84 84 73 66 59 62 81 90 100 100 100 100 100 100 100 100 100 100 100 100 100 100 92 100 100 100 100 100 100

GFSCGP_250_rhum_096.txt.gz
RH
28 27 41 39 31 25 22 22 19 22 22 21 18 26 38 64 71 86 100 100 100 100 100 86 67 98 94 85 98 100 94 96 100 88 67 44 39 30 30 23 21 22 25 31
25 22 26 23 23 17 19 18 18 19 18 19 21 27 43 64 100 100 100 100 100 100 100 100 100 100 100 100 100 100 100 100 100 73 47 43 33 40 28 21 22 27 37 26
19 20 18 16 16 16 14 15 17 15 18 23 22 26 45 86 92 100 100 100 100 100 100 100 100 100 100 100 100 100 100 99 81 54 47 38 42 33 24 23 27 40 31 20
18 21 16 14 12 16 12 16 15 16 19 26 29 33 57 71 75 100 100 100 100 79 86 79 94 100 100 100 100 100 100 72 59 44 44 37 39 31 23 33 41 30 22 19
16 13 15 11 12 12 12 13 13 16 18 23 37 35 63 68 66 97 100 100 100 100 100 100 100 100 100 100 100 90 99 51 47 41 37 38 34 27 33 38 25 22 19 19
12 12 12 12 9 11 12 13 13 14 16 23 50 43 65 74 70 87 100 100 100 100 100 100 100 100 100 100 100 90 62 39 44 46 46 37 33 29 38 24 22 20 19 32
8 8 8 8 8 9 10 12 13 16 17 37 57 61 76 100 76 97 100 100 100 100 100 100 100 99 100 100 94 58 74 66 58 47 45 36 30 36 24 21 20 20 21 58
6 6 6 6 7 7 9 10 15 17 23 51 73 72 99 100 100 83 100 100 100 100 100 100 100 100 99 99 100 94 69 53 50 46 40 36 44 54 25 21 19 24 44 83
5 5 6 7 6 7 8 10 17 19 40 70 94 100 78 100 100 100 97 100 100 100 100 100 100 100 92 90 87 82 61 54 44 40 44 52 56 54 26 20 22 39 73 84
4 5 7 6 8 10 9 11 12 19 50 100 100 100 100 100 100 100 100 99 96 100 98 94 100 100 85 76 59 52 48 45 46 56 42 62 54 30 22 18 29 70 92 89
4 5 6 7 9 13 11 11 15 35 58 100 100 100 100 100 100 100 100 100 100 100 100 91 89 93 75 60 67 52 55 53 62 80 64 68 33 25 20 21 51 80 100 83
5 6 7 8 9 12 13 11 26 46 72 100 100 100 100 100 100 100 100 100 100 100 100 84 81 86 76 56 74 55 55 51 65 73 53 42 31 25 19 23 85 81 100 99
6 8 9 10 12 14 16 20 36 62 94 100 100 100 100 100 100 100 100 100 100 98 100 100 92 88 69 67 66 65 49 63 41 81 52 39 32 27 19 20 86 92 100 100
9 10 12 14 16 21 36 66 96 100 100 100 100 100 100 100 100 100 100 100 100 100 100 98 86 93 78 72 60 57 48 34 69 96 48 38 40 36 23 18 52 93 91 100
9 12 14 23 27 31 92 100 100 100 100 100 100 100 100 100 100 100 100 100 100 100 96 97 90 76 71 69 62 52 42 38 95 96 48 39 40 50 28 27 58 100 96 100
11 9 12 28 28 41 95 100 100 92 57 78 100 91 95 100 100 100 100 100 100 95 81 100 89 92 88 65 63 53 40 78 100 88 52 42 42 56 56 87 72 100 100 93
12 12 14 22 14 33 61 85 84 98 100 100 100 100 100 100 100 100 100 87 100 100 100 100 89 100 70 57 58 49 43 96 100 78 51 40 38 48 60 85 100 99 100 100
11 10 17 15 17 24 27 39 72 95 100 100 100 100 100 100 94 90 98 100 100 100 98 77 97 77 56 56 54 41 49 100 100 92 52 43 42 47 51 55 66 99 100 100
16 16 16 16 19 26 33 44 77 89 98 93 97 100 99 94 84 97 100 95 84 91 98 100 79 56 58 60 55 54 70 100 100 88 56 48 41 45 46 43 43 54 65 81
17 18 19 24 24 26 33 40 76 87 97 99 100 100 90 89 100 100 96 89 94 100 99 83 66 74 65 60 79 71 84 100 100 92 73 58 51 51 54 55 50 44 54 54
16 16 19 22 22 25 28 36 62 70 100 100 100 100 100 99 94 95 98 99 100 100 98 78 79 72 58 92 89 87 100 100 100 100 97 80 64 59 59 62 62 61 50 48
18 18 18 22 25 26 28 33 44 62 88 100 100 100 95 92 100 100 100 100 100 99 92 80 74 90 93 78 100 100 84 100 95 100 100 92 90 77 61 62 65 72 66 57
17 16 22 22 23 24 27 32 35 45 64 87 95 100 100 94 97 100 100 100 100 94 92 78 100 100 86 100 100 100 78 100 85 99 99 100 100 100 90 70 74 72 65 61
13 16 20 24 22 24 27 32 32 34 42 58 73 95 98 91 91 100 100 100 97 96 90 83 100 100 83 100 100 77 100 93 91 100 100 100 78 92 95 90 91 100 87 79
17 16 16 20 20 19 18 21 27 29 30 36 50 76 94 94 88 91 99 96 97 98 93 87 100 100 100 90 100 100 100 100 100 100 100 96 100 100 100 94 96 100 100 100
18 19 18 17 17 16 20 21 22 24 28 30 32 42 64 78 82 84 91 98 94 90 89 78 100 100 100 100 100 100 100 100 95 100 100 100 100 100 82 100 100 100 94 97

GFSCGP_250_rhum_099.txt.gz
RH
61 48 47 39 34 29 27 21 18 19 19 21 16 12 16 20 23 30 29 31 44 69 64 80 97 100 97 100 100 100 100 100 100 100 100 92 56 50 79 64 49 40 39 27
43 43 38 26 26 24 20 19 18 16 17 15 12 12 15 17 21 29 30 34 41 66 52 53 100 91 100 100 100 90 96 99 100 100 86 72 59 99 96 69 48 37 37 26
34 32 31 31 26 24 18 15 14 12 14 11 12 11 16 20 21 28 28 31 36 56 65 61 98 100 85 98 90 97 95 91 100 100 84 86 96 100 94 55 36 46 40 28
34 33 25 23 22 20 12 16 12 10 11 11 13 13 16 21 17 19 24 28 37 68 73 55 95 100 100 100 91 83 100 100 100 100 100 100 100 96 62 39 38 41 37 30
23 23 24 20 16 15 12 12 11 10 9 11 14 11 22 18 17 20 22 27 43 65 74 100 100 100 100 100 100 100 100 100 100 100 100 100 99 66 40 42 45 41 30 42
21 23 17 14 13 12 11 10 10 9 10 11 17 12 20 18 28 22 28 38 59 74 87 100 100 100 100 100 96 96 100 100 100 100 95 84 58 47 49 63 38 31 35 36
21 16 14 10 8 7 7 7 9 9 11 17 12 10 31 25 30 44 37 49 100 100 85 94 100 98 71 59 100 100 100 100 100 92 90 60 59 70 76 42 45 34 40 30
14 14 8 7 6 6 6 6 7 9 12 14 13 24 30 42 43 85 58 69 81 100 100 100 100 100 100 100 100 100 100 100 100 88 58 75 92 65 46 46 51 39 32 23
10 8 6 5 5 5 5 9 8 9 11 14 22 30 44 74 62 100 90 67 81 79 100 100 100 100 100 100 100 100 81 80 83 83 99 76 79 58 47 61 48 38 33 21
8 6 5 4 4 5 8 7 7 8 12 20 33 70 91 100 100 100 99 88 80 79 100 100 100 100 100 100 100 90 94 100 100 77 75 71 56 50 69 73 64 66 34 21
6 4 4 5 5 6 9 9 10 12 20 33 74 100 100 100 100 100 71 100 98 96 100 100 100 100 100 100 100 98 98 98 64 62 66 56 53 74 71 71 71 58 24 26
5 5 5 5 7 8 11 9 12 17 38 54 100 100 100 100 100 100 100 96 100 100 100 100 100 100 100 96 93 100 92 87 75 64 61 60 91 80 80 78 58 25 26 41
6 6 6 8 11 12 14 16 15 18 52 93 100 100 100 100 100 92 100 100 92 100 99 100 100 100 100 100 76 66 82 62 68 57 63 73 96 87 94 61 31 24 34 82
6 7 7 9 12 12 15 17 17 25 50 100 100 100 100 100 100 100 95 100 100 100 100 100 100 100 96 100 100 100 86 64 69 69 63 75 89 100 93 40 28 22 43 82
7 8 10 12 15 18 19 16 26 62 88 100 100 98 100 100 100 100 100 66 98 100 100 100 100 99 100 100 100 92 71 70 70 71 60 82 100 93 51 46 26 22 40 96
8 10 13 13 18 23 23 29 72 100 100 77 100 100 100 100 100 100 100 94 95 100 100 100 100 100 100 93 80 78 91 85 72 61 50 89 100 66 57 51 25 23 28 69
9 12 12 18 19 28 36 55 71 76 76 59 87 98 100 100 100 100 100 100 100 99 100 100 100 100 90 97 87 94 85 75 71 56 63 96 97 51 70 79 49 32 40 92
10 11 12 22 20 22 39 67 53 53 57 45 75 91 100 100 100 100 100 95 96 95 98 100 100 100 100 96 95 96 79 83 69 57 92 87 88 50 68 95 95 90 78 92
15 13 14 15 18 18 33 56 48 55 79 94 92 98 100 100 100 100 91 88 98 99 99 93 91 87 100 100 100 85 70 76 60 59 85 69 89 50 62 81 99 99 97 100
14 15 16 14 20 21 26 52 79 71 82 92 94 86 87 93 100 100 90 78 84 99 96 73 100 100 100 91 94 74 73 68 57 58 86 78 84 51 57 63 78 82 88 98
21 17 21 21 20 27 37 41 48 77 91 94 100 100 100 88 84 81 100 100 100 99 82 90 100 100 90 92 82 75 72 64 66 63 96 98 88 66 67 64 66 65 62 70
18 26 23 24 25 28 37 48 41 55 89 93 100 100 100 99 100 97 97 92 90 88 92 100 100 100 86 80 81 79 73 78 96 100 100 100 97 89 69 72 62 58 53 51
22 23 32 28 29 30 33 37 46 43 60 89 88 91 96 98 96 92 97 88 96 100 100 98 98 93 85 93 81 77 73 99 100 100 100 100 100 100 100 83 74 67 58 55
14 17 19 23 27 31 32 31 35 40 40 53 76 77 85 84 88 85 86 100 100 98 98 98 100 89 94 91 77 83 100 100 100 100 100 100 100 100 100 100 98 86 79 71
17 23 23 25 26 25 24 27 35 38 36 37 49 64 78 88 89 86 95 92 94 100 100 100 97 95 92 100 100 100 100 100 100 100 100 100 100 100 100 90 100 89 98 100
19 19 23 30 29 32 31 27 25 26 25 30 34 47 73 92 98 93 90 86 91 100 96 98 93 92 92 100 100 100 100 100 100 100 100 100 100 100 100 100 100 100 79 57

GFSCGP_250_rhum_102.txt.gz
RH
88 68 74 77 79 70 62 48 39 66 61 44 24 16 14 16 17 18 18 20 23 24 28 30 46 53 49 54 100 84 100 100 100 100 100 100 100 100 100 100 74 47 38 63
65 72 100 86 93 82 78 68 63 34 30 25 16 11 11 12 16 18 16 16 18 17 19 23 39 52 50 53 91 82 99 78 83 100 100 91 78 93 97 86 99 53 66 92
95 100 100 94 73 66 50 75 30 24 25 20 15 8 11 14 14 16 15 14 14 20 26 23 28 47 45 57 66 80 99 100 100 100 100 100 100 99 93 99 82 79 80 88
95 99 85 83 58 66 45 39 25 21 17 12 14 9 15 14 10 12 14 13 15 19 20 20 25 36 45 70 69 65 100 100 100 100 100 100 100 75 49 80 97 66 89 79
71 49 50 40 46 43 34 24 19 15 11 9 14 10 17 10 12 13 13 14 16 17 19 24 28 32 43 83 73 84 100 100 100 100 100 90 76 43 95 100 98 82 79 60
63 56 45 42 38 29 20 16 14 11 10 10 11 8 16 10 10 10 15 19 20 22 23 29 33 39 56 89 76 100 100 100 100 100 99 98 83 100 100 100 82 100 88 58
51 49 44 44 25 18 17 13 10 9 8 9 7 13 12 9 11 13 19 21 23 26 29 33 40 44 57 85 100 100 89 85 100 100 100 100 100 100 100 94 100 78 67 63
32 38 46 33 15 16 12 8 6 6 7 7 9 12 10 13 15 22 32 46 38 36 36 39 51 74 94 80 96 100 100 100 100 92 92 93 100 100 100 99 84 84 90 60
33 20 18 13 13 9 6 6 5 6 7 8 11 15 15 17 24 52 93 96 50 66 97 57 81 82 100 100 100 100 100 100 100 99 75 76 77 99 94 97 100 99 65 47
18 15 12 11 7 6 5 4 5 6 9 11 14 19 21 28 91 96 100 100 83 90 100 73 100 100 100 99 92 100 92 99 76 100 97 87 82 97 99 100 97 85 53 71
15 12 9 7 6 5 5 6 6 9 13 13 17 42 41 58 100 100 100 98 100 83 100 100 100 100 94 100 100 97 100 89 83 63 63 71 93 100 100 100 95 55 61 87
11 8 7 5 5 5 6 7 14 18 15 16 32 70 86 93 100 100 100 100 99 99 100 100 100 100 82 88 100 100 100 100 100 73 70 75 98 100 99 85 68 82 75 97
7 6 6 5 6 6 8 13 18 16 18 26 43 89 100 100 100 100 100 99 100 99 98 98 100 100 100 100 100 100 100 100 100 96 93 63 82 97 72 68 66 88 90 100
6 6 7 7 7 7 10 15 18 16 18 21 60 98 100 100 100 100 100 99 84 100 98 99 94 98 100 100 100 100 100 100 98 82 74 65 72 70 62 74 86 81 99 92
6 7 8 9 9 13 22 23 21 23 34 43 92 100 100 100 100 100 100 100 74 100 100 100 100 100 100 100 100 100 100 100 100 92 73 60 60 66 65 57 91 82 100 63
7 9 9 10 12 16 23 29 27 27 54 79 67 91 85 76 81 98 100 100 81 76 100 100 100 100 100 100 100 100 100 100 100 100 92 96 88 67 56 55 70 98 84 53
10 10 12 12 13 20 24 32 42 61 67 80 80 57 89 90 68 66 82 90 100 100 100 84 100 95 94 100 100 100 100 100 98 79 93 97 77 59 58 51 75 100 65 52
12 11 12 14 17 25 29 30 47 83 84 82 76 75 74 100 99 87 97 82 84 76 96 100 100 100 100 100 100 100 99 91 100 100 100 90 74 65 57 54 95 91 68 53
14 14 14 19 22 28 33 34 39 69 100 100 94 85 91 86 100 100 100 100 100 85 75 100 100 100 100 100 100 100 100 100 100 88 73 72 70 71 62 73 100 71 80 59
17 19 20 18 27 22 27 28 26 40 61 92 97 77 80 94 99 98 94 100 100 100 100 87 97 100 100 100 100 100 100 98 93 89 76 88 90 70 63 87 90 74 92 87
19 20 22 18 25 27 30 35 40 45 41 48 74 96 100 100 93 85 83 78 86 90 100 100 94 94 91 90 89 90 90 92 97 96 75 76 78 62 74 88 82 86 89 90
19 27 28 25 24 32 42 48 60 54 53 57 59 72 85 90 99 94 96 95 82 76 77 86 90 96 97 100 100 85 100 100 73 68 74 79 64 57 67 80 88 88 83 92
26 32 28 33 37 35 34 44 51 53 70 74 78 77 77 79 90 97 92 86 93 93 77 78 89 100 100 96 100 85 97 94 69 72 88 80 100 68 64 94 100 85 94 83
32 38 33 32 39 40 41 49 59 68 66 54 53 65 61 64 72 88 91 93 93 95 93 85 99 100 100 99 90 85 82 76 75 87 87 84 80 100 100 100 100 100 96 93
35 47 47 41 44 43 40 45 46 60 86 99 85 71 61 67 76 85 96 98 95 93 96 96 98 95 90 94 93 82 84 92 94 89 90 86 85 100 100 100 100 100 100 100
24 29 41 47 46 48 57 58 38 32 40 44 45 34 34 56 71 70 84 92 93 96 94 86 89 94 97 96 89 96 98 100 100 94 93 98 100 100 100 100 100 100 100 100

GFSCGP_250_rhum_105.txt.gz
RH
45 46 55 79 90 84 68 61 65 88 100 86 77 62 74 74 72 71 54 34 31 27 26 26 23 25 24 24 28 67 68 88 86 100 100 88 81 98 100 100 100 100 100 100
58 72 98 93 100 98 79 75 80 80 100 74 71 48 54 67 47 44 29 22 22 23 22 22 20 19 20 21 21 33 66 88 85 100 100 91 99 99 97 93 100 100 100 100
98 100 81 73 77 79 86 100 82 80 99 77 58 36 43 30 28 22 16 14 14 12 14 14 14 15 14 14 19 28 62 68 81 100 100 95 74 71 67 76 94 99 98 88
75 89 76 69 78 74 71 89 65 62 72 55 71 26 22 33 14 13 14 10 8 9 10 9 11 14 14 13 16 24 51 72 91 100 100 98 70 68 96 79 79 100 96 83
100 99 100 93 89 87 76 73 74 71 49 34 31 37 9 21 12 10 8 7 10 12 11 11 12 14 14 14 19 25 39 76 94 100 100 100 100 100 100 100 100 92 76 87
96 92 85 80 92 89 76 70 60 45 31 14 33 12 16 10 11 9 8 12 14 12 12 14 14 13 13 15 23 30 40 79 90 100 100 100 100 95 100 100 100 76 66 85
87 76 75 73 62 65 60 43 36 23 18 14 16 13 10 9 8 8 11 11 13 14 15 17 18 17 18 20 27 32 46 78 100 96 100 100 100 97 96 100 81 58 65 94
71 70 58 71 58 50 54 31 23 13 17 15 12 8 9 8 8 11 12 12 13 17 19 22 22 20 21 24 28 34 54 89 100 100 100 100 100 100 83 66 94 72 78 86
61 54 47 50 39 27 23 18 16 15 13 9 8 8 8 8 12 14 17 17 18 21 26 32 29 31 35 34 34 38 54 86 100 100 100 100 100 74 62 86 100 99 86 100
38 38 45 33 20 16 14 15 12 10 8 8 7 7 9 12 18 30 31 37 24 32 30 38 42 42 42 39 40 45 66 96 100 100 100 95 100 80 81 99 93 100 99 100
47 28 14 15 14 14 12 9 8 8 8 7 7 8 9 18 60 70 82 63 68 54 32 80 61 47 50 50 56 69 98 100 100 100 88 100 100 100 100 87 96 100 100 100
27 15 13 13 11 9 8 7 8 8 8 9 13 14 16 46 98 100 100 61 79 97 96 69 58 52 61 56 64 81 100 100 100 100 100 100 100 100 88 96 100 100 100 100
14 14 13 9 8 7 7 9 8 8 8 11 17 20 55 64 100 100 100 85 100 100 90 99 100 92 88 100 100 100 100 100 100 100 100 100 92 86 95 92 100 100 100 100
14 10 8 6 7 8 10 10 10 11 12 18 17 23 93 74 100 100 100 96 100 100 100 100 100 100 93 100 100 100 100 100 99 100 100 89 84 80 88 100 100 100 87 83
9 7 7 7 8 9 10 9 9 13 17 20 17 23 77 80 97 100 100 100 94 100 98 100 100 100 100 100 100 100 95 85 92 96 99 100 100 99 73 60 63 70 72 65
7 7 7 8 10 11 14 15 16 17 29 26 29 29 40 89 77 94 100 100 100 92 100 100 100 100 100 100 100 100 100 100 100 95 100 100 100 100 91 82 83 81 61 52
7 7 8 10 12 16 30 40 37 44 32 27 36 47 37 56 90 78 91 100 100 78 84 100 100 100 100 100 100 100 100 100 100 100 100 100 100 100 100 87 73 71 83 43
8 9 11 14 14 22 32 50 60 45 38 36 39 40 63 49 73 88 96 100 100 92 81 100 100 97 100 100 100 100 100 100 100 100 100 100 100 100 97 100 97 92 56 47
9 12 13 13 17 25 41 58 83 53 50 51 45 55 68 65 47 60 76 100 92 93 82 87 100 100 100 100 100 100 100 100 100 100 100 100 100 100 99 100 83 81 69 48
12 16 17 15 18 25 39 78 71 77 64 66 63 62 65 78 80 63 74 91 71 76 72 91 98 100 100 100 100 100 100 100 100 100 100 100 100 100 100 77 83 80 56 52
17 18 20 18 18 20 32 63 74 75 81 68 67 72 81 88 94 80 78 84 85 99 92 100 100 100 100 100 89 89 96 98 100 100 100 100 100 99 93 97 80 97 84 70
18 21 21 25 23 22 26 40 69 71 70 66 66 63 71 99 100 100 99 88 92 95 83 93 94 94 98 100 100 100 100 100 100 100 100 100 100 100 89 88 94 93 82 100
26 36 29 32 35 32 27 36 42 54 57 52 56 51 56 73 98 100 100 100 100 100 98 99 93 93 96 82 97 100 100 100 100 100 100 90 78 94 92 100 98 88 78 100
32 41 53 48 45 48 48 46 46 47 49 48 56 57 54 54 71 80 89 95 98 94 90 85 87 92 100 99 90 79 74 78 90 89 85 87 78 78 87 85 74 63 74 100
37 44 48 63 62 60 50 65 73 71 58 55 57 56 59 67 73 75 83 90 87 89 93 95 96 92 87 89 92 90 91 100 100 100 96 95 84 74 72 68 64 72 81 100
33 42 48 64 67 68 61 58 50 49 61 76 79 84 83 83 95 96 89 78 79 85 87 94 93 85 86 84 77 78 85 87 99 93 90 88 81 67 63 88 81 90 72 87

GFSCGP_250_rhum_108.txt.gz
RH
58 60 63 66 50 43 38 34 32 56 61 71 79 80 95 88 58 60 100 100 100 100 100 95 95 52 29 18 14 16 22 25 32 61 100 100 100 94 87 98 98 92 100 81
53 47 46 42 39 39 31 42 61 62 94 69 54 49 57 67 66 88 100 100 100 98 49 54 50 54 31 18 15 13 17 22 27 34 78 100 97 77 77 80 100 100 100 100
54 54 50 52 59 81 97 99 86 64 67 49 40 38 68 81 87 86 89 91 88 60 36 26 30 47 46 19 17 15 15 18 21 29 64 98 100 84 62 78 100 100 100 100
85 99 100 100 100 100 100 90 75 82 69 58 65 41 62 75 65 76 60 39 25 17 15 17 20 26 25 16 14 15 14 17 18 27 36 95 100 100 56 96 100 91 95 72
98 84 100 100 78 91 87 94 81 80 71 55 92 43 25 87 59 50 37 20 14 16 15 12 12 13 13 12 12 14 15 16 18 24 30 76 100 100 95 86 92 75 71 65
86 70 83 84 75 78 97 94 88 66 63 61 67 47 18 27 24 17 16 14 12 12 10 9 9 9 10 9 10 12 16 16 19 21 28 62 100 100 100 99 97 80 71 83
51 58 65 62 64 68 61 47 56 65 53 49 40 24 14 13 11 12 12 11 10 8 8 8 9 9 9 10 10 11 15 16 20 22 27 56 100 100 100 100 100 100 99 99
48 69 67 64 62 58 66 55 56 32 31 25 23 14 12 14 12 11 10 8 7 6 7 8 10 11 11 12 12 13 16 17 18 21 30 58 100 100 100 100 100 74 100 100
47 62 65 66 62 68 78 52 36 22 28 20 22 16 21 13 11 10 7 7 7 7 10 12 12 14 14 14 14 15 18 17 25 28 41 66 99 100 98 100 100 88 70 77
52 48 57 51 52 46 49 32 26 23 21 21 19 17 13 10 9 8 8 9 10 13 17 17 20 21 22 22 22 21 18 18 43 63 60 77 78 91 90 98 100 100 98 80
52 49 58 64 51 46 35 26 22 20 20 17 13 11 10 8 8 9 11 13 17 20 23 26 33 30 43 47 45 30 25 22 37 63 57 65 70 74 100 100 100 94 84 100
57 57 49 44 34 22 22 19 17 15 11 10 10 9 8 9 13 14 17 23 26 30 42 42 71 73 57 57 52 49 33 32 36 52 75 84 75 100 100 100 91 100 100 97
54 40 33 22 18 19 17 14 11 10 9 9 9 9 9 14 27 35 27 31 50 64 66 83 79 79 86 77 62 51 46 44 49 90 100 100 100 100 100 84 93 77 96 100
34 25 22 19 16 12 11 10 10 9 9 9 10 12 10 22 49 56 50 80 100 100 100 100 83 93 98 95 83 60 53 61 75 89 100 100 100 100 100 100 100 100 100 100
22 21 19 14 11 9 9 9 9 9 9 12 14 20 22 40 62 65 92 84 100 100 100 98 99 99 99 93 95 69 61 67 82 100 100 100 100 100 100 100 100 100 100 100
20 15 12 10 9 8 9 10 10 9 12 22 24 29 29 44 48 94 84 81 100 100 100 100 100 96 100 99 100 88 100 100 100 100 100 100 100 100 100 100 100 100 100 98
14 11 10 10 10 10 12 10 11 12 26 33 40 35 26 48 63 56 61 67 97 100 100 94 100 98 100 100 100 100 100 100 100 100 100 100 100 100 100 100 100 100 100 100
12 11 10 10 14 16 16 16 24 30 41 53 60 51 43 47 66 53 78 72 85 100 88 98 100 100 100 100 100 100 100 100 100 100 100 100 100 100 100 100 100 100 100 100
13 11 11 14 18 21 23 30 44 54 61 71 65 59 50 55 70 64 80 100 100 84 93 87 100 100 100 100 100 100 100 100 100 100 100 100 99 100 93 77 100 100 100 100
14 11 13 22 23 22 39 53 64 84 83 81 92 79 61 55 77 82 90 86 100 93 83 75 100 100 100 100 100 100 100 100 100 100 100 100 100 100 100 100 100 100 100 100
14 12 17 26 26 27 46 65 76 100 90 89 100 88 69 71 66 72 80 89 94 95 85 71 90 100 100 100 100 100 100 100 100 100 100 100 100 100 100 100 100 100 100 100
13 15 19 34 37 30 38 63 86 100 80 81 100 96 91 74 70 76 87 93 99 99 90 75 73 85 98 100 100 100 100 100 100 100 100 100 100 100 100 100 100 100 99 100
14 16 25 36 50 45 46 62 82 86 62 72 75 78 78 78 83 79 97 76 88 100 99 96 98 91 81 97 95 93 100 100 100 100 100 100 100 100 100 100 100 100 100 100
21 18 26 46 52 62 48 51 68 78 80 62 68 63 54 62 73 82 94 98 90 89 99 98 94 95 89 100 100 100 100 92 97 98 82 96 100 100 100 100 100 100 100 100
24 23 28 45 60 67 75 81 66 72 82 79 68 65 59 51 47 58 87 100 99 96 90 88 89 92 100 98 95 95 100 98 89 99 100 100 100 100 100 100 100 98 89 88
27 34 29 43 58 69 79 100 98 81 73 70 72 74 69 78 69 63 79 98 100 100 100 100 100 96 94 93 85 80 78 78 83 80 78 89 98 90 86 82 79 78 77 69

GFSCGP_250_rhum_111.txt.gz
RH
67 82 81 83 74 75 71 68 58 60 59 58 50 52 52 47 36 47 100 96 81 79 72 89 100 100 79 100 100 92 75 94 72 42 33 35 41 43 42 53 100 100 98 87
49 46 51 62 67 65 59 53 53 50 47 46 41 43 56 44 68 82 82 67 59 51 54 56 66 66 59 83 100 97 53 74 41 32 21 30 42 47 39 40 65 100 100 90
65 53 54 51 43 46 48 55 53 48 38 34 34 49 79 86 51 73 66 69 69 44 37 38 42 52 63 78 86 58 42 44 29 24 19 23 35 57 33 36 50 100 100 100
98 100 88 78 88 91 72 67 69 86 73 70 84 37 84 66 50 56 59 61 59 56 32 26 38 46 43 43 43 34 22 20 21 20 17 18 28 46 37 43 61 100 100 100
100 100 100 95 93 92 83 90 80 75 76 60 54 28 32 39 69 66 70 51 29 18 19 20 26 29 28 25 22 25 18 19 19 15 13 16 23 38 40 42 46 99 100 100
86 100 97 90 87 76 61 67 64 72 66 48 48 31 42 40 37 43 40 33 28 17 13 12 12 10 11 12 12 12 13 13 16 15 12 15 19 32 39 36 49 98 100 100
36 34 34 46 46 42 50 46 50 56 42 47 48 47 28 25 29 33 22 23 20 17 13 10 9 10 10 10 10 10 10 10 11 12 13 16 18 28 36 34 42 92 100 95
20 25 31 34 36 38 40 41 44 35 35 36 35 38 31 32 22 19 21 18 14 12 12 11 10 8 7 7 8 8 9 9 10 10 12 11 17 25 30 35 39 98 100 93
25 30 34 38 35 38 41 37 31 28 30 29 34 32 29 26 19 14 12 12 12 10 8 7 7 8 8 8 9 10 11 12 12 13 13 12 19 19 30 36 39 91 100 86
32 28 38 38 40 36 39 37 37 35 32 24 24 30 22 16 13 14 14 12 9 8 8 10 10 11 13 13 14 13 13 14 14 14 14 18 18 31 46 39 54 100 100 89
32 37 36 47 49 52 58 50 34 34 26 24 25 18 16 17 17 13 11 9 9 9 12 14 15 17 19 18 17 16 15 15 15 16 33 41 21 46 64 58 70 97 100 100
63 64 60 60 53 46 32 26 27 26 24 21 21 16 15 14 12 11 10 12 14 14 18 22 25 52 42 26 33 24 21 18 19 21 40 65 59 58 67 64 68 97 100 97
57 54 60 54 55 38 31 26 22 25 23 20 16 12 11 12 12 15 24 27 22 32 22 33 36 76 100 90 96 56 57 32 24 25 52 90 81 72 63 70 72 90 84 100
67 72 54 43 37 30 23 22 20 16 12 11 10 10 12 14 14 25 52 52 62 53 54 62 68 68 90 92 90 70 54 40 53 37 74 68 87 77 86 76 91 94 100 100
57 48 43 34 33 26 21 15 11 10 9 10 9 12 15 16 19 46 72 98 94 94 81 86 99 98 97 88 92 100 66 42 68 55 66 63 90 100 100 100 100 100 100 100
37 41 34 29 22 16 12 10 9 8 10 12 13 15 22 28 39 90 72 100 94 100 100 100 100 98 100 99 100 88 74 46 70 100 96 97 100 100 100 100 100 100 100 100
34 30 25 16 13 11 11 9 9 12 15 15 16 23 34 59 88 75 72 91 86 100 100 98 99 100 100 100 100 100 99 82 59 100 100 100 100 100 100 100 100 96 100 100
34 22 15 12 12 11 11 11 13 17 18 29 35 49 60 90 100 86 78 68 81 98 100 98 82 100 100 100 100 100 100 98 78 98 100 100 100 100 100 100 100 100 100 100
23 17 14 14 12 13 16 14 18 25 29 42 42 66 88 99 100 100 99 72 61 98 92 94 90 100 100 100 100 100 100 100 100 100 100 100 100 100 100 100 100 100 100 100
21 16 16 14 15 18 21 21 37 42 60 61 72 77 100 100 100 99 93 99 81 78 97 90 99 100 100 100 100 100 100 100 100 100 100 100 100 100 95 100 100 100 100 100
19 17 18 17 23 23 30 30 52 62 72 68 83 90 95 100 100 100 100 100 92 92 93 89 84 99 100 100 100 100 100 100 100 100 100 100 100 100 100 92 94 80 82 54
17 20 20 24 31 36 42 46 66 76 70 67 82 92 99 98 100 100 100 100 100 99 97 93 85 87 96 100 100 100 100 100 100 100 100 100 100 100 100 100 100 100 97 100
15 19 26 29 34 56 44 63 80 88 77 77 79 87 100 96 99 100 100 100 100 100 99 96 90 81 85 94 100 100 100 100 100 100 100 100 100 100 100 100 100 100 100 100
16 24 34 35 49 66 79 52 66 70 77 85 71 71 98 100 100 100 100 100 100 100 96 96 96 99 93 77 94 100 100 100 100 100 100 100 100 100 100 100 100 100 100 100
18 22 34 44 55 72 99 97 97 88 75 77 71 78 87 86 80 78 84 87 90 88 100 100 100 100 100 94 85 81 93 96 100 100 100 100 100 100 100 100 100 100 100 100
19 20 23 48 53 66 85 100 100 98 84 80 73 68 67 64 68 68 72 74 79 76 82 91 97 100 100 100 100 91 86 84 86 98 100 98 100 100 100 100 90 100 100 100

GFSCGP_250_rhum_114.txt.gz
RH
55 54 61 58 58 51 57 69 76 88 94 88 100 100 100 100 99 95 81 67 63 63 57 50 47 50 55 70 60 64 73 69 68 65 93 94 100 100 77 67 52 51 54 52
46 48 47 48 55 52 44 44 52 71 76 82 86 85 73 70 66 63 60 54 52 50 51 65 71 77 87 93 89 74 62 56 52 50 48 65 81 100 100 80 44 46 54 41
65 66 53 55 69 64 58 50 48 42 45 48 55 55 59 62 58 52 50 51 48 44 48 53 64 64 78 65 66 56 49 53 48 41 43 45 61 88 100 85 68 84 45 45
74 90 75 82 95 97 97 88 85 58 49 47 39 37 55 48 43 46 73 59 62 51 48 44 48 43 47 48 44 41 34 33 38 38 33 42 54 59 100 98 60 60 49 54
42 41 39 42 44 58 93 100 100 100 79 47 51 35 52 68 38 44 47 46 44 48 39 36 41 38 36 34 31 31 25 21 20 23 25 29 39 56 59 78 94 62 56 50
26 18 17 21 26 30 32 36 39 50 46 34 50 42 51 56 39 26 32 40 32 27 34 29 25 22 27 28 26 26 30 26 18 16 17 23 24 33 43 71 100 80 55 44
21 15 12 14 14 14 19 20 22 24 29 26 25 30 43 30 33 28 32 32 31 25 22 23 20 17 16 15 16 15 15 16 15 11 12 17 22 28 30 32 66 64 44 45
11 10 12 13 14 13 17 19 20 18 22 23 23 26 26 26 27 29 26 23 25 32 21 17 16 14 12 12 10 11 11 10 10 9 9 11 12 15 23 33 44 47 37 32
13 18 20 24 25 30 25 26 27 25 24 24 27 23 24 28 24 19 24 25 29 24 21 18 14 15 13 11 10 9 9 9 8 8 9 9 10 11 14 18 29 33 32 26
22 26 48 37 38 35 36 32 27 30 28 27 24 25 21 21 23 22 25 21 18 21 18 16 12 10 9 8 8 7 7 7 7 7 8 8 9 10 12 13 18 23 23 20
39 50 45 39 39 37 47 41 42 41 37 34 25 22 20 22 27 28 20 18 17 13 11 9 8 9 10 15 14 15 15 12 10 10 11 11 10 10 11 12 14 19 18 24
64 64 47 60 58 55 55 55 50 38 30 29 30 32 18 23 23 19 16 14 11 10 9 13 19 29 38 44 34 27 21 19 18 15 14 13 15 26 29 31 22 22 24 31
72 70 71 72 74 62 58 36 30 31 34 30 21 16 22 20 17 14 12 11 13 17 44 63 78 83 82 82 76 60 41 25 24 36 20 25 61 56 48 27 33 38 42 47
78 81 78 71 71 56 34 26 27 28 24 20 18 19 16 14 13 12 13 22 31 84 100 100 90 82 88 83 99 100 98 57 40 85 65 56 98 93 73 79 79 52 73 80
80 79 76 69 55 33 29 27 23 22 18 15 12 13 14 13 14 16 24 40 91 100 100 100 87 97 95 94 100 100 98 86 66 87 100 76 93 100 95 88 69 86 100 100
82 81 59 44 35 28 32 26 20 15 13 10 11 14 15 19 23 41 37 75 100 100 100 100 100 96 97 98 90 100 97 91 100 92 100 100 100 100 100 93 98 100 100 100
73 54 49 40 35 36 23 16 14 13 11 12 15 20 25 28 44 60 97 100 100 100 100 100 100 97 99 100 100 91 100 89 100 100 100 100 100 100 100 100 100 100 100 100
55 54 44 39 31 19 15 14 12 13 14 20 25 35 37 72 91 82 100 100 100 100 100 98 81 90 100 100 100 99 96 100 88 100 100 100 100 100 100 100 100 100 100 100
49 45 36 25 18 16 14 13 15 16 21 31 41 50 65 94 100 100 100 100 100 100 100 99 92 92 100 100 100 100 98 100 97 100 100 100 100 100 100 100 100 100 100 100
50 37 23 18 17 16 15 16 20 28 32 37 43 55 86 100 100 100 100 99 100 100 100 98 86 86 100 100 100 100 99 92 100 100 100 100 100 100 100 100 100 100 100 100
41 25 21 19 19 19 17 24 27 36 41 57 55 64 90 95 100 100 100 99 99 100 100 100 98 85 91 100 100 100 100 100 100 100 100 100 100 100 100 100 100 100 100 100
27 25 21 20 21 22 26 29 33 47 50 64 70 82 92 97 100 100 100 99 100 100 100 99 94 96 80 94 100 100 100 100 100 100 100 100 100 100 100 100 100 100 100 100
24 24 22 22 21 26 34 42 43 51 53 65 74 82 100 100 100 100 100 100 100 100 99 100 100 95 91 88 96 100 100 100 100 100 100 100 100 100 100 100 100 100 100 100
21 22 26 26 27 37 48 50 55 59 74 83 89 84 90 99 100 99 100 100 100 100 100 99 100 100 97 89 89 95 100 100 100 100 100 100 100 100 100 100 100 100 100 100
18 22 37 31 33 42 49 70 82 70 66 85 92 94 88 88 89 88 82 88 94 99 100 100 100 100 100 99 98 81 89 99 100 99 100 100 100 100 100 100 100 97 94 100
17 19 38 51 41 45 51 63 96 98 100 99 97 99 89 81 72 69 68 69 74 81 82 88 95 98 100 100 100 100 100 88 89 100 96 94 100 100 100 100 100 100 100 100

GFSCGP_250_rhum_117.txt.gz
RH
84 92 92 91 93 84 70 48 47 49 42 50 54 49 70 71 67 78 100 100 100 100 100 100 100 100 97 90 77 69 61 60 60 58 54 73 99 100 99 100 100 100 100 100
62 54 77 84 88 83 65 53 41 47 47 41 51 50 46 61 71 68 74 87 100 100 100 97 95 92 83 67 62 61 56 53 73 70 59 62 85 80 87 75 81 97 100 100
84 75 75 74 62 62 60 47 44 52 47 47 64 48 58 50 52 64 71 74 77 80 86 84 78 75 67 61 57 54 53 53 56 57 67 66 70 70 73 67 69 64 77 86
80 81 60 57 51 50 48 57 47 39 35 37 44 36 46 70 55 33 46 72 70 70 72 72 69 64 61 61 56 50 49 47 47 44 46 50 47 42 51 60 69 63 69 89
74 64 62 59 67 55 51 47 38 30 26 22 28 27 21 100 33 25 36 41 43 50 56 63 62 54 48 44 41 40 37 38 40 41 32 35 36 39 48 45 67 70 64 100
60 48 60 63 57 57 44 32 20 14 12 12 15 16 18 25 52 24 27 49 63 55 45 45 46 48 43 39 30 26 27 30 29 30 30 33 33 38 39 45 67 89 86 73
71 70 66 38 48 32 24 17 13 11 10 9 12 12 17 16 24 30 27 27 32 63 84 75 64 36 32 30 27 28 29 28 24 19 17 17 19 20 23 33 42 69 95 99
78 64 45 37 32 16 12 12 13 10 12 11 10 12 12 19 19 21 21 20 23 23 26 22 20 18 23 28 26 23 17 18 18 17 15 15 14 15 15 16 20 31 65 87
67 40 35 30 23 16 17 14 15 21 23 18 31 29 11 24 23 21 23 21 21 22 22 22 28 26 16 16 17 18 16 14 13 13 12 12 11 11 11 12 13 14 24 46
33 29 20 16 16 19 21 25 35 33 29 35 39 37 28 27 30 26 25 28 26 24 24 24 21 20 19 16 14 13 12 11 9 8 8 8 8 8 9 10 10 10 14 38
20 17 15 18 18 36 38 50 31 43 44 41 33 28 26 26 24 28 34 31 21 19 21 22 20 19 18 14 11 10 9 9 8 8 10 10 8 7 7 8 10 12 31 45
16 17 22 32 46 52 44 52 76 55 45 36 32 37 34 31 36 38 30 20 27 21 21 20 16 12 12 29 36 30 25 22 18 15 14 14 12 11 10 9 49 34 60 66
25 32 48 60 59 58 65 57 53 49 42 39 38 38 36 38 34 28 22 26 23 18 14 13 19 48 78 84 72 62 66 36 22 24 26 22 16 16 16 24 75 100 77 76
53 64 73 65 70 58 62 61 48 40 44 38 34 29 31 28 26 20 18 16 14 18 26 76 96 97 100 96 100 100 80 61 52 82 85 51 22 51 67 59 64 98 81 74
76 77 72 71 68 64 60 45 43 35 29 28 26 29 26 20 16 14 14 19 28 54 100 100 100 100 97 100 100 100 88 84 76 100 100 98 56 51 79 84 59 66 60 72
82 75 73 70 71 64 57 38 32 27 25 21 19 17 14 14 14 16 22 49 56 99 100 100 100 100 100 100 100 100 100 100 94 100 100 100 94 70 75 83 94 79 100 100
78 76 68 69 61 47 36 32 27 24 16 15 16 14 13 15 25 34 62 78 100 100 100 100 100 100 100 97 100 94 85 100 100 100 100 100 100 100 100 100 100 90 98 100
81 76 71 52 48 42 35 28 22 16 15 15 16 18 24 40 51 59 100 100 100 100 100 100 100 98 99 98 100 94 94 100 98 100 100 100 100 100 100 100 100 100 100 100
85 64 58 48 41 38 32 21 18 16 15 18 28 37 52 73 76 94 100 100 100 100 100 100 100 97 100 94 100 100 94 100 89 100 100 100 100 100 100 100 100 100 100 100
64 58 50 43 45 33 22 18 19 18 20 26 48 58 100 92 78 92 100 100 100 100 100 100 100 88 97 98 100 100 96 100 100 99 100 100 100 100 100 100 100 100 100 100
61 51 44 46 35 22 20 21 22 23 31 40 49 70 88 100 100 100 100 100 100 100 100 100 92 98 97 93 100 99 98 100 100 100 100 100 100 100 100 100 100 100 100 100
48 51 50 36 26 22 23 24 25 32 31 58 61 74 91 100 100 100 100 97 100 100 100 100 100 100 98 88 100 97 100 100 100 100 100 100 100 100 100 100 100 100 100 100
48 50 36 27 24 22 24 29 28 37 46 59 63 80 100 100 100 100 100 100 100 92 100 100 99 96 100 89 86 100 100 100 100 100 100 100 100 100 100 100 100 100 100 100
46 41 28 27 24 26 31 28 32 37 50 75 77 81 94 99 100 100 100 100 100 100 100 100 100 100 99 100 95 97 97 100 96 100 100 99 100 100 100 100 100 100 100 100
40 33 30 26 24 31 33 34 33 36 51 62 77 97 96 99 99 100 100 97 95 100 100 100 100 100 100 93 92 97 89 96 99 98 97 100 97 100 100 100 100 100 100 100
31 27 29 25 25 34 38 37 42 48 57 63 75 85 94 94 90 96 94 95 94 88 86 91 100 100 100 100 95 93 95 97 90 94 100 100 100 94 99 100 100 100 100 100

GFSCGP_250_rhum_120.txt.gz
RH
100 100 100 100 100 100 80 82 65 67 63 56 49 48 59 62 59 64 57 46 42 49 49 56 57 66 100 100 100 100 100 100 100 100 98 95 97 85 67 59 64 73 100 100
48 51 67 80 94 99 100 100 91 75 74 63 54 52 49 50 52 49 53 59 46 38 38 60 59 54 77 100 100 100 100 100 100 100 100 97 90 74 69 63 65 65 64 98
41 48 53 71 90 100 100 100 94 88 77 62 55 51 60 62 46 39 42 30 27 34 43 40 58 57 58 72 89 93 93 89 91 93 89 81 72 68 64 60 77 67 76 79
45 58 77 72 73 82 78 53 52 68 68 60 56 54 51 49 38 41 20 13 25 34 33 48 46 53 60 59 61 71 70 70 72 65 66 68 71 66 64 58 58 56 67 62
48 57 60 62 68 72 79 75 63 54 51 51 50 45 31 36 23 15 15 14 15 19 23 30 44 47 52 56 58 60 60 63 62 59 62 66 65 56 68 61 47 49 53 60
71 88 94 95 87 76 67 67 77 77 45 33 44 34 30 18 12 9 8 8 9 11 14 19 32 41 45 49 48 51 56 64 66 61 60 58 52 62 50 54 47 39 45 58
84 65 61 66 61 70 71 60 47 47 43 30 34 26 12 8 9 12 10 7 7 10 13 15 20 27 33 36 39 40 41 53 55 75 90 83 49 35 30 29 30 38 33 40
60 63 71 60 65 74 66 51 48 34 29 24 17 13 10 7 20 19 25 10 8 9 12 16 19 21 26 29 32 36 35 44 57 45 36 28 22 23 23 27 26 24 25 33
92 84 82 83 70 48 56 48 39 24 16 12 15 21 11 17 36 38 33 30 19 13 10 11 15 20 21 23 24 25 25 25 24 24 26 21 17 16 15 14 13 13 15 22
97 78 85 65 42 44 39 29 19 14 12 15 18 25 32 36 40 34 32 40 36 28 25 22 25 23 20 21 23 23 24 23 21 19 19 17 15 14 13 12 11 10 10 11
59 47 50 39 35 25 18 14 15 14 18 18 35 48 45 27 27 40 52 43 40 33 31 31 23 19 22 25 25 25 24 22 18 13 11 10 10 9 9 8 8 8 9 10
38 39 38 30 19 14 14 16 19 32 43 42 42 49 50 35 35 42 41 40 34 35 32 28 29 29 28 28 27 20 16 15 15 14 15 20 20 19 13 8 7 7 7 9
40 28 23 19 16 15 22 38 53 55 58 66 47 37 43 48 48 40 31 28 35 32 28 27 25 24 22 34 55 57 66 56 38 31 32 33 49 42 16 12 11 9 8 12
26 22 19 20 24 39 48 57 62 60 57 46 42 44 51 40 32 27 26 32 28 28 24 20 25 67 89 89 87 95 83 82 83 75 55 72 92 88 42 14 18 40 41 43
24 22 24 38 52 67 74 70 64 54 47 48 40 38 36 32 30 26 31 24 20 20 26 55 100 100 100 100 100 100 94 98 94 63 72 96 100 100 75 48 98 98 85 88
32 44 67 74 81 80 76 64 52 48 47 33 36 36 31 27 23 20 18 18 28 53 96 100 100 100 100 100 100 96 98 98 100 100 98 93 100 100 99 95 100 98 79 78
66 81 91 85 79 71 71 57 45 38 34 35 32 24 18 17 15 19 20 34 60 85 100 100 100 100 100 100 100 100 99 98 100 100 84 100 100 98 100 100 100 94 93 100
92 97 89 77 70 69 56 42 36 36 32 25 18 16 16 18 25 30 46 89 97 100 100 100 100 100 100 100 100 100 100 100 95 100 100 100 100 94 93 97 100 100 100 100
91 83 81 76 64 58 49 37 37 31 22 19 18 19 22 40 60 74 99 100 100 100 100 100 100 100 100 100 100 100 98 97 100 100 100 100 100 98 100 100 100 100 100 100
91 79 81 66 58 57 44 38 35 22 20 26 25 29 44 71 90 98 100 100 100 100 100 100 100 100 100 90 88 97 100 94 100 100 100 100 100 100 100 100 100 100 100 100
86 79 73 64 58 50 44 39 26 20 22 31 40 48 51 100 82 100 100 100 100 100 100 100 100 100 100 96 98 96 99 100 89 100 100 92 100 100 100 100 100 100 100 100
82 73 62 61 51 56 43 30 23 26 31 35 55 67 92 100 97 100 100 100 100 100 100 100 100 100 100 100 92 98 100 100 100 100 100 100 94 100 100 100 100 100 100 100
82 69 65 55 55 53 36 27 24 29 34 44 63 91 89 100 100 100 100 100 100 97 100 100 100 100 100 97 92 87 92 100 100 100 100 100 100 100 100 100 100 100 100 100
71 67 61 50 53 41 29 27 26 29 41 51 68 84 100 100 100 100 100 100 100 100 100 100 100 100 95 100 100 92 79 99 100 97 98 100 100 100 100 100 100 100 100 100
67 54 50 53 48 36 28 26 28 32 43 62 73 82 91 100 100 99 99 98 95 99 100 100 100 100 100 100 96 90 85 84 99 100 97 100 88 100 100 100 100 100 96 99
54 49 49 51 42 29 27 26 28 37 40 56 75 94 91 85 97 96 97 98 96 100 100 94 93 97 98 97 97 91 79 79 88 80 100 99 91 95 100 97 98 100 100 96

GFSCGP_250_rhum_123.txt.gz
RH
100 100 100 100 100 100 95 91 74 72 60 62 55 63 83 74 100 100 89 66 46 35 40 46 41 46 49 49 50 53 52 46 71 100 100 100 100 100 100 91 95 72 62 75
100 91 97 94 77 57 47 44 43 41 40 39 70 98 94 75 57 55 49 46 42 31 29 36 41 36 39 42 40 40 46 45 42 53 98 100 100 100 100 100 95 95 71 58
88 97 97 86 80 81 90 82 83 59 56 57 53 49 41 53 73 52 57 57 49 41 28 25 25 22 20 20 26 34 33 37 42 49 59 89 100 100 100 100 100 100 100 90
100 100 100 100 86 84 79 82 60 62 69 75 70 45 46 52 55 59 55 49 40 28 23 24 20 17 17 19 22 24 31 32 33 47 57 68 80 93 100 100 100 99 94 85
77 78 65 67 66 60 63 62 55 58 54 43 53 51 49 66 69 49 37 39 32 22 19 17 12 9 8 10 14 18 21 22 25 35 48 54 58 71 84 93 96 94 85 77
66 66 64 61 58 53 56 60 61 53 59 49 68 60 60 62 35 28 26 24 20 14 10 8 8 8 8 7 7 9 13 16 21 25 35 47 53 59 65 69 74 71 66 63
70 67 66 64 57 63 68 60 64 58 58 68 79 67 53 35 27 29 19 16 13 12 10 10 10 10 10 10 8 8 9 13 18 23 30 42 47 55 62 64 62 65 68 73
55 61 59 53 51 54 50 56 55 62 64 80 82 44 41 22 21 14 12 10 10 10 12 15 17 16 15 12 12 12 11 12 14 18 22 32 40 41 48 58 60 59 51 48
69 88 72 69 75 65 56 56 59 65 70 54 35 30 18 15 14 12 10 12 17 20 21 29 31 27 21 17 15 12 11 12 13 14 17 19 22 25 30 33 37 40 39 48
88 66 53 56 55 46 42 46 64 75 43 27 20 15 13 12 13 15 20 30 30 28 23 26 30 28 18 16 18 21 21 20 19 18 17 17 18 18 19 20 20 20 20 19
53 38 52 44 44 40 39 51 48 38 27 16 13 15 16 13 19 28 37 44 47 44 45 36 29 21 20 23 24 25 25 24 24 23 21 20 18 17 15 14 12 11 11 9
51 36 37 38 48 56 44 41 30 17 17 18 15 24 38 40 40 42 47 53 53 49 49 43 37 34 32 33 34 34 30 28 24 21 18 18 16 15 13 11 10 10 10 9
55 38 36 42 52 51 42 36 20 17 16 36 27 44 55 58 45 47 41 35 36 38 37 35 35 34 33 33 32 32 39 50 54 43 44 54 62 45 39 26 27 17 12 9
36 37 54 46 45 33 27 21 21 26 36 40 45 44 61 57 56 46 37 32 30 27 28 30 31 29 34 47 50 82 82 88 92 93 93 85 96 80 71 71 67 27 14 11
32 56 47 48 24 22 26 30 43 58 66 54 54 51 54 42 42 37 29 29 30 31 31 30 35 50 95 82 92 97 80 92 96 100 100 100 100 100 97 100 100 38 41 18
55 61 34 27 24 29 54 66 78 79 67 57 53 45 34 32 29 30 30 28 27 24 25 34 80 100 99 100 100 97 94 100 100 100 100 100 100 100 100 100 100 100 100 100
33 37 32 33 49 76 87 80 82 78 61 51 40 35 34 30 27 22 21 20 21 30 68 99 100 100 100 100 100 100 98 100 100 100 100 100 100 100 100 100 100 100 100 100
38 36 58 62 76 96 95 85 77 58 43 39 38 33 25 20 19 19 22 29 48 80 100 100 100 100 100 100 100 100 100 100 100 100 100 93 100 100 100 100 100 100 100 100
57 82 84 80 85 94 81 74 65 47 39 43 30 23 19 20 28 36 47 78 98 100 100 100 100 100 100 100 100 100 100 100 100 100 100 96 96 100 100 100 100 100 100 100
84 96 100 90 81 79 77 69 52 45 46 35 23 20 25 31 58 70 88 100 100 98 100 100 100 100 100 99 100 100 100 100 100 100 100 100 100 100 100 100 100 100 100 100
97 99 99 87 86 78 72 67 49 50 43 29 24 25 40 47 61 98 100 100 100 100 100 100 100 100 100 95 94 100 98 100 100 96 100 100 100 100 100 100 100 100 100 100
100 98 93 83 76 73 70 59 53 51 34 28 29 34 57 52 56 98 100 100 100 100 100 100 100 100 100 97 94 91 86 88 95 100 92 98 100 100 100 100 100 100 100 100
98 92 92 83 74 66 68 57 52 42 29 31 34 44 76 99 70 100 100 100 100 100 100 100 100 100 100 100 100 98 84 97 96 90 100 91 97 100 100 100 100 100 100 100
91 90 85 77 70 58 60 57 48 33 29 30 45 49 82 100 100 100 99 100 100 100 100 100 100 100 100 100 100 99 100 99 78 83 98 100 100 94 99 100 100 100 100 100
88 84 89 81 65 53 52 53 51 32 28 30 41 58 80 100 100 100 100 100 99 100 100 100 100 100 100 100 100 100 100 91 95 96 82 88 100 99 86 92 88 100 99 100
81 86 84 71 58 50 54 53 41 32 26 30 42 65 78 96 99 99 99 98 96 99 96 96 100 95 93 93 97 97 97 94 90 89 83 84 87 100 98 76 80 79 86 93